Time,TemperatureF,DewpointF,PressureIn,WindDirection,WindDirectionDegrees,WindSpeedMPH,WindSpeedGustMPH,Humidity,HourlyPrecipIn,Conditions,Clouds,dailyrainin,SoftwareType,DateUTC
2013-07-21 00:00:00,80.1,71.5,29.81,NNW,328,2.0,3.0,75,0.00,,---,0.00,VWS V14.01,2013-07-21 04:00:00,
2013-07-21 00:01:00,80.1,71.5,29.81,NNE,18,0.0,6.0,75,0.00,,---,0.00,VWS V14.01,2013-07-21 04:01:00,
2013-07-21 00:02:00,80.2,71.6,29.81,NNE,18,0.0,1.0,75,0.00,,---,0.00,VWS V14.01,2013-07-21 04:02:00,
2013-07-21 00:03:00,80.2,71.9,29.80,NNE,18,0.0,0.0,76,0.00,,---,0.00,VWS V14.01,2013-07-21 04:03:00,
2013-07-21 00:04:00,80.1,71.9,29.81,NNE,18,0.0,2.0,76,0.00,,---,0.00,VWS V14.01,2013-07-21 04:04:00,
2013-07-21 00:05:00,80.2,71.9,29.80,NNE,18,1.0,1.0,76,0.00,,---,0.00,VWS V14.01,2013-07-21 04:05:00,
2013-07-21 00:06:00,80.2,71.9,29.81,NNE,18,0.0,1.0,76,0.00,,---,0.00,VWS V14.01,2013-07-21 04:06:00,
2013-07-21 00:07:00,80.2,71.9,29.80,NNE,18,2.0,4.0,76,0.00,,---,0.00,VWS V14.01,2013-07-21 04:07:00,
2013-07-21 00:08:00,80.2,71.6,29.80,NNE,18,1.0,4.0,75,0.00,,---,0.00,VWS V14.01,2013-07-21 04:08:00,
2013-07-21 00:09:00,80.2,71.9,29.81,NNE,18,0.0,0.0,76,0.00,,---,0.00,VWS V14.01,2013-07-21 04:09:00,
2013-07-21 00:10:00,80.2,71.9,29.81,NNE,18,0.0,0.0,76,0.00,,---,0.00,VWS V14.01,2013-07-21 04:10:00,
2013-07-21 00:12:00,80.3,72.1,29.80,NNE,18,1.0,1.0,76,0.00,,---,0.00,VWS V14.01,2013-07-21 04:12:00,
2013-07-21 00:13:00,80.2,71.9,29.81,NNE,18,0.0,2.0,76,0.00,,---,0.00,VWS V14.01,2013-07-21 04:13:00,
2013-07-21 00:14:00,80.2,71.9,29.80,NNE,18,0.0,0.0,76,0.00,,---,0.00,VWS V14.01,2013-07-21 04:14:00,
2013-07-21 00:15:00,80.2,71.9,29.80,NNE,18,0.0,0.0,76,0.00,,---,0.00,VWS V14.01,2013-07-21 04:15:00,
2013-07-21 00:16:00,80.3,71.7,29.80,NNE,18,0.0,0.0,75,0.00,,---,0.00,VWS V14.01,2013-07-21 04:16:00,
2013-07-21 00:17:00,80.3,71.7,29.80,NNE,18,0.0,0.0,75,0.00,,---,0.00,VWS V14.01,2013-07-21 04:17:00,
2013-07-21 00:18:00,80.3,71.7,29.80,NNE,18,0.0,0.0,75,0.00,,---,0.00,VWS V14.01,2013-07-21 04:18:00,
2013-07-21 00:19:00,80.2,71.9,29.81,NNE,18,0.0,0.0,76,0.00,,---,0.00,VWS V14.01,2013-07-21 04:19:00,
2013-07-21 00:20:00,80.2,71.9,29.81,NNE,18,0.0,0.0,76,0.00,,---,0.00,VWS V14.01,2013-07-21 04:20:00,
2013-07-21 00:21:00,80.3,72.1,29.81,NNE,18,0.0,0.0,76,0.00,,---,0.00,VWS V14.01,2013-07-21 04:21:00,
2013-07-21 00:22:00,80.2,71.9,29.81,NNE,18,0.0,0.0,76,0.00,,---,0.00,VWS V14.01,2013-07-21 04:22:00,
2013-07-21 00:23:00,80.2,71.9,29.81,NNE,18,0.0,0.0,76,0.00,,---,0.00,VWS V14.01,2013-07-21 04:23:00,
2013-07-21 00:24:00,80.2,71.9,29.81,NNE,18,0.0,0.0,76,0.00,,---,0.00,VWS V14.01,2013-07-21 04:24:00,
2013-07-21 00:25:00,80.2,71.9,29.81,NNE,18,0.0,0.0,76,0.00,,---,0.00,VWS V14.01,2013-07-21 04:25:00,
2013-07-21 00:26:00,80.2,71.9,29.81,NNE,18,0.0,0.0,76,0.00,,---,0.00,VWS V14.01,2013-07-21 04:26:00,
2013-07-21 00:27:00,80.2,71.9,29.81,NNE,18,0.0,0.0,76,0.00,,---,0.00,VWS V14.01,2013-07-21 04:27:00,
2013-07-21 00:28:00,80.2,71.9,29.81,NNE,18,0.0,0.0,76,0.00,,---,0.00,VWS V14.01,2013-07-21 04:28:00,
2013-07-21 00:29:00,80.2,71.9,29.81,NNE,18,0.0,0.0,76,0.00,,---,0.00,VWS V14.01,2013-07-21 04:29:00,
2013-07-21 00:30:00,80.2,71.9,29.81,NNE,18,0.0,0.0,76,0.00,,---,0.00,VWS V14.01,2013-07-21 04:30:00,
2013-07-21 00:31:00,80.2,71.9,29.81,NNE,18,1.0,1.0,76,0.00,,---,0.00,VWS V14.01,2013-07-21 04:31:00,
2013-07-21 00:32:00,80.1,71.5,29.81,NNE,18,0.0,1.0,75,0.00,,---,0.00,VWS V14.01,2013-07-21 04:32:00,
2013-07-21 00:33:00,80.1,71.9,29.81,NNE,18,0.0,0.0,76,0.00,,---,0.00,VWS V14.01,2013-07-21 04:33:00,
2013-07-21 00:34:00,80.1,71.9,29.81,NNE,18,0.0,0.0,76,0.00,,---,0.00,VWS V14.01,2013-07-21 04:34:00,
2013-07-21 00:35:00,80.1,71.9,29.81,NNE,18,0.0,0.0,76,0.00,,---,0.00,VWS V14.01,2013-07-21 04:35:00,
2013-07-21 00:36:00,80.1,71.9,29.81,NNE,18,0.0,0.0,76,0.00,,---,0.00,VWS V14.01,2013-07-21 04:36:00,
2013-07-21 00:37:00,80.1,71.9,29.81,NNE,18,0.0,0.0,76,0.00,,---,0.00,VWS V14.01,2013-07-21 04:37:00,
2013-07-21 00:38:00,80.1,71.9,29.81,NNE,18,0.0,0.0,76,0.00,,---,0.00,VWS V14.01,2013-07-21 04:38:00,
2013-07-21 00:39:00,80.0,71.8,29.81,NNE,18,0.0,0.0,76,0.00,,---,0.00,VWS V14.01,2013-07-21 04:39:00,
2013-07-21 00:40:00,80.0,71.8,29.81,NNE,18,0.0,0.0,76,0.00,,---,0.00,VWS V14.01,2013-07-21 04:40:00,
2013-07-21 00:41:00,80.0,71.8,29.81,NNE,18,0.0,0.0,76,0.00,,---,0.00,VWS V14.01,2013-07-21 04:41:00,
2013-07-21 00:42:00,80.0,71.8,29.81,NNE,18,0.0,0.0,76,0.00,,---,0.00,VWS V14.01,2013-07-21 04:42:00,
2013-07-21 00:43:00,80.0,72.2,29.81,NNE,18,0.0,0.0,77,0.00,,---,0.00,VWS V14.01,2013-07-21 04:43:00,
2013-07-21 00:44:00,80.0,72.2,29.81,NNE,18,0.0,0.0,77,0.00,,---,0.00,VWS V14.01,2013-07-21 04:44:00,
2013-07-21 00:45:00,79.9,72.1,29.81,NNE,18,0.0,0.0,77,0.00,,---,0.00,VWS V14.01,2013-07-21 04:45:00,
2013-07-21 00:46:00,79.9,72.1,29.81,NNE,18,0.0,0.0,77,0.00,,---,0.00,VWS V14.01,2013-07-21 04:46:00,
2013-07-21 00:47:00,79.9,72.1,29.81,NNE,18,0.0,0.0,77,0.00,,---,0.00,VWS V14.01,2013-07-21 04:47:00,
2013-07-21 00:48:00,79.9,72.1,29.81,NNE,18,0.0,0.0,77,0.00,,---,0.00,VWS V14.01,2013-07-21 04:48:00,
2013-07-21 00:49:00,79.8,72.3,29.81,NNE,18,0.0,0.0,78,0.00,,---,0.00,VWS V14.01,2013-07-21 04:49:00,
2013-07-21 00:50:00,79.8,71.9,29.82,NNE,18,0.0,0.0,77,0.00,,---,0.00,VWS V14.01,2013-07-21 04:50:00,
2013-07-21 00:51:00,79.8,71.9,29.82,NNE,18,0.0,0.0,77,0.00,,---,0.00,VWS V14.01,2013-07-21 04:51:00,
2013-07-21 00:52:00,79.8,71.9,29.82,NNE,18,0.0,0.0,77,0.00,,---,0.00,VWS V14.01,2013-07-21 04:52:00,
2013-07-21 00:53:00,79.7,71.9,29.82,NNE,18,0.0,0.0,77,0.00,,---,0.00,VWS V14.01,2013-07-21 04:53:00,
2013-07-21 00:54:00,79.7,71.9,29.82,NNE,18,0.0,0.0,77,0.00,,---,0.00,VWS V14.01,2013-07-21 04:54:00,
2013-07-21 00:55:00,79.7,71.9,29.82,NNE,18,0.0,0.0,77,0.00,,---,0.00,VWS V14.01,2013-07-21 04:55:00,
2013-07-21 00:56:00,79.7,71.9,29.82,NNE,18,0.0,0.0,77,0.00,,---,0.00,VWS V14.01,2013-07-21 04:56:00,
2013-07-21 00:57:00,79.6,71.8,29.82,NNE,18,0.0,0.0,77,0.00,,---,0.00,VWS V14.01,2013-07-21 04:57:00,
2013-07-21 00:58:00,79.6,71.8,29.82,NNE,18,0.0,0.0,77,0.00,,---,0.00,VWS V14.01,2013-07-21 04:58:00,
2013-07-21 00:59:00,79.6,71.8,29.82,NNE,18,0.0,0.0,77,0.00,,---,0.00,VWS V14.01,2013-07-21 04:59:00,
2013-07-21 01:00:00,79.5,71.7,29.81,NNE,18,0.0,0.0,77,0.00,,---,0.00,VWS V14.01,2013-07-21 05:00:00,
2013-07-21 01:01:00,79.5,71.7,29.81,NNE,18,0.0,0.0,77,0.00,,---,0.00,VWS V14.01,2013-07-21 05:01:00,
2013-07-21 01:02:00,79.5,72.0,29.81,NNE,18,0.0,0.0,78,0.00,,---,0.00,VWS V14.01,2013-07-21 05:02:00,
2013-07-21 01:03:00,79.5,72.0,29.81,NNE,18,0.0,0.0,78,0.00,,---,0.00,VWS V14.01,2013-07-21 05:03:00,
2013-07-21 01:04:00,79.4,71.9,29.81,NNE,18,0.0,0.0,78,0.00,,---,0.00,VWS V14.01,2013-07-21 05:04:00,
2013-07-21 01:05:00,79.3,71.8,29.82,NNE,18,0.0,0.0,78,0.00,,---,0.00,VWS V14.01,2013-07-21 05:05:00,
2013-07-21 01:06:00,79.3,71.8,29.82,NNE,18,0.0,0.0,78,0.00,,---,0.00,VWS V14.01,2013-07-21 05:06:00,
2013-07-21 01:07:00,79.3,71.8,29.81,NNE,18,0.0,0.0,78,0.00,,---,0.00,VWS V14.01,2013-07-21 05:07:00,
2013-07-21 01:08:00,79.3,71.8,29.81,NNE,18,0.0,0.0,78,0.00,,---,0.00,VWS V14.01,2013-07-21 05:08:00,
2013-07-21 01:09:00,79.3,71.8,29.81,NNE,18,0.0,0.0,78,0.00,,---,0.00,VWS V14.01,2013-07-21 05:09:00,
2013-07-21 01:10:00,79.2,71.8,29.82,NNE,18,0.0,0.0,78,0.00,,---,0.00,VWS V14.01,2013-07-21 05:10:00,
2013-07-21 01:11:00,79.2,71.8,29.81,NNE,18,0.0,0.0,78,0.00,,---,0.00,VWS V14.01,2013-07-21 05:11:00,
2013-07-21 01:12:00,79.1,71.7,29.82,NNE,18,0.0,0.0,78,0.00,,---,0.00,VWS V14.01,2013-07-21 05:12:00,
2013-07-21 01:13:00,79.1,72.0,29.82,NNE,18,0.0,0.0,79,0.00,,---,0.00,VWS V14.01,2013-07-21 05:13:00,
2013-07-21 01:14:00,79.1,72.0,29.81,NNE,18,0.0,0.0,79,0.00,,---,0.00,VWS V14.01,2013-07-21 05:14:00,
2013-07-21 01:15:00,79.0,71.9,29.81,NNE,18,0.0,0.0,79,0.00,,---,0.00,VWS V14.01,2013-07-21 05:15:00,
2013-07-21 01:16:00,78.9,71.8,29.81,NNE,18,0.0,0.0,79,0.00,,---,0.00,VWS V14.01,2013-07-21 05:16:00,
2013-07-21 01:17:00,78.9,71.8,29.81,NNE,18,0.0,0.0,79,0.00,,---,0.00,VWS V14.01,2013-07-21 05:17:00,
2013-07-21 01:18:00,78.9,71.8,29.81,NNE,18,0.0,0.0,79,0.00,,---,0.00,VWS V14.01,2013-07-21 05:18:00,
2013-07-21 01:19:00,78.9,71.8,29.81,NNE,18,0.0,0.0,79,0.00,,---,0.00,VWS V14.01,2013-07-21 05:19:00,
2013-07-21 01:20:00,78.9,71.8,29.81,NNE,18,0.0,0.0,79,0.00,,---,0.00,VWS V14.01,2013-07-21 05:20:00,
2013-07-21 01:21:00,78.8,71.7,29.82,NNE,18,0.0,0.0,79,0.00,,---,0.00,VWS V14.01,2013-07-21 05:21:00,
2013-07-21 01:22:00,78.8,71.7,29.82,NNE,18,0.0,0.0,79,0.00,,---,0.00,VWS V14.01,2013-07-21 05:22:00,
2013-07-21 01:23:00,78.7,71.6,29.82,NNE,18,0.0,0.0,79,0.00,,---,0.00,VWS V14.01,2013-07-21 05:23:00,
2013-07-21 01:24:00,78.7,71.6,29.82,NNE,18,0.0,0.0,79,0.00,,---,0.00,VWS V14.01,2013-07-21 05:24:00,
2013-07-21 01:25:00,78.7,71.6,29.82,NNE,18,0.0,0.0,79,0.00,,---,0.00,VWS V14.01,2013-07-21 05:25:00,
2013-07-21 01:26:00,78.6,71.6,29.82,NNE,18,0.0,0.0,79,0.00,,---,0.00,VWS V14.01,2013-07-21 05:26:00,
2013-07-21 01:27:00,78.6,71.6,29.82,NNE,18,0.0,0.0,79,0.00,,---,0.00,VWS V14.01,2013-07-21 05:27:00,
2013-07-21 01:28:00,78.5,71.8,29.82,NNE,18,0.0,0.0,80,0.00,,---,0.00,VWS V14.01,2013-07-21 05:28:00,
2013-07-21 01:29:00,78.5,71.8,29.82,NNE,18,0.0,0.0,80,0.00,,---,0.00,VWS V14.01,2013-07-21 05:29:00,
2013-07-21 01:30:00,78.5,71.8,29.82,NNE,18,1.0,1.0,80,0.00,,---,0.00,VWS V14.01,2013-07-21 05:30:00,
2013-07-21 01:31:00,78.4,71.7,29.82,NNE,18,0.0,0.0,80,0.00,,---,0.00,VWS V14.01,2013-07-21 05:31:00,
2013-07-21 01:32:00,78.4,71.7,29.82,NNE,18,0.0,0.0,80,0.00,,---,0.00,VWS V14.01,2013-07-21 05:32:00,
2013-07-21 01:33:00,78.4,71.7,29.82,NNE,18,0.0,0.0,80,0.00,,---,0.00,VWS V14.01,2013-07-21 05:33:00,
2013-07-21 01:34:00,78.3,71.6,29.82,NNE,18,0.0,0.0,80,0.00,,---,0.00,VWS V14.01,2013-07-21 05:34:00,
2013-07-21 01:35:00,78.3,71.6,29.82,NNE,18,0.0,0.0,80,0.00,,---,0.00,VWS V14.01,2013-07-21 05:35:00,
2013-07-21 01:36:00,78.3,71.6,29.82,NNE,18,1.0,1.0,80,0.00,,---,0.00,VWS V14.01,2013-07-21 05:36:00,
2013-07-21 01:37:00,78.3,71.6,29.82,NNE,18,1.0,1.0,80,0.00,,---,0.00,VWS V14.01,2013-07-21 05:37:00,
2013-07-21 01:38:00,78.3,71.6,29.81,NNE,18,0.0,1.0,80,0.00,,---,0.00,VWS V14.01,2013-07-21 05:38:00,
2013-07-21 01:39:00,78.2,71.5,29.81,NNE,18,0.0,0.0,80,0.00,,---,0.00,VWS V14.01,2013-07-21 05:39:00,
2013-07-21 01:40:00,78.2,71.5,29.82,NNE,18,0.0,0.0,80,0.00,,---,0.00,VWS V14.01,2013-07-21 05:40:00,
2013-07-21 01:41:00,78.2,71.5,29.82,NNE,18,0.0,0.0,80,0.00,,---,0.00,VWS V14.01,2013-07-21 05:41:00,
2013-07-21 01:42:00,78.2,71.9,29.82,NNE,18,0.0,0.0,81,0.00,,---,0.00,VWS V14.01,2013-07-21 05:42:00,
2013-07-21 01:43:00,78.2,71.9,29.82,NNE,18,0.0,0.0,81,0.00,,---,0.00,VWS V14.01,2013-07-21 05:43:00,
2013-07-21 01:44:00,78.2,71.9,29.82,NNE,18,0.0,0.0,81,0.00,,---,0.00,VWS V14.01,2013-07-21 05:44:00,
2013-07-21 01:45:00,78.1,71.8,29.82,NNE,18,0.0,0.0,81,0.00,,---,0.00,VWS V14.01,2013-07-21 05:45:00,
2013-07-21 01:46:00,78.1,71.8,29.82,NNE,18,0.0,0.0,81,0.00,,---,0.00,VWS V14.01,2013-07-21 05:46:00,
2013-07-21 01:47:00,78.0,72.1,29.82,NNE,18,0.0,0.0,82,0.00,,---,0.00,VWS V14.01,2013-07-21 05:47:00,
2013-07-21 01:48:00,78.0,72.1,29.82,NNE,18,0.0,0.0,82,0.00,,---,0.00,VWS V14.01,2013-07-21 05:48:00,
2013-07-21 01:49:00,78.0,72.1,29.82,NNE,18,0.0,0.0,82,0.00,,---,0.00,VWS V14.01,2013-07-21 05:49:00,
2013-07-21 01:50:00,78.0,72.1,29.82,NNE,18,0.0,0.0,82,0.00,,---,0.00,VWS V14.01,2013-07-21 05:50:00,
2013-07-21 01:51:00,78.0,72.1,29.82,NNE,18,0.0,0.0,82,0.00,,---,0.00,VWS V14.01,2013-07-21 05:51:00,
2013-07-21 01:52:00,77.9,72.0,29.82,NNE,18,0.0,0.0,82,0.00,,---,0.00,VWS V14.01,2013-07-21 05:52:00,
2013-07-21 01:53:00,77.9,72.0,29.82,NNE,18,0.0,0.0,82,0.00,,---,0.00,VWS V14.01,2013-07-21 05:53:00,
2013-07-21 01:54:00,77.8,71.9,29.83,NNE,18,0.0,0.0,82,0.00,,---,0.00,VWS V14.01,2013-07-21 05:54:00,
2013-07-21 01:55:00,77.8,71.9,29.83,NNE,18,0.0,1.0,82,0.00,,---,0.00,VWS V14.01,2013-07-21 05:55:00,
2013-07-21 01:56:00,77.7,72.1,29.83,NNE,18,0.0,0.0,83,0.00,,---,0.00,VWS V14.01,2013-07-21 05:56:00,
2013-07-21 01:57:00,77.7,72.1,29.83,NNE,18,0.0,0.0,83,0.00,,---,0.00,VWS V14.01,2013-07-21 05:57:00,
2013-07-21 01:58:00,77.6,72.0,29.83,NNE,18,0.0,0.0,83,0.00,,---,0.00,VWS V14.01,2013-07-21 05:58:00,
2013-07-21 01:59:00,77.6,72.0,29.83,NNE,18,0.0,0.0,83,0.00,,---,0.00,VWS V14.01,2013-07-21 05:59:00,
2013-07-21 02:00:00,77.6,72.0,29.83,NNE,18,0.0,0.0,83,0.00,,---,0.00,VWS V14.01,2013-07-21 06:00:00,
2013-07-21 02:01:00,77.5,71.9,29.83,NNE,18,0.0,0.0,83,0.00,,---,0.00,VWS V14.01,2013-07-21 06:01:00,
2013-07-21 02:02:00,77.5,71.9,29.82,NNE,18,0.0,0.0,83,0.00,,---,0.00,VWS V14.01,2013-07-21 06:02:00,
2013-07-21 02:03:00,77.5,71.9,29.82,NNE,18,0.0,0.0,83,0.00,,---,0.00,VWS V14.01,2013-07-21 06:03:00,
2013-07-21 02:04:00,77.5,71.9,29.82,NNE,18,0.0,0.0,83,0.00,,---,0.00,VWS V14.01,2013-07-21 06:04:00,
2013-07-21 02:05:00,77.4,71.8,29.82,NNE,18,0.0,0.0,83,0.00,,---,0.00,VWS V14.01,2013-07-21 06:05:00,
2013-07-21 02:06:00,77.4,71.8,29.82,NNE,18,0.0,0.0,83,0.00,,---,0.00,VWS V14.01,2013-07-21 06:06:00,
2013-07-21 02:07:00,77.3,71.7,29.82,NNE,18,0.0,0.0,83,0.00,,---,0.00,VWS V14.01,2013-07-21 06:07:00,
2013-07-21 02:08:00,77.3,71.7,29.82,NNE,18,0.0,0.0,83,0.00,,---,0.00,VWS V14.01,2013-07-21 06:08:00,
2013-07-21 02:09:00,77.3,71.7,29.82,NNE,18,0.0,0.0,83,0.00,,---,0.00,VWS V14.01,2013-07-21 06:09:00,
2013-07-21 02:10:00,77.3,71.7,29.82,NNE,18,0.0,0.0,83,0.00,,---,0.00,VWS V14.01,2013-07-21 06:10:00,
2013-07-21 02:11:00,77.3,71.7,29.82,NNE,18,0.0,0.0,83,0.00,,---,0.00,VWS V14.01,2013-07-21 06:11:00,
2013-07-21 02:12:00,77.2,72.0,29.82,NNE,18,0.0,0.0,84,0.00,,---,0.00,VWS V14.01,2013-07-21 06:12:00,
2013-07-21 02:13:00,77.2,72.0,29.82,NNE,18,0.0,0.0,84,0.00,,---,0.00,VWS V14.01,2013-07-21 06:13:00,
2013-07-21 02:14:00,77.2,72.0,29.82,NNE,18,0.0,0.0,84,0.00,,---,0.00,VWS V14.01,2013-07-21 06:14:00,
2013-07-21 02:15:00,77.1,71.9,29.82,NNE,18,0.0,0.0,84,0.00,,---,0.00,VWS V14.01,2013-07-21 06:15:00,
2013-07-21 02:16:00,77.1,71.9,29.82,NNE,18,0.0,0.0,84,0.00,,---,0.00,VWS V14.01,2013-07-21 06:16:00,
2013-07-21 02:17:00,77.1,71.9,29.82,NNE,18,0.0,0.0,84,0.00,,---,0.00,VWS V14.01,2013-07-21 06:17:00,
2013-07-21 02:18:00,77.0,71.8,29.82,NNE,18,0.0,0.0,84,0.00,,---,0.00,VWS V14.01,2013-07-21 06:18:00,
2013-07-21 02:19:00,77.0,71.8,29.82,NNE,18,0.0,0.0,84,0.00,,---,0.00,VWS V14.01,2013-07-21 06:19:00,
2013-07-21 02:20:00,77.0,71.8,29.82,NNE,18,0.0,0.0,84,0.00,,---,0.00,VWS V14.01,2013-07-21 06:20:00,
2013-07-21 02:21:00,76.9,71.7,29.82,NNE,18,0.0,0.0,84,0.00,,---,0.00,VWS V14.01,2013-07-21 06:21:00,
2013-07-21 02:22:00,76.9,71.7,29.82,NNE,18,0.0,0.0,84,0.00,,---,0.00,VWS V14.01,2013-07-21 06:22:00,
2013-07-21 02:23:00,76.8,71.9,29.82,NNE,18,0.0,0.0,85,0.00,,---,0.00,VWS V14.01,2013-07-21 06:23:00,
2013-07-21 02:24:00,76.8,71.9,29.82,NNE,18,0.0,0.0,85,0.00,,---,0.00,VWS V14.01,2013-07-21 06:24:00,
2013-07-21 02:25:00,76.8,71.9,29.82,NNE,18,0.0,0.0,85,0.00,,---,0.00,VWS V14.01,2013-07-21 06:25:00,
2013-07-21 02:26:00,76.7,71.9,29.82,NNE,18,0.0,0.0,85,0.00,,---,0.00,VWS V14.01,2013-07-21 06:26:00,
2013-07-21 02:27:00,76.7,71.9,29.82,NNE,18,0.0,0.0,85,0.00,,---,0.00,VWS V14.01,2013-07-21 06:27:00,
2013-07-21 02:28:00,76.7,71.9,29.82,NNE,18,0.0,0.0,85,0.00,,---,0.00,VWS V14.01,2013-07-21 06:28:00,
2013-07-21 02:29:00,76.7,71.9,29.82,NNE,18,0.0,0.0,85,0.00,,---,0.00,VWS V14.01,2013-07-21 06:29:00,
2013-07-21 02:30:00,76.7,71.9,29.82,NNE,18,0.0,0.0,85,0.00,,---,0.00,VWS V14.01,2013-07-21 06:30:00,
2013-07-21 02:31:00,76.7,71.9,29.82,NNE,18,0.0,0.0,85,0.00,,---,0.00,VWS V14.01,2013-07-21 06:31:00,
2013-07-21 02:32:00,76.6,71.8,29.82,NNE,18,0.0,0.0,85,0.00,,---,0.00,VWS V14.01,2013-07-21 06:32:00,
2013-07-21 02:33:00,76.6,71.8,29.82,NNE,18,0.0,0.0,85,0.00,,---,0.00,VWS V14.01,2013-07-21 06:33:00,
2013-07-21 02:34:00,76.6,71.8,29.82,NNE,18,0.0,0.0,85,0.00,,---,0.00,VWS V14.01,2013-07-21 06:34:00,
2013-07-21 02:35:00,76.6,71.8,29.82,NNE,18,0.0,0.0,85,0.00,,---,0.00,VWS V14.01,2013-07-21 06:35:00,
2013-07-21 02:36:00,76.5,71.7,29.82,NNE,18,0.0,0.0,85,0.00,,---,0.00,VWS V14.01,2013-07-21 06:36:00,
2013-07-21 02:37:00,76.5,71.7,29.82,NNE,18,0.0,0.0,85,0.00,,---,0.00,VWS V14.01,2013-07-21 06:37:00,
2013-07-21 02:38:00,76.5,71.7,29.82,NNE,18,0.0,0.0,85,0.00,,---,0.00,VWS V14.01,2013-07-21 06:38:00,
2013-07-21 02:39:00,76.5,71.7,29.82,NNE,18,0.0,0.0,85,0.00,,---,0.00,VWS V14.01,2013-07-21 06:39:00,
2013-07-21 02:40:00,76.4,71.6,29.82,NNE,18,0.0,0.0,85,0.00,,---,0.00,VWS V14.01,2013-07-21 06:40:00,
2013-07-21 02:41:00,76.4,71.6,29.82,NNE,18,0.0,0.0,85,0.00,,---,0.00,VWS V14.01,2013-07-21 06:41:00,
2013-07-21 02:42:00,76.4,71.6,29.82,NNE,18,0.0,0.0,85,0.00,,---,0.00,VWS V14.01,2013-07-21 06:42:00,
2013-07-21 02:43:00,76.4,71.6,29.82,NNE,18,0.0,0.0,85,0.00,,---,0.00,VWS V14.01,2013-07-21 06:43:00,
2013-07-21 02:44:00,76.4,71.6,29.82,NNE,18,0.0,0.0,85,0.00,,---,0.00,VWS V14.01,2013-07-21 06:44:00,
2013-07-21 02:45:00,76.3,71.5,29.82,NNE,18,0.0,0.0,85,0.00,,---,0.00,VWS V14.01,2013-07-21 06:45:00,
2013-07-21 02:46:00,76.3,71.8,29.82,NNE,18,0.0,0.0,86,0.00,,---,0.00,VWS V14.01,2013-07-21 06:46:00,
2013-07-21 02:47:00,76.3,71.8,29.82,NNE,18,0.0,0.0,86,0.00,,---,0.00,VWS V14.01,2013-07-21 06:47:00,
2013-07-21 02:48:00,76.2,71.7,29.82,NNE,18,0.0,0.0,86,0.00,,---,0.00,VWS V14.01,2013-07-21 06:48:00,
2013-07-21 02:49:00,76.2,71.7,29.82,NNE,18,0.0,0.0,86,0.00,,---,0.00,VWS V14.01,2013-07-21 06:49:00,
2013-07-21 02:50:00,76.2,71.7,29.82,NNE,18,0.0,0.0,86,0.00,,---,0.00,VWS V14.01,2013-07-21 06:50:00,
2013-07-21 02:51:00,76.2,71.7,29.82,NNE,18,0.0,0.0,86,0.00,,---,0.00,VWS V14.01,2013-07-21 06:51:00,
2013-07-21 02:52:00,76.2,71.7,29.82,NNE,18,0.0,0.0,86,0.00,,---,0.00,VWS V14.01,2013-07-21 06:52:00,
2013-07-21 02:53:00,76.1,71.6,29.82,NNE,18,0.0,0.0,86,0.00,,---,0.00,VWS V14.01,2013-07-21 06:53:00,
2013-07-21 02:54:00,76.1,71.6,29.82,NNE,18,0.0,0.0,86,0.00,,---,0.00,VWS V14.01,2013-07-21 06:54:00,
2013-07-21 02:55:00,76.1,71.6,29.82,NNE,18,0.0,0.0,86,0.00,,---,0.00,VWS V14.01,2013-07-21 06:55:00,
2013-07-21 02:56:00,76.1,71.6,29.82,NNE,18,0.0,0.0,86,0.00,,---,0.00,VWS V14.01,2013-07-21 06:56:00,
2013-07-21 02:57:00,76.1,71.6,29.82,NNE,18,0.0,0.0,86,0.00,,---,0.00,VWS V14.01,2013-07-21 06:57:00,
2013-07-21 02:58:00,76.1,71.6,29.82,NNE,18,0.0,0.0,86,0.00,,---,0.00,VWS V14.01,2013-07-21 06:58:00,
2013-07-21 02:59:00,76.1,71.6,29.82,NNE,18,0.0,0.0,86,0.00,,---,0.00,VWS V14.01,2013-07-21 06:59:00,
2013-07-21 03:00:00,76.1,71.6,29.82,NNE,18,0.0,0.0,86,0.00,,---,0.00,VWS V14.01,2013-07-21 07:00:00,
2013-07-21 03:01:00,76.0,71.5,29.82,NNE,18,0.0,0.0,86,0.00,,---,0.00,VWS V14.01,2013-07-21 07:01:00,
2013-07-21 03:02:00,76.0,71.5,29.82,NNE,18,0.0,0.0,86,0.00,,---,0.00,VWS V14.01,2013-07-21 07:02:00,
2013-07-21 03:03:00,76.0,71.9,29.82,NNE,18,0.0,0.0,87,0.00,,---,0.00,VWS V14.01,2013-07-21 07:03:00,
2013-07-21 03:04:00,76.0,71.9,29.82,NNE,18,0.0,0.0,87,0.00,,---,0.00,VWS V14.01,2013-07-21 07:04:00,
2013-07-21 03:05:00,76.0,71.9,29.82,NNE,18,0.0,0.0,87,0.00,,---,0.00,VWS V14.01,2013-07-21 07:05:00,
2013-07-21 03:06:00,76.0,71.9,29.82,NNE,18,0.0,0.0,87,0.00,,---,0.00,VWS V14.01,2013-07-21 07:06:00,
2013-07-21 03:07:00,76.0,71.9,29.82,NNE,18,0.0,0.0,87,0.00,,---,0.00,VWS V14.01,2013-07-21 07:07:00,
2013-07-21 03:08:00,75.9,71.8,29.82,NNE,18,0.0,0.0,87,0.00,,---,0.00,VWS V14.01,2013-07-21 07:08:00,
2013-07-21 03:09:00,75.9,71.8,29.82,NNE,18,0.0,0.0,87,0.00,,---,0.00,VWS V14.01,2013-07-21 07:09:00,
2013-07-21 03:10:00,75.9,71.8,29.82,NNE,18,0.0,0.0,87,0.00,,---,0.00,VWS V14.01,2013-07-21 07:10:00,
2013-07-21 03:11:00,75.9,71.8,29.82,NNE,18,0.0,0.0,87,0.00,,---,0.00,VWS V14.01,2013-07-21 07:11:00,
2013-07-21 03:12:00,75.9,71.8,29.81,NNE,18,0.0,0.0,87,0.00,,---,0.00,VWS V14.01,2013-07-21 07:12:00,
2013-07-21 03:13:00,75.8,72.0,29.81,NNE,18,0.0,0.0,88,0.00,,---,0.00,VWS V14.01,2013-07-21 07:13:00,
2013-07-21 03:14:00,75.8,72.0,29.81,NNE,18,0.0,0.0,88,0.00,,---,0.00,VWS V14.01,2013-07-21 07:14:00,
2013-07-21 03:15:00,75.8,72.0,29.81,NNE,18,0.0,0.0,88,0.00,,---,0.00,VWS V14.01,2013-07-21 07:15:00,
2013-07-21 03:16:00,75.8,72.0,29.81,NNE,18,0.0,0.0,88,0.00,,---,0.00,VWS V14.01,2013-07-21 07:16:00,
2013-07-21 03:17:00,75.8,72.0,29.82,NNE,18,0.0,0.0,88,0.00,,---,0.00,VWS V14.01,2013-07-21 07:17:00,
2013-07-21 03:18:00,75.8,72.0,29.82,NNE,18,0.0,0.0,88,0.00,,---,0.00,VWS V14.01,2013-07-21 07:18:00,
2013-07-21 03:19:00,75.8,72.0,29.82,NNE,18,0.0,0.0,88,0.00,,---,0.00,VWS V14.01,2013-07-21 07:19:00,
2013-07-21 03:20:00,75.8,72.0,29.82,NNE,18,0.0,0.0,88,0.00,,---,0.00,VWS V14.01,2013-07-21 07:20:00,
2013-07-21 03:21:00,75.7,71.9,29.82,NNE,18,0.0,0.0,88,0.00,,---,0.00,VWS V14.01,2013-07-21 07:21:00,
2013-07-21 03:22:00,75.7,71.9,29.82,NNE,18,0.0,0.0,88,0.00,,---,0.00,VWS V14.01,2013-07-21 07:22:00,
2013-07-21 03:23:00,75.7,71.9,29.82,NNE,18,0.0,2.0,88,0.00,,---,0.00,VWS V14.01,2013-07-21 07:23:00,
2013-07-21 03:24:00,75.7,71.9,29.82,NNE,18,0.0,2.0,88,0.00,,---,0.00,VWS V14.01,2013-07-21 07:24:00,
2013-07-21 03:25:00,75.7,71.9,29.82,NNE,18,0.0,2.0,88,0.00,,---,0.00,VWS V14.01,2013-07-21 07:25:00,
2013-07-21 03:26:00,75.7,71.9,29.82,NNE,18,0.0,0.0,88,0.00,,---,0.00,VWS V14.01,2013-07-21 07:26:00,
2013-07-21 03:27:00,75.7,71.9,29.82,NNE,18,0.0,1.0,88,0.00,,---,0.00,VWS V14.01,2013-07-21 07:27:00,
2013-07-21 03:28:00,75.6,71.8,29.82,NNE,18,0.0,0.0,88,0.00,,---,0.00,VWS V14.01,2013-07-21 07:28:00,
2013-07-21 03:29:00,75.6,71.8,29.82,NNE,18,0.0,0.0,88,0.00,,---,0.00,VWS V14.01,2013-07-21 07:29:00,
2013-07-21 03:30:00,75.6,71.8,29.82,NNE,18,0.0,1.0,88,0.00,,---,0.00,VWS V14.01,2013-07-21 07:30:00,
2013-07-21 03:31:00,75.6,71.8,29.82,NNE,18,0.0,0.0,88,0.00,,---,0.00,VWS V14.01,2013-07-21 07:31:00,
2013-07-21 03:32:00,75.6,71.8,29.82,NNE,18,0.0,0.0,88,0.00,,---,0.00,VWS V14.01,2013-07-21 07:32:00,
2013-07-21 03:33:00,75.6,71.8,29.82,NNE,18,0.0,0.0,88,0.00,,---,0.00,VWS V14.01,2013-07-21 07:33:00,
2013-07-21 03:34:00,75.6,71.8,29.82,NNE,18,0.0,0.0,88,0.00,,---,0.00,VWS V14.01,2013-07-21 07:34:00,
2013-07-21 03:35:00,75.5,71.7,29.82,NNE,18,1.0,1.0,88,0.00,,---,0.00,VWS V14.01,2013-07-21 07:35:00,
2013-07-21 03:36:00,75.5,71.7,29.82,NNE,18,0.0,1.0,88,0.00,,---,0.00,VWS V14.01,2013-07-21 07:36:00,
2013-07-21 03:37:00,75.5,71.7,29.82,NNE,18,0.0,0.0,88,0.00,,---,0.00,VWS V14.01,2013-07-21 07:37:00,
2013-07-21 03:38:00,75.5,71.7,29.81,NNE,18,0.0,0.0,88,0.00,,---,0.00,VWS V14.01,2013-07-21 07:38:00,
2013-07-21 03:39:00,75.5,71.7,29.81,NNE,18,0.0,0.0,88,0.00,,---,0.00,VWS V14.01,2013-07-21 07:39:00,
2013-07-21 03:40:00,75.5,71.7,29.82,NNE,18,0.0,0.0,88,0.00,,---,0.00,VWS V14.01,2013-07-21 07:40:00,
2013-07-21 03:41:00,75.5,71.7,29.82,NNE,18,0.0,0.0,88,0.00,,---,0.00,VWS V14.01,2013-07-21 07:41:00,
2013-07-21 03:42:00,75.5,71.7,29.82,NNE,18,0.0,0.0,88,0.00,,---,0.00,VWS V14.01,2013-07-21 07:42:00,
2013-07-21 03:43:00,75.5,71.7,29.82,NNE,18,0.0,1.0,88,0.00,,---,0.00,VWS V14.01,2013-07-21 07:43:00,
2013-07-21 03:44:00,75.5,71.7,29.82,NNE,18,0.0,1.0,88,0.00,,---,0.00,VWS V14.01,2013-07-21 07:44:00,
2013-07-21 03:45:00,75.5,71.7,29.81,NNE,18,0.0,2.0,88,0.00,,---,0.00,VWS V14.01,2013-07-21 07:45:00,
2013-07-21 03:46:00,75.5,71.7,29.81,NNE,18,0.0,4.0,88,0.00,,---,0.00,VWS V14.01,2013-07-21 07:46:00,
2013-07-21 03:47:00,75.5,71.7,29.81,NNE,18,0.0,0.0,88,0.00,,---,0.00,VWS V14.01,2013-07-21 07:47:00,
2013-07-21 03:48:00,75.5,71.7,29.81,NNE,18,0.0,2.0,88,0.00,,---,0.00,VWS V14.01,2013-07-21 07:48:00,
2013-07-21 03:49:00,75.5,71.7,29.81,NNE,18,0.0,2.0,88,0.00,,---,0.00,VWS V14.01,2013-07-21 07:49:00,
2013-07-21 03:50:00,75.5,71.7,29.81,NNE,18,0.0,1.0,88,0.00,,---,0.00,VWS V14.01,2013-07-21 07:50:00,
2013-07-21 03:51:00,75.5,71.7,29.81,NNE,18,0.0,0.0,88,0.00,,---,0.00,VWS V14.01,2013-07-21 07:51:00,
2013-07-21 03:52:00,75.5,71.7,29.81,NNE,18,0.0,0.0,88,0.00,,---,0.00,VWS V14.01,2013-07-21 07:52:00,
2013-07-21 03:53:00,75.5,71.7,29.82,NNE,18,0.0,0.0,88,0.00,,---,0.00,VWS V14.01,2013-07-21 07:53:00,
2013-07-21 03:54:00,75.5,71.7,29.82,NNE,18,0.0,0.0,88,0.00,,---,0.00,VWS V14.01,2013-07-21 07:54:00,
2013-07-21 03:55:00,75.5,71.7,29.81,NNE,18,0.0,1.0,88,0.00,,---,0.00,VWS V14.01,2013-07-21 07:55:00,
2013-07-21 03:56:00,75.5,71.7,29.81,NNE,18,0.0,0.0,88,0.00,,---,0.00,VWS V14.01,2013-07-21 07:56:00,
2013-07-21 03:57:00,75.5,71.7,29.82,NNE,18,0.0,0.0,88,0.00,,---,0.00,VWS V14.01,2013-07-21 07:57:00,
2013-07-21 03:58:00,75.5,71.7,29.82,NNE,18,0.0,0.0,88,0.00,,---,0.00,VWS V14.01,2013-07-21 07:58:00,
2013-07-21 03:59:00,75.5,71.7,29.82,NNE,18,0.0,0.0,88,0.00,,---,0.00,VWS V14.01,2013-07-21 07:59:00,
2013-07-21 04:00:00,75.5,71.7,29.82,NNE,18,0.0,1.0,88,0.00,,---,0.00,VWS V14.01,2013-07-21 08:00:00,
2013-07-21 04:01:00,75.5,71.7,29.82,NNE,18,0.0,0.0,88,0.00,,---,0.00,VWS V14.01,2013-07-21 08:01:00,
2013-07-21 04:02:00,75.5,71.7,29.81,NNE,18,0.0,0.0,88,0.00,,---,0.00,VWS V14.01,2013-07-21 08:02:00,
2013-07-21 04:03:00,75.5,71.7,29.82,NNE,18,0.0,0.0,88,0.00,,---,0.00,VWS V14.01,2013-07-21 08:03:00,
2013-07-21 04:04:00,75.5,71.7,29.82,NNE,18,0.0,0.0,88,0.00,,---,0.00,VWS V14.01,2013-07-21 08:04:00,
2013-07-21 04:05:00,75.5,71.7,29.82,NNE,18,0.0,0.0,88,0.00,,---,0.00,VWS V14.01,2013-07-21 08:05:00,
2013-07-21 04:06:00,75.5,71.7,29.82,NNE,18,0.0,0.0,88,0.00,,---,0.00,VWS V14.01,2013-07-21 08:06:00,
2013-07-21 04:07:00,75.5,71.7,29.82,NNE,18,0.0,0.0,88,0.00,,---,0.00,VWS V14.01,2013-07-21 08:07:00,
2013-07-21 04:08:00,75.5,71.7,29.82,NNE,18,0.0,0.0,88,0.00,,---,0.00,VWS V14.01,2013-07-21 08:08:00,
2013-07-21 04:09:00,75.5,71.7,29.82,NNE,18,0.0,0.0,88,0.00,,---,0.00,VWS V14.01,2013-07-21 08:09:00,
2013-07-21 04:10:00,75.5,71.7,29.82,NNE,18,0.0,0.0,88,0.00,,---,0.00,VWS V14.01,2013-07-21 08:10:00,
2013-07-21 04:11:00,75.5,71.7,29.82,NNE,18,0.0,0.0,88,0.00,,---,0.00,VWS V14.01,2013-07-21 08:11:00,
2013-07-21 04:12:00,75.5,71.7,29.81,NNE,18,0.0,0.0,88,0.00,,---,0.00,VWS V14.01,2013-07-21 08:12:00,
2013-07-21 04:13:00,75.5,71.7,29.81,NNE,18,0.0,1.0,88,0.00,,---,0.00,VWS V14.01,2013-07-21 08:13:00,
2013-07-21 04:14:00,75.5,71.7,29.81,NNE,18,0.0,0.0,88,0.00,,---,0.00,VWS V14.01,2013-07-21 08:14:00,
2013-07-21 04:15:00,75.5,71.7,29.81,NNE,18,0.0,0.0,88,0.00,,---,0.00,VWS V14.01,2013-07-21 08:15:00,
2013-07-21 04:16:00,75.5,71.7,29.81,NNE,18,0.0,2.0,88,0.00,,---,0.00,VWS V14.01,2013-07-21 08:16:00,
2013-07-21 04:17:00,75.5,71.7,29.82,NNE,18,1.0,1.0,88,0.00,,---,0.00,VWS V14.01,2013-07-21 08:17:00,
2013-07-21 04:18:00,75.5,71.4,29.82,NNE,18,0.0,1.0,87,0.00,,---,0.00,VWS V14.01,2013-07-21 08:18:00,
2013-07-21 04:19:00,75.5,71.4,29.81,NNE,18,0.0,2.0,87,0.00,,---,0.00,VWS V14.01,2013-07-21 08:19:00,
2013-07-21 04:20:00,75.5,71.4,29.81,NNE,18,0.0,2.0,87,0.00,,---,0.00,VWS V14.01,2013-07-21 08:20:00,
2013-07-21 04:21:00,75.5,71.4,29.82,NNE,18,0.0,1.0,87,0.00,,---,0.00,VWS V14.01,2013-07-21 08:21:00,
2013-07-21 04:22:00,75.5,71.4,29.82,NNE,18,0.0,1.0,87,0.00,,---,0.00,VWS V14.01,2013-07-21 08:22:00,
2013-07-21 04:23:00,75.5,71.4,29.82,NNE,18,0.0,1.0,87,0.00,,---,0.00,VWS V14.01,2013-07-21 08:23:00,
2013-07-21 04:24:00,75.5,71.4,29.82,NNE,18,0.0,0.0,87,0.00,,---,0.00,VWS V14.01,2013-07-21 08:24:00,
2013-07-21 04:25:00,75.5,71.4,29.82,NNE,18,0.0,0.0,87,0.00,,---,0.00,VWS V14.01,2013-07-21 08:25:00,
2013-07-21 04:26:00,75.5,71.4,29.82,NNE,18,0.0,2.0,87,0.00,,---,0.00,VWS V14.01,2013-07-21 08:26:00,
2013-07-21 04:27:00,75.5,71.4,29.82,NNE,18,0.0,2.0,87,0.00,,---,0.00,VWS V14.01,2013-07-21 08:27:00,
2013-07-21 04:28:00,75.5,71.4,29.82,NNE,18,0.0,0.0,87,0.00,,---,0.00,VWS V14.01,2013-07-21 08:28:00,
2013-07-21 04:29:00,75.5,71.4,29.82,NNE,18,0.0,2.0,87,0.00,,---,0.00,VWS V14.01,2013-07-21 08:29:00,
2013-07-21 04:30:00,75.5,71.4,29.82,NNE,18,0.0,2.0,87,0.00,,---,0.00,VWS V14.01,2013-07-21 08:30:00,
2013-07-21 04:31:00,75.5,71.4,29.82,NNE,18,0.0,1.0,87,0.00,,---,0.00,VWS V14.01,2013-07-21 08:31:00,
2013-07-21 04:32:00,75.5,71.4,29.82,NNE,18,0.0,1.0,87,0.00,,---,0.00,VWS V14.01,2013-07-21 08:32:00,
2013-07-21 04:33:00,75.5,71.0,29.82,NNE,18,0.0,1.0,86,0.00,,---,0.00,VWS V14.01,2013-07-21 08:33:00,
2013-07-21 04:34:00,75.5,71.4,29.82,NNE,18,0.0,1.0,87,0.00,,---,0.00,VWS V14.01,2013-07-21 08:34:00,
2013-07-21 04:35:00,75.5,71.4,29.82,NNE,18,0.0,1.0,87,0.00,,---,0.00,VWS V14.01,2013-07-21 08:35:00,
2013-07-21 04:36:00,75.5,71.4,29.82,NNE,18,0.0,0.0,87,0.00,,---,0.00,VWS V14.01,2013-07-21 08:36:00,
2013-07-21 04:37:00,75.5,71.0,29.82,NNE,18,0.0,0.0,86,0.00,,---,0.00,VWS V14.01,2013-07-21 08:37:00,
2013-07-21 04:38:00,75.5,71.0,29.82,NNE,18,0.0,2.0,86,0.00,,---,0.00,VWS V14.01,2013-07-21 08:38:00,
2013-07-21 04:39:00,75.5,71.0,29.82,NNE,18,0.0,1.0,86,0.00,,---,0.00,VWS V14.01,2013-07-21 08:39:00,
2013-07-21 04:40:00,75.5,71.0,29.82,NNE,18,0.0,1.0,86,0.00,,---,0.00,VWS V14.01,2013-07-21 08:40:00,
2013-07-21 04:41:00,75.5,71.0,29.82,NNE,18,2.0,5.0,86,0.00,,---,0.00,VWS V14.01,2013-07-21 08:41:00,
2013-07-21 04:42:00,75.6,71.5,29.82,NNE,24,2.0,6.0,87,0.00,,---,0.00,VWS V14.01,2013-07-21 08:42:00,
2013-07-21 04:43:00,75.6,71.5,29.82,NNE,24,0.0,2.0,87,0.00,,---,0.00,VWS V14.01,2013-07-21 08:43:00,
2013-07-21 04:44:00,75.6,71.1,29.83,NNE,24,0.0,1.0,86,0.00,,---,0.00,VWS V14.01,2013-07-21 08:44:00,
2013-07-21 04:45:00,75.6,71.1,29.83,NNE,24,0.0,1.0,86,0.00,,---,0.00,VWS V14.01,2013-07-21 08:45:00,
2013-07-21 04:46:00,75.6,71.1,29.83,NNE,24,0.0,4.0,86,0.00,,---,0.00,VWS V14.01,2013-07-21 08:46:00,
2013-07-21 04:47:00,75.7,71.2,29.83,North,11,1.0,4.0,86,0.00,,---,0.00,VWS V14.01,2013-07-21 08:47:00,
2013-07-21 04:48:00,75.7,71.6,29.83,North,11,0.0,1.0,87,0.00,,---,0.00,VWS V14.01,2013-07-21 08:48:00,
2013-07-21 04:49:00,75.7,71.6,29.83,North,11,1.0,1.0,87,0.00,,---,0.00,VWS V14.01,2013-07-21 08:49:00,
2013-07-21 04:50:00,75.7,71.6,29.83,North,11,1.0,1.0,87,0.00,,---,0.00,VWS V14.01,2013-07-21 08:50:00,
2013-07-21 04:51:00,75.7,71.6,29.83,North,11,0.0,4.0,87,0.00,,---,0.00,VWS V14.01,2013-07-21 08:51:00,
2013-07-21 04:52:00,75.7,71.6,29.83,North,11,0.0,0.0,87,0.00,,---,0.00,VWS V14.01,2013-07-21 08:52:00,
2013-07-21 04:53:00,75.7,71.6,29.83,North,11,0.0,2.0,87,0.00,,---,0.00,VWS V14.01,2013-07-21 08:53:00,
2013-07-21 04:54:00,75.7,71.6,29.83,North,11,0.0,1.0,87,0.00,,---,0.00,VWS V14.01,2013-07-21 08:54:00,
2013-07-21 04:55:00,75.7,71.6,29.83,North,11,0.0,1.0,87,0.00,,---,0.00,VWS V14.01,2013-07-21 08:55:00,
2013-07-21 04:56:00,75.7,71.6,29.83,North,11,0.0,1.0,87,0.00,,---,0.00,VWS V14.01,2013-07-21 08:56:00,
2013-07-21 04:57:00,75.7,71.6,29.83,North,11,2.0,4.0,87,0.00,,---,0.00,VWS V14.01,2013-07-21 08:57:00,
2013-07-21 04:58:00,75.7,71.6,29.83,North,11,0.0,2.0,87,0.00,,---,0.00,VWS V14.01,2013-07-21 08:58:00,
2013-07-21 04:59:00,75.7,71.6,29.83,NNE,22,4.0,4.0,87,0.00,,---,0.00,VWS V14.01,2013-07-21 08:59:00,
2013-07-21 05:00:00,75.7,71.6,29.83,NNE,22,0.0,4.0,87,0.00,,---,0.00,VWS V14.01,2013-07-21 09:00:00,
2013-07-21 05:01:00,75.7,71.6,29.83,NNE,22,0.0,4.0,87,0.00,,---,0.00,VWS V14.01,2013-07-21 09:01:00,
2013-07-21 05:02:00,75.7,71.6,29.83,NNE,22,0.0,1.0,87,0.00,,---,0.00,VWS V14.01,2013-07-21 09:02:00,
2013-07-21 05:03:00,75.7,71.6,29.83,NNE,22,0.0,2.0,87,0.00,,---,0.00,VWS V14.01,2013-07-21 09:03:00,
2013-07-21 05:04:00,75.7,71.6,29.83,NNE,22,0.0,1.0,87,0.00,,---,0.00,VWS V14.01,2013-07-21 09:04:00,
2013-07-21 05:05:00,75.7,71.6,29.83,NNE,24,2.0,5.0,87,0.00,,---,0.00,VWS V14.01,2013-07-21 09:05:00,
2013-07-21 05:06:00,75.7,71.6,29.83,NNE,24,2.0,5.0,87,0.00,,---,0.00,VWS V14.01,2013-07-21 09:06:00,
2013-07-21 05:07:00,75.7,71.6,29.83,NNE,24,0.0,2.0,87,0.00,,---,0.00,VWS V14.01,2013-07-21 09:07:00,
2013-07-21 05:08:00,75.7,71.6,29.83,NE,49,4.0,6.0,87,0.00,,---,0.00,VWS V14.01,2013-07-21 09:08:00,
2013-07-21 05:09:00,75.7,71.9,29.83,NE,47,1.0,6.0,88,0.00,,---,0.00,VWS V14.01,2013-07-21 09:09:00,
2013-07-21 05:10:00,75.7,71.9,29.84,NE,47,1.0,1.0,88,0.00,,---,0.00,VWS V14.01,2013-07-21 09:10:00,
2013-07-21 05:11:00,75.7,71.9,29.84,NE,47,1.0,1.0,88,0.00,,---,0.00,VWS V14.01,2013-07-21 09:11:00,
2013-07-21 05:12:00,75.8,72.0,29.84,NE,47,0.0,2.0,88,0.00,,---,0.00,VWS V14.01,2013-07-21 09:12:00,
2013-07-21 05:13:00,75.8,72.0,29.84,NE,47,5.0,5.0,88,0.00,,---,0.00,VWS V14.01,2013-07-21 09:13:00,
2013-07-21 05:14:00,75.8,71.7,29.84,NE,47,0.0,5.0,87,0.00,,---,0.00,VWS V14.01,2013-07-21 09:14:00,
2013-07-21 05:15:00,75.8,71.7,29.84,NE,47,2.0,2.0,87,0.00,,---,0.00,VWS V14.01,2013-07-21 09:15:00,
2013-07-21 05:16:00,75.8,71.7,29.84,NE,47,0.0,0.0,87,0.00,,---,0.00,VWS V14.01,2013-07-21 09:16:00,
2013-07-21 05:17:00,75.8,71.7,29.84,NE,47,0.0,2.0,87,0.00,,---,0.00,VWS V14.01,2013-07-21 09:17:00,
2013-07-21 05:18:00,75.7,71.6,29.84,NE,47,2.0,4.0,87,0.00,,---,0.00,VWS V14.01,2013-07-21 09:18:00,
2013-07-21 05:19:00,75.7,71.6,29.84,NE,47,0.0,2.0,87,0.00,,---,0.00,VWS V14.01,2013-07-21 09:19:00,
2013-07-21 05:20:00,75.7,71.6,29.84,NE,47,1.0,1.0,87,0.00,,---,0.00,VWS V14.01,2013-07-21 09:20:00,
2013-07-21 05:21:00,75.7,71.6,29.84,NE,47,2.0,4.0,87,0.00,,---,0.00,VWS V14.01,2013-07-21 09:21:00,
2013-07-21 05:22:00,75.7,71.6,29.84,NE,47,2.0,4.0,87,0.00,,---,0.00,VWS V14.01,2013-07-21 09:22:00,
2013-07-21 05:23:00,75.7,71.6,29.84,NE,47,0.0,2.0,87,0.00,,---,0.00,VWS V14.01,2013-07-21 09:23:00,
2013-07-21 05:24:00,75.7,71.6,29.84,NE,47,0.0,1.0,87,0.00,,---,0.00,VWS V14.01,2013-07-21 09:24:00,
2013-07-21 05:25:00,75.7,71.6,29.84,NE,47,1.0,5.0,87,0.00,,---,0.00,VWS V14.01,2013-07-21 09:25:00,
2013-07-21 05:26:00,75.6,71.1,29.84,NE,47,0.0,1.0,86,0.00,,---,0.00,VWS V14.01,2013-07-21 09:26:00,
2013-07-21 05:27:00,75.6,71.1,29.84,NE,47,0.0,1.0,86,0.00,,---,0.00,VWS V14.01,2013-07-21 09:27:00,
2013-07-21 05:28:00,75.6,71.1,29.84,NE,47,1.0,4.0,86,0.00,,---,0.00,VWS V14.01,2013-07-21 09:28:00,
2013-07-21 05:29:00,75.6,71.1,29.84,NE,47,2.0,5.0,86,0.00,,---,0.00,VWS V14.01,2013-07-21 09:29:00,
2013-07-21 05:30:00,75.6,71.1,29.84,NE,47,0.0,2.0,86,0.00,,---,0.00,VWS V14.01,2013-07-21 09:30:00,
2013-07-21 05:31:00,75.5,70.7,29.85,NE,47,0.0,0.0,85,0.00,,---,0.00,VWS V14.01,2013-07-21 09:31:00,
2013-07-21 05:32:00,75.5,70.7,29.85,NE,47,0.0,2.0,85,0.00,,---,0.00,VWS V14.01,2013-07-21 09:32:00,
2013-07-21 05:33:00,75.5,70.7,29.85,NE,47,0.0,2.0,85,0.00,,---,0.00,VWS V14.01,2013-07-21 09:33:00,
2013-07-21 05:34:00,75.5,70.7,29.85,NE,47,1.0,1.0,85,0.00,,---,0.00,VWS V14.01,2013-07-21 09:34:00,
2013-07-21 05:35:00,75.5,70.7,29.85,NE,47,0.0,1.0,85,0.00,,---,0.00,VWS V14.01,2013-07-21 09:35:00,
2013-07-21 05:36:00,75.4,70.6,29.85,NE,47,0.0,0.0,85,0.00,,---,0.00,VWS V14.01,2013-07-21 09:36:00,
2013-07-21 05:37:00,75.4,70.6,29.85,NE,47,1.0,1.0,85,0.00,,---,0.00,VWS V14.01,2013-07-21 09:37:00,
2013-07-21 05:38:00,75.4,70.6,29.85,NE,47,1.0,1.0,85,0.00,,---,0.00,VWS V14.01,2013-07-21 09:38:00,
2013-07-21 05:39:00,75.4,70.6,29.85,NE,47,1.0,1.0,85,0.00,,---,0.00,VWS V14.01,2013-07-21 09:39:00,
2013-07-21 05:40:00,75.4,70.6,29.85,NE,47,2.0,4.0,85,0.00,,---,0.00,VWS V14.01,2013-07-21 09:40:00,
2013-07-21 05:41:00,75.3,70.5,29.85,NE,39,6.0,6.0,85,0.00,,---,0.00,VWS V14.01,2013-07-21 09:41:00,
2013-07-21 05:42:00,75.3,70.5,29.85,NE,39,0.0,4.0,85,0.00,,---,0.00,VWS V14.01,2013-07-21 09:42:00,
2013-07-21 05:43:00,75.3,70.5,29.85,NE,39,0.0,4.0,85,0.00,,---,0.00,VWS V14.01,2013-07-21 09:43:00,
2013-07-21 05:44:00,75.3,70.5,29.85,NE,39,0.0,0.0,85,0.00,,---,0.00,VWS V14.01,2013-07-21 09:44:00,
2013-07-21 05:45:00,75.3,70.5,29.85,NE,39,2.0,5.0,85,0.00,,---,0.00,VWS V14.01,2013-07-21 09:45:00,
2013-07-21 05:46:00,75.3,70.5,29.85,NE,39,1.0,2.0,85,0.00,,---,0.00,VWS V14.01,2013-07-21 09:46:00,
2013-07-21 05:47:00,75.3,70.5,29.85,NE,39,4.0,4.0,85,0.00,,---,0.00,VWS V14.01,2013-07-21 09:47:00,
2013-07-21 05:48:00,75.3,70.5,29.85,NE,39,4.0,4.0,85,0.00,,---,0.00,VWS V14.01,2013-07-21 09:48:00,
2013-07-21 05:49:00,75.3,70.5,29.85,NNE,27,0.0,6.0,85,0.00,,---,0.00,VWS V14.01,2013-07-21 09:49:00,
2013-07-21 05:50:00,75.3,70.1,29.85,NNE,27,1.0,4.0,84,0.00,,---,0.00,VWS V14.01,2013-07-21 09:50:00,
2013-07-21 05:51:00,75.2,70.0,29.85,NNE,27,5.0,5.0,84,0.00,,---,0.00,VWS V14.01,2013-07-21 09:51:00,
2013-07-21 05:52:00,75.2,70.0,29.85,NNE,27,0.0,1.0,84,0.00,,---,0.00,VWS V14.01,2013-07-21 09:52:00,
2013-07-21 05:53:00,75.2,70.0,29.85,NNE,27,0.0,1.0,84,0.00,,---,0.00,VWS V14.01,2013-07-21 09:53:00,
2013-07-21 05:54:00,75.2,70.0,29.85,NNE,30,0.0,4.0,84,0.00,,---,0.00,VWS V14.01,2013-07-21 09:54:00,
2013-07-21 05:55:00,75.2,70.0,29.85,NNE,30,0.0,1.0,84,0.00,,---,0.00,VWS V14.01,2013-07-21 09:55:00,
2013-07-21 05:56:00,75.2,70.0,29.85,NNE,30,0.0,4.0,84,0.00,,---,0.00,VWS V14.01,2013-07-21 09:56:00,
2013-07-21 05:57:00,75.2,69.7,29.85,NNE,32,0.0,5.0,83,0.00,,---,0.00,VWS V14.01,2013-07-21 09:57:00,
2013-07-21 05:58:00,75.2,69.7,29.85,NNE,32,0.0,5.0,83,0.00,,---,0.00,VWS V14.01,2013-07-21 09:58:00,
2013-07-21 05:59:00,75.2,69.7,29.85,NNE,32,2.0,6.0,83,0.00,,---,0.00,VWS V14.01,2013-07-21 09:59:00,
2013-07-21 06:00:00,75.2,69.7,29.85,NNE,32,1.0,4.0,83,0.00,,---,0.00,VWS V14.01,2013-07-21 10:00:00,
2013-07-21 06:01:00,75.2,69.7,29.85,NNE,32,4.0,4.0,83,0.00,,---,0.00,VWS V14.01,2013-07-21 10:01:00,
2013-07-21 06:02:00,75.2,69.7,29.85,NE,42,1.0,6.0,83,0.00,,---,0.00,VWS V14.01,2013-07-21 10:02:00,
2013-07-21 06:03:00,75.2,69.7,29.85,NE,42,1.0,6.0,83,0.00,,---,0.00,VWS V14.01,2013-07-21 10:03:00,
2013-07-21 06:04:00,75.2,69.7,29.85,NE,42,4.0,4.0,83,0.00,,---,0.00,VWS V14.01,2013-07-21 10:04:00,
2013-07-21 06:05:00,75.2,69.3,29.85,NE,42,0.0,4.0,82,0.00,,---,0.00,VWS V14.01,2013-07-21 10:05:00,
2013-07-21 06:06:00,75.2,69.3,29.85,ENE,58,4.0,7.0,82,0.00,,---,0.00,VWS V14.01,2013-07-21 10:06:00,
2013-07-21 06:07:00,75.2,69.0,29.85,NE,46,2.0,4.0,81,0.00,,---,0.00,VWS V14.01,2013-07-21 10:07:00,
2013-07-21 06:08:00,75.2,69.0,29.85,NE,46,2.0,6.0,81,0.00,,---,0.00,VWS V14.01,2013-07-21 10:08:00,
2013-07-21 06:09:00,75.2,69.0,29.85,NE,46,0.0,4.0,81,0.00,,---,0.00,VWS V14.01,2013-07-21 10:09:00,
2013-07-21 06:10:00,75.2,69.0,29.85,NE,50,2.0,5.0,81,0.00,,---,0.00,VWS V14.01,2013-07-21 10:10:00,
2013-07-21 06:11:00,75.2,69.0,29.85,NE,50,1.0,2.0,81,0.00,,---,0.00,VWS V14.01,2013-07-21 10:11:00,
2013-07-21 06:12:00,75.3,69.1,29.85,NE,48,5.0,6.0,81,0.00,,---,0.00,VWS V14.01,2013-07-21 10:12:00,
2013-07-21 06:13:00,75.3,69.1,29.85,NE,40,0.0,5.0,81,0.00,,---,0.00,VWS V14.01,2013-07-21 10:13:00,
2013-07-21 06:14:00,75.3,69.1,29.85,NE,40,0.0,5.0,81,0.00,,---,0.00,VWS V14.01,2013-07-21 10:14:00,
2013-07-21 06:15:00,75.3,69.1,29.85,NE,40,0.0,1.0,81,0.00,,---,0.00,VWS V14.01,2013-07-21 10:15:00,
2013-07-21 06:16:00,75.3,69.1,29.85,NE,40,2.0,2.0,81,0.00,,---,0.00,VWS V14.01,2013-07-21 10:16:00,
2013-07-21 06:17:00,75.3,68.7,29.85,NE,40,5.0,6.0,80,0.00,,---,0.00,VWS V14.01,2013-07-21 10:17:00,
2013-07-21 06:18:00,75.3,68.7,29.85,NE,42,0.0,6.0,80,0.00,,---,0.00,VWS V14.01,2013-07-21 10:18:00,
2013-07-21 06:19:00,75.3,68.7,29.85,NE,42,0.0,6.0,80,0.00,,---,0.00,VWS V14.01,2013-07-21 10:19:00,
2013-07-21 06:20:00,75.3,68.7,29.85,NE,42,0.0,0.0,80,0.00,,---,0.00,VWS V14.01,2013-07-21 10:20:00,
2013-07-21 06:21:00,75.3,68.7,29.85,NE,42,0.0,1.0,80,0.00,,---,0.00,VWS V14.01,2013-07-21 10:21:00,
2013-07-21 06:22:00,75.4,68.8,29.85,NE,42,0.0,2.0,80,0.00,,---,0.00,VWS V14.01,2013-07-21 10:22:00,
2013-07-21 06:23:00,75.4,68.8,29.85,NE,41,0.0,1.0,80,0.00,,---,0.00,VWS V14.01,2013-07-21 10:23:00,
2013-07-21 06:24:00,75.4,68.8,29.85,NE,41,0.0,1.0,80,0.00,,---,0.00,VWS V14.01,2013-07-21 10:24:00,
2013-07-21 06:25:00,75.4,68.8,29.85,NE,41,1.0,2.0,80,0.00,,---,0.00,VWS V14.01,2013-07-21 10:25:00,
2013-07-21 06:26:00,75.4,68.8,29.86,NE,41,2.0,2.0,80,0.00,,---,0.00,VWS V14.01,2013-07-21 10:26:00,
2013-07-21 06:27:00,75.4,68.8,29.86,NE,41,4.0,5.0,80,0.00,,---,0.00,VWS V14.01,2013-07-21 10:27:00,
2013-07-21 06:28:00,75.3,68.7,29.86,NE,41,0.0,4.0,80,0.00,,---,0.00,VWS V14.01,2013-07-21 10:28:00,
2013-07-21 06:29:00,75.3,68.7,29.86,NE,41,0.0,5.0,80,0.00,,---,0.00,VWS V14.01,2013-07-21 10:29:00,
2013-07-21 06:30:00,75.3,68.7,29.86,NE,41,0.0,5.0,80,0.00,,---,0.00,VWS V14.01,2013-07-21 10:30:00,
2013-07-21 06:31:00,75.3,68.7,29.86,NE,43,1.0,6.0,80,0.00,,---,0.00,VWS V14.01,2013-07-21 10:31:00,
2013-07-21 06:32:00,75.3,68.3,29.86,NNE,28,1.0,1.0,79,0.00,,---,0.00,VWS V14.01,2013-07-21 10:32:00,
2013-07-21 06:33:00,75.3,68.7,29.86,NNE,28,1.0,4.0,80,0.00,,---,0.00,VWS V14.01,2013-07-21 10:33:00,
2013-07-21 06:34:00,75.3,68.7,29.86,NNE,28,0.0,4.0,80,0.00,,---,0.00,VWS V14.01,2013-07-21 10:34:00,
2013-07-21 06:35:00,75.3,68.7,29.86,NNE,28,0.0,4.0,80,0.00,,---,0.00,VWS V14.01,2013-07-21 10:35:00,
2013-07-21 06:36:00,75.3,68.7,29.86,NNE,28,0.0,0.0,80,0.00,,---,0.00,VWS V14.01,2013-07-21 10:36:00,
2013-07-21 06:37:00,75.3,68.7,29.86,NNE,28,0.0,1.0,80,0.00,,---,0.00,VWS V14.01,2013-07-21 10:37:00,
2013-07-21 06:38:00,75.3,68.7,29.86,NNE,28,0.0,0.0,80,0.00,,---,0.00,VWS V14.01,2013-07-21 10:38:00,
2013-07-21 06:39:00,75.3,68.7,29.86,NNE,28,5.0,5.0,80,0.00,,---,0.00,VWS V14.01,2013-07-21 10:39:00,
2013-07-21 06:40:00,75.3,68.7,29.86,NNE,28,0.0,1.0,80,0.00,,---,0.00,VWS V14.01,2013-07-21 10:40:00,
2013-07-21 06:41:00,75.3,68.7,29.86,NNE,28,0.0,1.0,80,0.00,,---,0.00,VWS V14.01,2013-07-21 10:41:00,
2013-07-21 06:42:00,75.3,68.7,29.86,NNE,28,2.0,2.0,80,0.00,,---,0.00,VWS V14.01,2013-07-21 10:42:00,
2013-07-21 06:43:00,75.3,68.7,29.86,NNE,28,0.0,2.0,80,0.00,,---,0.00,VWS V14.01,2013-07-21 10:43:00,
2013-07-21 06:44:00,75.3,68.7,29.86,NNE,28,1.0,2.0,80,0.00,,---,0.00,VWS V14.01,2013-07-21 10:44:00,
2013-07-21 06:45:00,75.3,68.7,29.86,North,5,1.0,6.0,80,0.00,,---,0.00,VWS V14.01,2013-07-21 10:45:00,
2013-07-21 06:46:00,75.3,68.7,29.86,North,5,1.0,6.0,80,0.00,,---,0.00,VWS V14.01,2013-07-21 10:46:00,
2013-07-21 06:47:00,75.3,68.7,29.86,North,9,6.0,6.0,80,0.00,,---,0.00,VWS V14.01,2013-07-21 10:47:00,
2013-07-21 06:49:00,75.4,68.8,29.86,North,10,0.0,2.0,80,0.00,,---,0.00,VWS V14.01,2013-07-21 10:49:00,
2013-07-21 06:50:00,75.4,68.8,29.86,NNE,14,0.0,0.0,80,0.00,,---,0.00,VWS V14.01,2013-07-21 10:50:00,
2013-07-21 06:51:00,75.4,68.8,29.86,NNE,14,0.0,0.0,80,0.00,,---,0.00,VWS V14.01,2013-07-21 10:51:00,
2013-07-21 06:52:00,75.4,68.4,29.86,NNE,14,0.0,2.0,79,0.00,,---,0.00,VWS V14.01,2013-07-21 10:52:00,
2013-07-21 06:53:00,75.4,68.4,29.86,North,7,0.0,5.0,79,0.00,,---,0.00,VWS V14.01,2013-07-21 10:53:00,
2013-07-21 06:54:00,75.5,68.9,29.86,North,7,0.0,2.0,80,0.00,,---,0.00,VWS V14.01,2013-07-21 10:54:00,
2013-07-21 06:55:00,75.5,68.9,29.86,North,7,0.0,2.0,80,0.00,,---,0.00,VWS V14.01,2013-07-21 10:55:00,
2013-07-21 06:56:00,75.5,68.9,29.86,North,7,0.0,2.0,80,0.00,,---,0.00,VWS V14.01,2013-07-21 10:56:00,
2013-07-21 06:57:00,75.5,68.9,29.87,North,7,1.0,1.0,80,0.00,,---,0.00,VWS V14.01,2013-07-21 10:57:00,
2013-07-21 06:58:00,75.5,68.9,29.87,NNE,13,1.0,7.0,80,0.00,,---,0.00,VWS V14.01,2013-07-21 10:58:00,
2013-07-21 06:59:00,75.6,69.0,29.87,NE,39,6.0,6.0,80,0.00,,---,0.00,VWS V14.01,2013-07-21 10:59:00,
2013-07-21 07:00:00,75.6,69.0,29.87,NNW,342,0.0,1.0,80,0.00,,---,0.00,VWS V14.01,2013-07-21 11:00:00,
2013-07-21 07:01:00,75.6,69.0,29.87,NNW,342,0.0,1.0,80,0.00,,---,0.00,VWS V14.01,2013-07-21 11:01:00,
2013-07-21 07:02:00,75.7,69.1,29.87,NNW,342,0.0,1.0,80,0.00,,---,0.00,VWS V14.01,2013-07-21 11:02:00,
2013-07-21 07:03:00,75.7,69.1,29.86,NNW,342,0.0,3.0,80,0.00,,---,0.00,VWS V14.01,2013-07-21 11:03:00,
2013-07-21 07:04:00,75.7,69.1,29.86,NNW,342,0.0,0.0,80,0.00,,---,0.00,VWS V14.01,2013-07-21 11:04:00,
2013-07-21 07:05:00,75.8,69.2,29.86,NNE,22,0.0,5.0,80,0.00,,---,0.00,VWS V14.01,2013-07-21 11:05:00,
2013-07-21 07:06:00,75.8,69.2,29.86,NNE,22,0.0,5.0,80,0.00,,---,0.00,VWS V14.01,2013-07-21 11:06:00,
2013-07-21 07:07:00,75.9,69.3,29.86,NNE,28,1.0,6.0,80,0.00,,---,0.00,VWS V14.01,2013-07-21 11:07:00,
2013-07-21 07:08:00,76.0,69.0,29.86,NNE,28,0.0,1.0,79,0.00,,---,0.00,VWS V14.01,2013-07-21 11:08:00,
2013-07-21 07:09:00,76.1,69.5,29.86,NNE,24,0.0,4.0,80,0.00,,---,0.00,VWS V14.01,2013-07-21 11:09:00,
2013-07-21 07:10:00,76.3,69.7,29.86,NNE,20,5.0,7.0,80,0.00,,---,0.00,VWS V14.01,2013-07-21 11:10:00,
2013-07-21 07:11:00,76.3,69.7,29.86,NNE,20,5.0,7.0,80,0.00,,---,0.00,VWS V14.01,2013-07-21 11:11:00,
2013-07-21 07:12:00,76.4,69.4,29.86,NE,49,8.0,8.0,79,0.00,,---,0.00,VWS V14.01,2013-07-21 11:12:00,
2013-07-21 07:13:00,76.5,69.1,29.86,NE,43,0.0,8.0,78,0.00,,---,0.00,VWS V14.01,2013-07-21 11:13:00,
2013-07-21 07:14:00,76.6,69.2,29.86,NE,43,2.0,5.0,78,0.00,,---,0.00,VWS V14.01,2013-07-21 11:14:00,
2013-07-21 07:15:00,76.8,68.7,29.86,ENE,61,2.0,8.0,76,0.00,,---,0.00,VWS V14.01,2013-07-21 11:15:00,
2013-07-21 07:16:00,76.8,68.7,29.86,ENE,61,2.0,8.0,76,0.00,,---,0.00,VWS V14.01,2013-07-21 11:16:00,
2013-07-21 07:17:00,76.9,69.2,29.86,ENE,61,0.0,2.0,77,0.00,,---,0.00,VWS V14.01,2013-07-21 11:17:00,
2013-07-21 07:18:00,77.0,69.2,29.86,NE,36,1.0,5.0,77,0.00,,---,0.00,VWS V14.01,2013-07-21 11:18:00,
2013-07-21 07:19:00,77.1,69.3,29.86,NNE,26,6.0,9.0,77,0.00,,---,0.00,VWS V14.01,2013-07-21 11:19:00,
2013-07-21 07:20:00,77.3,68.8,29.87,NNE,14,4.0,12.0,75,0.00,,---,0.00,VWS V14.01,2013-07-21 11:20:00,
2013-07-21 07:21:00,77.3,68.8,29.87,NNE,14,4.0,12.0,75,0.00,,---,0.00,VWS V14.01,2013-07-21 11:21:00,
2013-07-21 07:22:00,77.4,69.2,29.86,North,5,4.0,6.0,76,0.00,,---,0.00,VWS V14.01,2013-07-21 11:22:00,
2013-07-21 07:23:00,77.5,69.3,29.87,North,5,0.0,4.0,76,0.00,,---,0.00,VWS V14.01,2013-07-21 11:23:00,
2013-07-21 07:24:00,77.6,69.8,29.86,North,5,1.0,4.0,77,0.00,,---,0.00,VWS V14.01,2013-07-21 11:24:00,
2013-07-21 07:25:00,77.8,69.2,29.86,NE,49,4.0,5.0,75,0.00,,---,0.00,VWS V14.01,2013-07-21 11:25:00,
2013-07-21 07:26:00,77.8,69.2,29.86,NE,49,4.0,5.0,75,0.00,,---,0.00,VWS V14.01,2013-07-21 11:26:00,
2013-07-21 07:27:00,77.8,69.2,29.86,NE,52,0.0,5.0,75,0.00,,---,0.00,VWS V14.01,2013-07-21 11:27:00,
2013-07-21 07:28:00,77.9,68.9,29.87,NE,38,7.0,8.0,74,0.00,,---,0.00,VWS V14.01,2013-07-21 11:28:00,
2013-07-21 07:29:00,77.9,68.9,29.87,NE,49,4.0,7.0,74,0.00,,---,0.00,VWS V14.01,2013-07-21 11:29:00,
2013-07-21 07:30:00,78.0,68.7,29.87,NE,49,0.0,5.0,73,0.00,,---,0.00,VWS V14.01,2013-07-21 11:30:00,
2013-07-21 07:31:00,78.0,68.7,29.87,NE,49,0.0,5.0,73,0.00,,---,0.00,VWS V14.01,2013-07-21 11:31:00,
2013-07-21 07:32:00,78.0,69.1,29.87,NE,48,0.0,7.0,74,0.00,,---,0.00,VWS V14.01,2013-07-21 11:32:00,
2013-07-21 07:33:00,78.1,68.8,29.87,NE,48,0.0,5.0,73,0.00,,---,0.00,VWS V14.01,2013-07-21 11:33:00,
2013-07-21 07:34:00,78.2,68.8,29.87,NE,48,5.0,5.0,73,0.00,,---,0.00,VWS V14.01,2013-07-21 11:34:00,
2013-07-21 07:35:00,78.3,68.9,29.87,ENE,66,2.0,5.0,73,0.00,,---,0.00,VWS V14.01,2013-07-21 11:35:00,
2013-07-21 07:36:00,78.3,68.9,29.87,ENE,66,2.0,5.0,73,0.00,,---,0.00,VWS V14.01,2013-07-21 11:36:00,
2013-07-21 07:37:00,78.3,68.5,29.87,ENE,74,0.0,8.0,72,0.00,,---,0.00,VWS V14.01,2013-07-21 11:37:00,
2013-07-21 07:38:00,78.4,68.6,29.87,North,11,2.0,7.0,72,0.00,,---,0.00,VWS V14.01,2013-07-21 11:38:00,
2013-07-21 07:39:00,78.5,68.7,29.87,NNE,23,4.0,4.0,72,0.00,,---,0.00,VWS V14.01,2013-07-21 11:39:00,
2013-07-21 07:40:00,78.6,68.8,29.87,NNE,31,0.0,4.0,72,0.00,,---,0.00,VWS V14.01,2013-07-21 11:40:00,
2013-07-21 07:41:00,78.6,68.8,29.87,NNE,31,0.0,4.0,72,0.00,,---,0.00,VWS V14.01,2013-07-21 11:41:00,
2013-07-21 07:42:00,78.7,68.9,29.87,NE,38,4.0,5.0,72,0.00,,---,0.00,VWS V14.01,2013-07-21 11:42:00,
2013-07-21 07:43:00,78.8,69.4,29.87,NE,43,4.0,4.0,73,0.00,,---,0.00,VWS V14.01,2013-07-21 11:43:00,
2013-07-21 07:44:00,78.9,69.1,29.87,NE,53,0.0,5.0,72,0.00,,---,0.00,VWS V14.01,2013-07-21 11:44:00,
2013-07-21 07:45:00,79.2,69.0,29.87,East,99,3.0,8.0,71,0.00,,---,0.00,VWS V14.01,2013-07-21 11:45:00,
2013-07-21 07:47:00,79.3,68.7,29.88,NNE,22,5.0,8.0,70,0.00,,---,0.00,VWS V14.01,2013-07-21 11:47:00,
2013-07-21 07:48:00,79.4,69.2,29.88,NNE,22,0.0,5.0,71,0.00,,---,0.00,VWS V14.01,2013-07-21 11:48:00,
2013-07-21 07:50:00,79.7,68.2,29.88,NNE,26,0.0,5.0,68,0.00,,---,0.00,VWS V14.01,2013-07-21 11:50:00,
2013-07-21 07:51:00,79.7,68.2,29.88,NNE,26,0.0,5.0,68,0.00,,---,0.00,VWS V14.01,2013-07-21 11:51:00,
2013-07-21 07:52:00,79.7,68.6,29.88,NNE,17,6.0,6.0,69,0.00,,---,0.00,VWS V14.01,2013-07-21 11:52:00,
2013-07-21 07:53:00,79.8,68.7,29.88,NNE,33,0.0,6.0,69,0.00,,---,0.00,VWS V14.01,2013-07-21 11:53:00,
2013-07-21 07:54:00,79.9,68.8,29.88,NNE,32,5.0,8.0,69,0.00,,---,0.00,VWS V14.01,2013-07-21 11:54:00,
2013-07-21 07:55:00,80.0,68.5,29.88,NNE,19,0.0,1.0,68,0.00,,---,0.00,VWS V14.01,2013-07-21 11:55:00,
2013-07-21 07:56:00,80.0,68.5,29.88,NNE,19,0.0,1.0,68,0.00,,---,0.00,VWS V14.01,2013-07-21 11:56:00,
2013-07-21 07:57:00,80.0,68.5,29.88,NE,34,2.0,6.0,68,0.00,,---,0.00,VWS V14.01,2013-07-21 11:57:00,
2013-07-21 07:58:00,80.1,68.6,29.88,NNE,33,4.0,5.0,68,0.00,,---,0.00,VWS V14.01,2013-07-21 11:58:00,
2013-07-21 07:59:00,80.1,68.6,29.88,NNE,33,0.0,4.0,68,0.00,,---,0.00,VWS V14.01,2013-07-21 11:59:00,
2013-07-21 08:00:00,80.2,68.7,29.88,NNE,33,0.0,2.0,68,0.00,,---,0.00,VWS V14.01,2013-07-21 12:00:00,
2013-07-21 08:01:00,80.2,68.7,29.88,NNE,33,0.0,2.0,68,0.00,,---,0.00,VWS V14.01,2013-07-21 12:01:00,
2013-07-21 08:02:00,80.3,68.3,29.88,East,94,4.0,4.0,67,0.00,,---,0.00,VWS V14.01,2013-07-21 12:02:00,
2013-07-21 08:03:00,80.3,68.3,29.88,East,82,1.0,5.0,67,0.00,,---,0.00,VWS V14.01,2013-07-21 12:03:00,
2013-07-21 08:04:00,80.3,68.3,29.88,NE,51,8.0,8.0,67,0.00,,---,0.00,VWS V14.01,2013-07-21 12:04:00,
2013-07-21 08:05:00,80.4,68.0,29.88,NE,56,5.0,5.0,66,0.00,,---,0.00,VWS V14.01,2013-07-21 12:05:00,
2013-07-21 08:06:00,80.4,68.0,29.88,NE,56,5.0,5.0,66,0.00,,---,0.00,VWS V14.01,2013-07-21 12:06:00,
2013-07-21 08:07:00,80.3,67.9,29.88,NE,52,0.0,5.0,66,0.00,,---,0.00,VWS V14.01,2013-07-21 12:07:00,
2013-07-21 08:08:00,80.3,67.9,29.88,NNE,26,4.0,6.0,66,0.00,,---,0.00,VWS V14.01,2013-07-21 12:08:00,
2013-07-21 08:09:00,80.3,67.5,29.88,NNE,26,0.0,4.0,65,0.00,,---,0.00,VWS V14.01,2013-07-21 12:09:00,
2013-07-21 08:10:00,80.3,67.9,29.88,NNE,26,1.0,4.0,66,0.00,,---,0.00,VWS V14.01,2013-07-21 12:10:00,
2013-07-21 08:11:00,80.3,67.9,29.88,NNE,26,1.0,4.0,66,0.00,,---,0.00,VWS V14.01,2013-07-21 12:11:00,
2013-07-21 08:12:00,80.4,67.6,29.88,NNE,26,0.0,1.0,65,0.00,,---,0.00,VWS V14.01,2013-07-21 12:12:00,
2013-07-21 08:13:00,80.3,67.9,29.88,ENE,58,0.0,6.0,66,0.00,,---,0.00,VWS V14.01,2013-07-21 12:13:00,
2013-07-21 08:14:00,80.3,67.5,29.88,ENE,58,4.0,5.0,65,0.00,,---,0.00,VWS V14.01,2013-07-21 12:14:00,
2013-07-21 08:15:00,80.2,67.4,29.88,NE,40,0.0,6.0,65,0.00,,---,0.00,VWS V14.01,2013-07-21 12:15:00,
2013-07-21 08:16:00,80.2,67.4,29.88,NE,40,0.0,6.0,65,0.00,,---,0.00,VWS V14.01,2013-07-21 12:16:00,
2013-07-21 08:17:00,80.2,67.4,29.88,NE,40,0.0,2.0,65,0.00,,---,0.00,VWS V14.01,2013-07-21 12:17:00,
2013-07-21 08:18:00,80.2,67.4,29.88,NE,40,0.0,1.0,65,0.00,,---,0.00,VWS V14.01,2013-07-21 12:18:00,
2013-07-21 08:19:00,80.1,67.3,29.88,NE,42,1.0,4.0,65,0.00,,---,0.00,VWS V14.01,2013-07-21 12:19:00,
2013-07-21 08:20:00,80.0,67.2,29.88,NNE,15,7.0,9.0,65,0.00,,---,0.00,VWS V14.01,2013-07-21 12:20:00,
2013-07-21 08:21:00,80.0,67.2,29.88,NNE,15,7.0,9.0,65,0.00,,---,0.00,VWS V14.01,2013-07-21 12:21:00,
2013-07-21 08:22:00,79.9,67.5,29.88,NNE,27,5.0,8.0,66,0.00,,---,0.00,VWS V14.01,2013-07-21 12:22:00,
2013-07-21 08:23:00,79.8,67.0,29.88,NNE,28,2.0,6.0,65,0.00,,---,0.00,VWS V14.01,2013-07-21 12:23:00,
2013-07-21 08:24:00,79.8,67.4,29.88,NNE,28,1.0,5.0,66,0.00,,---,0.00,VWS V14.01,2013-07-21 12:24:00,
2013-07-21 08:25:00,79.8,67.9,29.88,NNE,28,4.0,4.0,67,0.00,,---,0.00,VWS V14.01,2013-07-21 12:25:00,
2013-07-21 08:26:00,79.8,67.9,29.88,NNE,28,4.0,4.0,67,0.00,,---,0.00,VWS V14.01,2013-07-21 12:26:00,
2013-07-21 08:27:00,79.8,67.4,29.88,NNE,32,5.0,5.0,66,0.00,,---,0.00,VWS V14.01,2013-07-21 12:27:00,
2013-07-21 08:28:00,79.8,67.9,29.88,NNE,33,5.0,9.0,67,0.00,,---,0.00,VWS V14.01,2013-07-21 12:28:00,
2013-07-21 08:29:00,79.8,67.9,29.88,NE,38,2.0,6.0,67,0.00,,---,0.00,VWS V14.01,2013-07-21 12:29:00,
2013-07-21 08:30:00,79.9,68.4,29.88,NE,38,1.0,8.0,68,0.00,,---,0.00,VWS V14.01,2013-07-21 12:30:00,
2013-07-21 08:31:00,79.9,68.4,29.88,NE,38,1.0,8.0,68,0.00,,---,0.00,VWS V14.01,2013-07-21 12:31:00,
2013-07-21 08:32:00,80.0,69.3,29.88,NE,38,5.0,5.0,70,0.00,,---,0.00,VWS V14.01,2013-07-21 12:32:00,
2013-07-21 08:33:00,80.0,68.9,29.89,NE,34,4.0,8.0,69,0.00,,---,0.00,VWS V14.01,2013-07-21 12:33:00,
2013-07-21 08:34:00,80.1,69.0,29.89,NNW,332,3.0,11.0,69,0.00,,---,0.00,VWS V14.01,2013-07-21 12:34:00,
2013-07-21 08:35:00,80.3,69.2,29.89,NE,35,1.0,8.0,69,0.00,,---,0.00,VWS V14.01,2013-07-21 12:35:00,
2013-07-21 08:36:00,80.3,69.2,29.89,NE,35,1.0,8.0,69,0.00,,---,0.00,VWS V14.01,2013-07-21 12:36:00,
2013-07-21 08:37:00,80.4,69.3,29.89,NW,305,4.0,6.0,69,0.00,,---,0.00,VWS V14.01,2013-07-21 12:37:00,
2013-07-21 08:38:00,80.4,69.3,29.89,NW,306,0.0,4.0,69,0.00,,---,0.00,VWS V14.01,2013-07-21 12:38:00,
2013-07-21 08:39:00,80.5,69.4,29.89,NNW,337,3.0,3.0,69,0.00,,---,0.00,VWS V14.01,2013-07-21 12:39:00,
2013-07-21 08:40:00,80.6,69.1,29.89,NNE,15,2.0,6.0,68,0.00,,---,0.00,VWS V14.01,2013-07-21 12:40:00,
2013-07-21 08:41:00,80.6,69.1,29.89,NNE,15,2.0,6.0,68,0.00,,---,0.00,VWS V14.01,2013-07-21 12:41:00,
2013-07-21 08:42:00,80.6,68.6,29.89,NNE,32,4.0,8.0,67,0.00,,---,0.00,VWS V14.01,2013-07-21 12:42:00,
2013-07-21 08:43:00,80.6,68.6,29.89,NNE,22,1.0,6.0,67,0.00,,---,0.00,VWS V14.01,2013-07-21 12:43:00,
2013-07-21 08:44:00,80.6,68.6,29.89,ENE,57,4.0,5.0,67,0.00,,---,0.00,VWS V14.01,2013-07-21 12:44:00,
2013-07-21 08:45:00,80.6,68.6,29.89,East,82,7.0,9.0,67,0.00,,---,0.00,VWS V14.01,2013-07-21 12:45:00,
2013-07-21 08:46:00,80.5,67.7,29.89,NNE,27,1.0,11.0,65,0.00,,---,0.00,VWS V14.01,2013-07-21 12:46:00,
2013-07-21 08:47:00,80.5,67.7,29.89,NNE,27,1.0,11.0,65,0.00,,---,0.00,VWS V14.01,2013-07-21 12:47:00,
2013-07-21 08:48:00,80.5,68.1,29.89,NNE,27,5.0,10.0,66,0.00,,---,0.00,VWS V14.01,2013-07-21 12:48:00,
2013-07-21 08:49:00,80.4,67.6,29.89,NE,36,4.0,6.0,65,0.00,,---,0.00,VWS V14.01,2013-07-21 12:49:00,
2013-07-21 08:50:00,80.3,67.5,29.89,NE,40,11.0,11.0,65,0.00,,---,0.00,VWS V14.01,2013-07-21 12:50:00,
2013-07-21 08:51:00,80.2,67.4,29.89,North,1,1.0,7.0,65,0.00,,---,0.00,VWS V14.01,2013-07-21 12:51:00,
2013-07-21 08:52:00,80.2,67.4,29.89,NNE,12,5.0,7.0,65,0.00,,---,0.00,VWS V14.01,2013-07-21 12:52:00,
2013-07-21 08:53:00,80.1,67.3,29.89,North,356,2.0,11.0,65,0.00,,---,0.00,VWS V14.01,2013-07-21 12:53:00,
2013-07-21 08:54:00,80.0,67.2,29.89,NNE,33,6.0,8.0,65,0.00,,---,0.00,VWS V14.01,2013-07-21 12:54:00,
2013-07-21 08:55:00,80.0,67.2,29.89,NE,49,2.0,6.0,65,0.00,,---,0.00,VWS V14.01,2013-07-21 12:55:00,
2013-07-21 08:56:00,79.9,67.5,29.89,ENE,70,6.0,8.0,66,0.00,,---,0.00,VWS V14.01,2013-07-21 12:56:00,
2013-07-21 08:57:00,79.9,67.5,29.89,ENE,70,6.0,8.0,66,0.00,,---,0.00,VWS V14.01,2013-07-21 12:57:00,
2013-07-21 08:58:00,79.8,66.6,29.89,NNE,32,7.0,13.0,64,0.00,,---,0.00,VWS V14.01,2013-07-21 12:58:00,
2013-07-21 08:59:00,79.7,66.9,29.89,NE,52,7.0,9.0,65,0.00,,---,0.00,VWS V14.01,2013-07-21 12:59:00,
2013-07-21 09:00:00,79.6,66.4,29.89,NE,45,0.0,11.0,64,0.00,,---,0.00,VWS V14.01,2013-07-21 13:00:00,
2013-07-21 09:01:00,79.4,66.6,29.89,East,79,4.0,7.0,65,0.00,,---,0.00,VWS V14.01,2013-07-21 13:01:00,
2013-07-21 09:02:00,79.4,66.6,29.89,East,79,4.0,7.0,65,0.00,,---,0.00,VWS V14.01,2013-07-21 13:02:00,
2013-07-21 09:03:00,79.3,66.5,29.89,NE,53,0.0,7.0,65,0.00,,---,0.00,VWS V14.01,2013-07-21 13:03:00,
2013-07-21 09:04:00,79.3,66.5,29.89,East,99,4.0,11.0,65,0.00,,---,0.00,VWS V14.01,2013-07-21 13:04:00,
2013-07-21 09:05:00,79.2,66.4,29.89,East,99,1.0,4.0,65,0.00,,---,0.00,VWS V14.01,2013-07-21 13:05:00,
2013-07-21 09:06:00,79.0,66.7,29.89,ENE,65,2.0,8.0,66,0.00,,---,0.00,VWS V14.01,2013-07-21 13:06:00,
2013-07-21 09:07:00,79.0,66.7,29.89,ENE,65,2.0,8.0,66,0.00,,---,0.00,VWS V14.01,2013-07-21 13:07:00,
2013-07-21 09:08:00,78.9,66.6,29.89,ENE,61,0.0,4.0,66,0.00,,---,0.00,VWS V14.01,2013-07-21 13:08:00,
2013-07-21 09:09:00,78.9,67.0,29.89,NE,41,1.0,6.0,67,0.00,,---,0.00,VWS V14.01,2013-07-21 13:09:00,
2013-07-21 09:10:00,78.9,67.0,29.90,NE,43,0.0,5.0,67,0.00,,---,0.00,VWS V14.01,2013-07-21 13:10:00,
2013-07-21 09:11:00,78.8,67.4,29.90,NE,43,2.0,4.0,68,0.00,,---,0.00,VWS V14.01,2013-07-21 13:11:00,
2013-07-21 09:12:00,78.8,67.4,29.90,NE,43,2.0,4.0,68,0.00,,---,0.00,VWS V14.01,2013-07-21 13:12:00,
2013-07-21 09:13:00,78.7,67.3,29.90,NE,43,4.0,5.0,68,0.00,,---,0.00,VWS V14.01,2013-07-21 13:13:00,
2013-07-21 09:14:00,78.7,66.8,29.90,NE,43,1.0,5.0,67,0.00,,---,0.00,VWS V14.01,2013-07-21 13:14:00,
2013-07-21 09:15:00,78.6,67.2,29.90,NE,43,1.0,4.0,68,0.00,,---,0.00,VWS V14.01,2013-07-21 13:15:00,
2013-07-21 09:16:00,78.5,67.1,29.90,ENE,70,5.0,6.0,68,0.00,,---,0.00,VWS V14.01,2013-07-21 13:16:00,
2013-07-21 09:17:00,78.5,67.1,29.90,ENE,70,5.0,6.0,68,0.00,,---,0.00,VWS V14.01,2013-07-21 13:17:00,
2013-07-21 09:18:00,78.4,67.0,29.90,ENE,70,1.0,5.0,68,0.00,,---,0.00,VWS V14.01,2013-07-21 13:18:00,
2013-07-21 09:19:00,78.4,67.0,29.90,ENE,69,4.0,5.0,68,0.00,,---,0.00,VWS V14.01,2013-07-21 13:19:00,
2013-07-21 09:20:00,78.4,67.4,29.89,ENE,77,5.0,5.0,69,0.00,,---,0.00,VWS V14.01,2013-07-21 13:20:00,
2013-07-21 09:21:00,78.3,66.9,29.89,ENE,65,4.0,6.0,68,0.00,,---,0.00,VWS V14.01,2013-07-21 13:21:00,
2013-07-21 09:22:00,78.3,66.9,29.89,ENE,65,4.0,6.0,68,0.00,,---,0.00,VWS V14.01,2013-07-21 13:22:00,
2013-07-21 09:23:00,78.3,66.9,29.89,NE,55,5.0,5.0,68,0.00,,---,0.00,VWS V14.01,2013-07-21 13:23:00,
2013-07-21 09:24:00,78.2,66.8,29.89,NNE,30,1.0,6.0,68,0.00,,---,0.00,VWS V14.01,2013-07-21 13:24:00,
2013-07-21 09:25:00,78.3,67.3,29.89,NE,47,6.0,6.0,69,0.00,,---,0.00,VWS V14.01,2013-07-21 13:25:00,
2013-07-21 09:26:00,78.3,66.4,29.90,East,94,1.0,3.0,67,0.00,,---,0.00,VWS V14.01,2013-07-21 13:26:00,
2013-07-21 09:27:00,78.3,66.4,29.90,East,94,1.0,3.0,67,0.00,,---,0.00,VWS V14.01,2013-07-21 13:27:00,
2013-07-21 09:28:00,78.3,66.9,29.90,East,94,0.0,1.0,68,0.00,,---,0.00,VWS V14.01,2013-07-21 13:28:00,
2013-07-21 09:29:00,78.3,66.9,29.90,East,89,4.0,6.0,68,0.00,,---,0.00,VWS V14.01,2013-07-21 13:29:00,
2013-07-21 09:30:00,78.3,67.3,29.90,East,89,0.0,4.0,69,0.00,,---,0.00,VWS V14.01,2013-07-21 13:30:00,
2013-07-21 09:31:00,78.4,66.6,29.90,East,89,7.0,7.0,67,0.00,,---,0.00,VWS V14.01,2013-07-21 13:31:00,
2013-07-21 09:32:00,78.4,66.6,29.90,East,89,7.0,7.0,67,0.00,,---,0.00,VWS V14.01,2013-07-21 13:32:00,
2013-07-21 09:33:00,78.4,67.0,29.90,NNE,12,1.0,7.0,68,0.00,,---,0.00,VWS V14.01,2013-07-21 13:33:00,
2013-07-21 09:34:00,78.4,67.4,29.90,ENE,61,4.0,6.0,69,0.00,,---,0.00,VWS V14.01,2013-07-21 13:34:00,
2013-07-21 09:35:00,78.5,67.1,29.90,ENE,62,4.0,4.0,68,0.00,,---,0.00,VWS V14.01,2013-07-21 13:35:00,
2013-07-21 09:36:00,78.7,67.7,29.90,NE,36,5.0,9.0,69,0.00,,---,0.00,VWS V14.01,2013-07-21 13:36:00,
2013-07-21 09:37:00,78.8,67.8,29.90,East,94,6.0,9.0,69,0.00,,---,0.00,VWS V14.01,2013-07-21 13:37:00,
2013-07-21 09:38:00,78.9,67.0,29.90,NE,45,5.0,9.0,67,0.00,,---,0.00,VWS V14.01,2013-07-21 13:38:00,
2013-07-21 09:39:00,79.0,67.6,29.90,NE,55,1.0,6.0,68,0.00,,---,0.00,VWS V14.01,2013-07-21 13:39:00,
2013-07-21 09:40:00,79.1,67.6,29.90,NE,55,4.0,5.0,68,0.00,,---,0.00,VWS V14.01,2013-07-21 13:40:00,
2013-07-21 09:41:00,79.2,67.3,29.90,NNE,22,5.0,7.0,67,0.00,,---,0.00,VWS V14.01,2013-07-21 13:41:00,
2013-07-21 09:42:00,79.4,67.1,29.90,NE,56,4.0,12.0,66,0.00,,---,0.00,VWS V14.01,2013-07-21 13:42:00,
2013-07-21 09:43:00,79.4,67.1,29.90,NE,56,4.0,12.0,66,0.00,,---,0.00,VWS V14.01,2013-07-21 13:43:00,
2013-07-21 09:44:00,79.4,67.1,29.90,North,11,9.0,9.0,66,0.00,,---,0.00,VWS V14.01,2013-07-21 13:44:00,
2013-07-21 09:45:00,79.4,67.1,29.90,NE,44,6.0,9.0,66,0.00,,---,0.00,VWS V14.01,2013-07-21 13:45:00,
2013-07-21 09:46:00,79.4,67.5,29.90,ENE,65,4.0,8.0,67,0.00,,---,0.00,VWS V14.01,2013-07-21 13:46:00,
2013-07-21 09:47:00,79.3,68.3,29.90,NE,51,1.0,2.0,69,0.00,,---,0.00,VWS V14.01,2013-07-21 13:47:00,
2013-07-21 09:48:00,79.3,68.3,29.90,NE,51,1.0,2.0,69,0.00,,---,0.00,VWS V14.01,2013-07-21 13:48:00,
2013-07-21 09:49:00,79.3,68.3,29.90,North,7,0.0,6.0,69,0.00,,---,0.00,VWS V14.01,2013-07-21 13:49:00,
2013-07-21 09:50:00,79.3,68.7,29.90,North,7,0.0,4.0,70,0.00,,---,0.00,VWS V14.01,2013-07-21 13:50:00,
2013-07-21 09:51:00,79.3,68.7,29.90,ENE,57,6.0,6.0,70,0.00,,---,0.00,VWS V14.01,2013-07-21 13:51:00,
2013-07-21 09:52:00,79.2,68.2,29.91,NNE,24,5.0,8.0,69,0.00,,---,0.00,VWS V14.01,2013-07-21 13:52:00,
2013-07-21 09:53:00,79.2,68.2,29.91,NNE,24,5.0,8.0,69,0.00,,---,0.00,VWS V14.01,2013-07-21 13:53:00,
2013-07-21 09:54:00,79.2,68.2,29.91,East,84,5.0,7.0,69,0.00,,---,0.00,VWS V14.01,2013-07-21 13:54:00,
2013-07-21 09:55:00,79.1,68.1,29.91,NNE,24,8.0,8.0,69,0.00,,---,0.00,VWS V14.01,2013-07-21 13:55:00,
2013-07-21 09:56:00,79.1,68.5,29.91,NE,55,4.0,8.0,70,0.00,,---,0.00,VWS V14.01,2013-07-21 13:56:00,
2013-07-21 09:57:00,78.9,68.3,29.91,ENE,58,8.0,9.0,70,0.00,,---,0.00,VWS V14.01,2013-07-21 13:57:00,
2013-07-21 09:58:00,78.9,68.3,29.91,ENE,58,8.0,9.0,70,0.00,,---,0.00,VWS V14.01,2013-07-21 13:58:00,
2013-07-21 09:59:00,78.8,68.6,29.91,East,89,4.0,9.0,71,0.00,,---,0.00,VWS V14.01,2013-07-21 13:59:00,
2013-07-21 10:00:00,78.7,68.5,29.91,East,84,6.0,8.0,71,0.00,,---,0.00,VWS V14.01,2013-07-21 14:00:00,
2013-07-21 10:01:00,78.7,68.1,29.91,NNE,20,8.0,12.0,70,0.00,,---,0.00,VWS V14.01,2013-07-21 14:01:00,
2013-07-21 10:02:00,78.6,68.4,29.91,NE,55,4.0,8.0,71,0.00,,---,0.00,VWS V14.01,2013-07-21 14:02:00,
2013-07-21 10:03:00,78.5,68.7,29.91,NE,34,0.0,7.0,72,0.00,,---,0.00,VWS V14.01,2013-07-21 14:03:00,
2013-07-21 10:04:00,78.5,68.7,29.91,NE,34,1.0,7.0,72,0.00,,---,0.00,VWS V14.01,2013-07-21 14:04:00,
2013-07-21 10:05:00,78.4,68.6,29.91,NNE,24,0.0,7.0,72,0.00,,---,0.00,VWS V14.01,2013-07-21 14:05:00,
2013-07-21 10:06:00,78.4,69.0,29.91,North,3,4.0,9.0,73,0.00,,---,0.00,VWS V14.01,2013-07-21 14:06:00,
2013-07-21 10:07:00,78.5,68.7,29.91,North,3,0.0,4.0,72,0.00,,---,0.00,VWS V14.01,2013-07-21 14:07:00,
2013-07-21 10:08:00,78.6,69.2,29.91,NNE,22,0.0,4.0,73,0.00,,---,0.00,VWS V14.01,2013-07-21 14:08:00,
2013-07-21 10:09:00,78.6,69.2,29.91,NNE,22,0.0,4.0,73,0.00,,---,0.00,VWS V14.01,2013-07-21 14:09:00,
2013-07-21 10:10:00,78.6,68.8,29.91,NNE,18,5.0,7.0,72,0.00,,---,0.00,VWS V14.01,2013-07-21 14:10:00,
2013-07-21 10:11:00,78.7,68.5,29.91,NNE,18,5.0,5.0,71,0.00,,---,0.00,VWS V14.01,2013-07-21 14:11:00,
2013-07-21 10:12:00,78.7,68.9,29.91,NNE,12,2.0,5.0,72,0.00,,---,0.00,VWS V14.01,2013-07-21 14:12:00,
2013-07-21 10:13:00,78.8,68.6,29.91,NE,49,6.0,7.0,71,0.00,,---,0.00,VWS V14.01,2013-07-21 14:13:00,
2013-07-21 10:14:00,78.8,68.6,29.91,NE,49,6.0,7.0,71,0.00,,---,0.00,VWS V14.01,2013-07-21 14:14:00,
2013-07-21 10:15:00,78.8,68.6,29.91,NE,36,1.0,6.0,71,0.00,,---,0.00,VWS V14.01,2013-07-21 14:15:00,
2013-07-21 10:16:00,78.8,68.6,29.91,NE,36,1.0,4.0,71,0.00,,---,0.00,VWS V14.01,2013-07-21 14:16:00,
2013-07-21 10:17:00,78.8,69.0,29.91,NE,36,0.0,4.0,72,0.00,,---,0.00,VWS V14.01,2013-07-21 14:17:00,
2013-07-21 10:18:00,78.9,69.1,29.91,NE,40,0.0,6.0,72,0.00,,---,0.00,VWS V14.01,2013-07-21 14:18:00,
2013-07-21 10:19:00,78.9,69.1,29.91,NE,40,0.0,6.0,72,0.00,,---,0.00,VWS V14.01,2013-07-21 14:19:00,
2013-07-21 10:20:00,78.9,69.1,29.91,East,82,9.0,9.0,72,0.00,,---,0.00,VWS V14.01,2013-07-21 14:20:00,
2013-07-21 10:21:00,78.9,68.3,29.91,ESE,120,6.0,9.0,70,0.00,,---,0.00,VWS V14.01,2013-07-21 14:21:00,
2013-07-21 10:22:00,78.9,68.3,29.91,NE,40,1.0,11.0,70,0.00,,---,0.00,VWS V14.01,2013-07-21 14:22:00,
2013-07-21 10:23:00,78.7,67.7,29.91,NE,47,5.0,8.0,69,0.00,,---,0.00,VWS V14.01,2013-07-21 14:23:00,
2013-07-21 10:24:00,78.7,67.7,29.91,NE,47,5.0,8.0,69,0.00,,---,0.00,VWS V14.01,2013-07-21 14:24:00,
2013-07-21 10:25:00,78.7,68.1,29.91,NE,34,0.0,6.0,70,0.00,,---,0.00,VWS V14.01,2013-07-21 14:25:00,
2013-07-21 10:26:00,78.7,68.5,29.91,NNE,32,5.0,5.0,71,0.00,,---,0.00,VWS V14.01,2013-07-21 14:26:00,
2013-07-21 10:27:00,78.7,68.1,29.91,NNE,29,7.0,7.0,70,0.00,,---,0.00,VWS V14.01,2013-07-21 14:27:00,
2013-07-21 10:28:00,78.7,67.3,29.91,NE,38,0.0,2.0,68,0.00,,---,0.00,VWS V14.01,2013-07-21 14:28:00,
2013-07-21 10:29:00,78.7,67.3,29.91,NE,38,0.0,2.0,68,0.00,,---,0.00,VWS V14.01,2013-07-21 14:29:00,
2013-07-21 10:30:00,78.7,66.8,29.91,ENE,58,4.0,6.0,67,0.00,,---,0.00,VWS V14.01,2013-07-21 14:30:00,
2013-07-21 10:31:00,78.7,67.7,29.91,East,83,5.0,5.0,69,0.00,,---,0.00,VWS V14.01,2013-07-21 14:31:00,
2013-07-21 10:32:00,78.7,66.8,29.91,ENE,70,2.0,6.0,67,0.00,,---,0.00,VWS V14.01,2013-07-21 14:32:00,
2013-07-21 10:33:00,78.9,67.0,29.91,ENE,78,2.0,6.0,67,0.00,,---,0.00,VWS V14.01,2013-07-21 14:33:00,
2013-07-21 10:34:00,78.9,67.0,29.91,ENE,78,2.0,6.0,67,0.00,,---,0.00,VWS V14.01,2013-07-21 14:34:00,
2013-07-21 10:35:00,79.0,66.7,29.91,ENE,74,1.0,7.0,66,0.00,,---,0.00,VWS V14.01,2013-07-21 14:35:00,
2013-07-21 10:36:00,79.1,66.8,29.91,ENE,74,5.0,5.0,66,0.00,,---,0.00,VWS V14.01,2013-07-21 14:36:00,
2013-07-21 10:37:00,79.1,66.8,29.91,ENE,74,2.0,5.0,66,0.00,,---,0.00,VWS V14.01,2013-07-21 14:37:00,
2013-07-21 10:38:00,79.1,66.8,29.91,ENE,74,2.0,4.0,66,0.00,,---,0.00,VWS V14.01,2013-07-21 14:38:00,
2013-07-21 10:39:00,79.3,67.4,29.91,NNE,14,2.0,8.0,67,0.00,,---,0.00,VWS V14.01,2013-07-21 14:39:00,
2013-07-21 10:40:00,79.3,67.4,29.91,NNE,14,1.0,8.0,67,0.00,,---,0.00,VWS V14.01,2013-07-21 14:40:00,
2013-07-21 10:41:00,79.3,67.4,29.90,NNE,22,6.0,6.0,67,0.00,,---,0.00,VWS V14.01,2013-07-21 14:41:00,
2013-07-21 10:42:00,79.4,67.1,29.90,NNE,21,4.0,8.0,66,0.00,,---,0.00,VWS V14.01,2013-07-21 14:42:00,
2013-07-21 10:43:00,79.5,66.7,29.90,NE,40,7.0,9.0,65,0.00,,---,0.00,VWS V14.01,2013-07-21 14:43:00,
2013-07-21 10:44:00,79.6,67.2,29.91,NNE,32,1.0,6.0,66,0.00,,---,0.00,VWS V14.01,2013-07-21 14:44:00,
2013-07-21 10:45:00,79.6,67.2,29.91,NNE,32,1.0,6.0,66,0.00,,---,0.00,VWS V14.01,2013-07-21 14:45:00,
2013-07-21 10:46:00,79.7,66.9,29.91,East,94,3.0,7.0,65,0.00,,---,0.00,VWS V14.01,2013-07-21 14:46:00,
2013-07-21 10:47:00,79.8,66.6,29.91,East,84,5.0,7.0,64,0.00,,---,0.00,VWS V14.01,2013-07-21 14:47:00,
2013-07-21 10:48:00,79.8,66.6,29.91,ESE,103,3.0,7.0,64,0.00,,---,0.00,VWS V14.01,2013-07-21 14:48:00,
2013-07-21 10:49:00,79.9,67.1,29.91,NNE,20,8.0,8.0,65,0.00,,---,0.00,VWS V14.01,2013-07-21 14:49:00,
2013-07-21 10:50:00,79.9,67.1,29.91,NNE,20,8.0,8.0,65,0.00,,---,0.00,VWS V14.01,2013-07-21 14:50:00,
2013-07-21 10:51:00,80.0,67.6,29.91,ENE,70,5.0,8.0,66,0.00,,---,0.00,VWS V14.01,2013-07-21 14:51:00,
2013-07-21 10:52:00,80.1,66.8,29.91,ENE,70,1.0,5.0,64,0.00,,---,0.00,VWS V14.01,2013-07-21 14:52:00,
2013-07-21 10:54:00,80.4,67.1,29.91,ENE,69,5.0,7.0,64,0.00,,---,0.00,VWS V14.01,2013-07-21 14:54:00,
2013-07-21 10:55:00,80.4,67.1,29.91,ENE,69,5.0,7.0,64,0.00,,---,0.00,VWS V14.01,2013-07-21 14:55:00,
2013-07-21 10:57:00,80.7,67.4,29.91,East,99,2.0,5.0,64,0.00,,---,0.00,VWS V14.01,2013-07-21 14:57:00,
2013-07-21 10:59:00,81.0,68.1,29.91,NNE,30,8.0,8.0,65,0.00,,---,0.00,VWS V14.01,2013-07-21 14:59:00,
2013-07-21 11:00:00,81.2,66.9,29.91,East,79,0.0,5.0,62,0.00,,---,0.00,VWS V14.01,2013-07-21 15:00:00,
2013-07-21 11:01:00,81.3,67.1,29.91,East,79,0.0,5.0,62,0.00,,---,0.00,VWS V14.01,2013-07-21 15:01:00,
2013-07-21 11:02:00,81.5,68.2,29.90,ESE,103,1.0,2.0,64,0.00,,---,0.00,VWS V14.01,2013-07-21 15:02:00,
2013-07-21 11:03:00,81.6,66.9,29.90,ESE,103,3.0,6.0,61,0.00,,---,0.00,VWS V14.01,2013-07-21 15:03:00,
2013-07-21 11:04:00,81.8,68.0,29.90,ESE,103,0.0,5.0,63,0.00,,---,0.00,VWS V14.01,2013-07-21 15:04:00,
2013-07-21 11:05:00,82.1,67.8,29.91,ESE,103,3.0,4.0,62,0.00,,---,0.00,VWS V14.01,2013-07-21 15:05:00,
2013-07-21 11:06:00,82.1,67.8,29.91,ESE,103,3.0,4.0,62,0.00,,---,0.00,VWS V14.01,2013-07-21 15:06:00,
2013-07-21 11:07:00,82.2,67.4,29.91,ESE,103,0.0,3.0,61,0.00,,---,0.00,VWS V14.01,2013-07-21 15:07:00,
2013-07-21 11:08:00,82.3,67.5,29.91,NE,51,4.0,6.0,61,0.00,,---,0.00,VWS V14.01,2013-07-21 15:08:00,
2013-07-21 11:09:00,82.4,67.1,29.90,ENE,74,5.0,5.0,60,0.00,,---,0.00,VWS V14.01,2013-07-21 15:09:00,
2013-07-21 11:10:00,82.6,67.8,29.90,NE,38,6.0,8.0,61,0.00,,---,0.00,VWS V14.01,2013-07-21 15:10:00,
2013-07-21 11:11:00,82.6,67.8,29.90,NE,38,6.0,8.0,61,0.00,,---,0.00,VWS V14.01,2013-07-21 15:11:00,
2013-07-21 11:12:00,82.6,66.8,29.90,NE,37,8.0,8.0,59,0.00,,---,0.00,VWS V14.01,2013-07-21 15:12:00,
2013-07-21 11:13:00,82.6,67.3,29.90,NNE,30,4.0,8.0,60,0.00,,---,0.00,VWS V14.01,2013-07-21 15:13:00,
2013-07-21 11:14:00,82.6,67.8,29.91,NE,50,4.0,7.0,61,0.00,,---,0.00,VWS V14.01,2013-07-21 15:14:00,
2013-07-21 11:15:00,82.7,66.9,29.91,NE,35,6.0,12.0,59,0.00,,---,0.00,VWS V14.01,2013-07-21 15:15:00,
2013-07-21 11:16:00,82.7,66.9,29.91,NE,35,6.0,12.0,59,0.00,,---,0.00,VWS V14.01,2013-07-21 15:16:00,
2013-07-21 11:17:00,82.8,66.5,29.91,NE,42,5.0,9.0,58,0.00,,---,0.00,VWS V14.01,2013-07-21 15:17:00,
2013-07-21 11:18:00,82.8,66.5,29.91,NE,47,4.0,6.0,58,0.00,,---,0.00,VWS V14.01,2013-07-21 15:18:00,
2013-07-21 11:19:00,82.9,66.1,29.91,NE,36,6.0,6.0,57,0.00,,---,0.00,VWS V14.01,2013-07-21 15:19:00,
2013-07-21 11:20:00,82.9,65.6,29.91,East,89,5.0,6.0,56,0.00,,---,0.00,VWS V14.01,2013-07-21 15:20:00,
2013-07-21 11:21:00,82.9,65.6,29.91,East,89,5.0,6.0,56,0.00,,---,0.00,VWS V14.01,2013-07-21 15:21:00,
2013-07-21 11:22:00,82.9,66.1,29.91,East,89,4.0,5.0,57,0.00,,---,0.00,VWS V14.01,2013-07-21 15:22:00,
2013-07-21 11:23:00,82.8,66.5,29.90,East,89,4.0,4.0,58,0.00,,---,0.00,VWS V14.01,2013-07-21 15:23:00,
2013-07-21 11:24:00,82.8,66.5,29.91,East,89,0.0,4.0,58,0.00,,---,0.00,VWS V14.01,2013-07-21 15:24:00,
2013-07-21 11:25:00,82.9,66.1,29.90,East,89,1.0,4.0,57,0.00,,---,0.00,VWS V14.01,2013-07-21 15:25:00,
2013-07-21 11:26:00,82.9,67.6,29.90,East,89,1.0,2.0,60,0.00,,---,0.00,VWS V14.01,2013-07-21 15:26:00,
2013-07-21 11:27:00,82.9,67.1,29.90,East,89,0.0,2.0,59,0.00,,---,0.00,VWS V14.01,2013-07-21 15:27:00,
2013-07-21 11:28:00,82.9,66.6,29.91,East,89,0.0,0.0,58,0.00,,---,0.00,VWS V14.01,2013-07-21 15:28:00,
2013-07-21 11:29:00,83.0,66.7,29.91,NNE,18,1.0,5.0,58,0.00,,---,0.00,VWS V14.01,2013-07-21 15:29:00,
2013-07-21 11:30:00,83.0,66.7,29.91,ENE,57,5.0,6.0,58,0.00,,---,0.00,VWS V14.01,2013-07-21 15:30:00,
2013-07-21 11:31:00,83.1,67.3,29.91,ENE,72,5.0,5.0,59,0.00,,---,0.00,VWS V14.01,2013-07-21 15:31:00,
2013-07-21 11:32:00,83.1,67.3,29.91,ENE,72,5.0,5.0,59,0.00,,---,0.00,VWS V14.01,2013-07-21 15:32:00,
2013-07-21 11:33:00,83.2,67.9,29.91,East,94,6.0,6.0,60,0.00,,---,0.00,VWS V14.01,2013-07-21 15:33:00,
2013-07-21 11:34:00,83.3,66.0,29.91,NE,55,0.0,7.0,56,0.00,,---,0.00,VWS V14.01,2013-07-21 15:34:00,
2013-07-21 11:35:00,83.3,67.0,29.90,ESE,113,2.0,5.0,58,0.00,,---,0.00,VWS V14.01,2013-07-21 15:35:00,
2013-07-21 11:36:00,83.4,69.0,29.91,North,7,5.0,5.0,62,0.00,,---,0.00,VWS V14.01,2013-07-21 15:36:00,
2013-07-21 11:37:00,83.4,69.0,29.91,North,7,5.0,5.0,62,0.00,,---,0.00,VWS V14.01,2013-07-21 15:37:00,
2013-07-21 11:38:00,83.6,68.7,29.91,East,79,5.0,5.0,61,0.00,,---,0.00,VWS V14.01,2013-07-21 15:38:00,
2013-07-21 11:39:00,83.8,68.9,29.91,NE,49,4.0,4.0,61,0.00,,---,0.00,VWS V14.01,2013-07-21 15:39:00,
2013-07-21 11:40:00,83.9,68.1,29.91,NE,46,4.0,9.0,59,0.00,,---,0.00,VWS V14.01,2013-07-21 15:40:00,
2013-07-21 11:41:00,84.2,68.8,29.91,ENE,58,1.0,5.0,60,0.00,,---,0.00,VWS V14.01,2013-07-21 15:41:00,
2013-07-21 11:42:00,84.2,68.8,29.91,ENE,58,1.0,5.0,60,0.00,,---,0.00,VWS V14.01,2013-07-21 15:42:00,
2013-07-21 11:43:00,84.3,67.4,29.91,East,99,5.0,6.0,57,0.00,,---,0.00,VWS V14.01,2013-07-21 15:43:00,
2013-07-21 11:44:00,84.4,67.0,29.91,East,89,1.0,5.0,56,0.00,,---,0.00,VWS V14.01,2013-07-21 15:44:00,
2013-07-21 11:45:00,84.5,67.1,29.91,NE,51,5.0,7.0,56,0.00,,---,0.00,VWS V14.01,2013-07-21 15:45:00,
2013-07-21 11:46:00,84.6,68.2,29.91,NNE,12,0.0,6.0,58,0.00,,---,0.00,VWS V14.01,2013-07-21 15:46:00,
2013-07-21 11:47:00,84.6,68.2,29.91,NNE,12,0.0,6.0,58,0.00,,---,0.00,VWS V14.01,2013-07-21 15:47:00,
2013-07-21 11:48:00,84.7,67.8,29.91,NNE,33,6.0,6.0,57,0.00,,---,0.00,VWS V14.01,2013-07-21 15:48:00,
2013-07-21 11:49:00,84.8,66.8,29.91,NNE,24,5.0,7.0,55,0.00,,---,0.00,VWS V14.01,2013-07-21 15:49:00,
2013-07-21 11:50:00,84.8,67.4,29.91,North,351,1.0,6.0,56,0.00,,---,0.00,VWS V14.01,2013-07-21 15:50:00,
2013-07-21 11:51:00,85.0,68.1,29.91,North,351,0.0,2.0,57,0.00,,---,0.00,VWS V14.01,2013-07-21 15:51:00,
2013-07-21 11:52:00,85.0,68.1,29.91,North,351,0.0,2.0,57,0.00,,---,0.00,VWS V14.01,2013-07-21 15:52:00,
2013-07-21 11:53:00,85.1,68.2,29.91,NE,54,8.0,9.0,57,0.00,,---,0.00,VWS V14.01,2013-07-21 15:53:00,
2013-07-21 11:54:00,85.1,67.1,29.91,NE,41,4.0,8.0,55,0.00,,---,0.00,VWS V14.01,2013-07-21 15:54:00,
2013-07-21 11:55:00,85.2,68.3,29.91,ESE,103,0.0,4.0,57,0.00,,---,0.00,VWS V14.01,2013-07-21 15:55:00,
2013-07-21 11:56:00,85.2,67.2,29.91,East,89,2.0,4.0,55,0.00,,---,0.00,VWS V14.01,2013-07-21 15:56:00,
2013-07-21 11:57:00,85.2,67.2,29.91,East,89,2.0,4.0,55,0.00,,---,0.00,VWS V14.01,2013-07-21 15:57:00,
2013-07-21 11:58:00,85.3,67.3,29.91,NNE,26,5.0,6.0,55,0.00,,---,0.00,VWS V14.01,2013-07-21 15:58:00,
2013-07-21 11:59:00,85.4,68.4,29.91,NNE,26,0.0,5.0,57,0.00,,---,0.00,VWS V14.01,2013-07-21 15:59:00,
2013-07-21 12:00:00,85.6,69.1,29.91,East,89,0.0,5.0,58,0.00,,---,0.00,VWS V14.01,2013-07-21 16:00:00,
2013-07-21 12:01:00,85.7,66.1,29.91,NE,42,6.0,10.0,52,0.00,,---,0.00,VWS V14.01,2013-07-21 16:01:00,
2013-07-21 12:02:00,85.7,66.1,29.91,NE,42,6.0,10.0,52,0.00,,---,0.00,VWS V14.01,2013-07-21 16:02:00,
2013-07-21 12:03:00,85.7,67.2,29.91,NE,54,0.0,7.0,54,0.00,,---,0.00,VWS V14.01,2013-07-21 16:03:00,
2013-07-21 12:04:00,85.7,67.2,29.91,NE,54,6.0,6.0,54,0.00,,---,0.00,VWS V14.01,2013-07-21 16:04:00,
2013-07-21 12:05:00,85.6,66.5,29.91,NE,50,1.0,7.0,53,0.00,,---,0.00,VWS V14.01,2013-07-21 16:05:00,
2013-07-21 12:06:00,85.6,67.6,29.91,NNE,30,8.0,8.0,55,0.00,,---,0.00,VWS V14.01,2013-07-21 16:06:00,
2013-07-21 12:07:00,85.6,67.6,29.91,NNE,30,8.0,8.0,55,0.00,,---,0.00,VWS V14.01,2013-07-21 16:07:00,
2013-07-21 12:08:00,85.6,68.6,29.91,NNE,19,1.0,8.0,57,0.00,,---,0.00,VWS V14.01,2013-07-21 16:08:00,
2013-07-21 12:09:00,85.5,68.0,29.91,NNE,12,9.0,9.0,56,0.00,,---,0.00,VWS V14.01,2013-07-21 16:09:00,
2013-07-21 12:10:00,85.5,69.1,29.91,NNW,334,1.0,9.0,58,0.00,,---,0.00,VWS V14.01,2013-07-21 16:10:00,
2013-07-21 12:11:00,85.5,68.5,29.91,NNW,334,0.0,2.0,57,0.00,,---,0.00,VWS V14.01,2013-07-21 16:11:00,
2013-07-21 12:12:00,85.5,68.0,29.91,ENE,61,6.0,6.0,56,0.00,,---,0.00,VWS V14.01,2013-07-21 16:12:00,
2013-07-21 12:13:00,85.5,68.0,29.91,ENE,61,0.0,6.0,56,0.00,,---,0.00,VWS V14.01,2013-07-21 16:13:00,
2013-07-21 12:14:00,85.5,68.0,29.91,NNW,339,4.0,6.0,56,0.00,,---,0.00,VWS V14.01,2013-07-21 16:14:00,
2013-07-21 12:15:00,85.6,68.6,29.91,NNE,21,6.0,11.0,57,0.00,,---,0.00,VWS V14.01,2013-07-21 16:15:00,
2013-07-21 12:16:00,85.5,68.0,29.91,NNE,29,4.0,6.0,56,0.00,,---,0.00,VWS V14.01,2013-07-21 16:16:00,
2013-07-21 12:17:00,85.4,68.4,29.91,North,359,1.0,5.0,57,0.00,,---,0.00,VWS V14.01,2013-07-21 16:17:00,
2013-07-21 12:18:00,85.4,68.4,29.91,North,359,1.0,5.0,57,0.00,,---,0.00,VWS V14.01,2013-07-21 16:18:00,
2013-07-21 12:19:00,85.4,69.0,29.91,NW,306,4.0,4.0,58,0.00,,---,0.00,VWS V14.01,2013-07-21 16:19:00,
2013-07-21 12:20:00,85.5,70.5,29.91,NNE,18,5.0,6.0,61,0.00,,---,0.00,VWS V14.01,2013-07-21 16:20:00,
2013-07-21 12:21:00,85.5,69.6,29.91,ENE,78,2.0,5.0,59,0.00,,---,0.00,VWS V14.01,2013-07-21 16:21:00,
2013-07-21 12:22:00,85.5,69.6,29.91,ENE,76,4.0,4.0,59,0.00,,---,0.00,VWS V14.01,2013-07-21 16:22:00,
2013-07-21 12:23:00,85.5,69.6,29.91,ENE,76,4.0,4.0,59,0.00,,---,0.00,VWS V14.01,2013-07-21 16:23:00,
2013-07-21 12:24:00,85.4,69.4,29.91,ENE,67,0.0,6.0,59,0.00,,---,0.00,VWS V14.01,2013-07-21 16:24:00,
2013-07-21 12:25:00,85.4,69.4,29.91,East,99,8.0,11.0,59,0.00,,---,0.00,VWS V14.01,2013-07-21 16:25:00,
2013-07-21 12:26:00,85.3,68.9,29.92,ENE,78,4.0,11.0,58,0.00,,---,0.00,VWS V14.01,2013-07-21 16:26:00,
2013-07-21 12:27:00,85.0,69.1,29.91,NE,38,1.0,2.0,59,0.00,,---,0.00,VWS V14.01,2013-07-21 16:27:00,
2013-07-21 12:28:00,85.0,69.1,29.92,NE,45,2.0,7.0,59,0.00,,---,0.00,VWS V14.01,2013-07-21 16:28:00,
2013-07-21 12:29:00,84.9,69.0,29.91,NNE,26,2.0,7.0,59,0.00,,---,0.00,VWS V14.01,2013-07-21 16:29:00,
2013-07-21 12:30:00,84.7,69.3,29.91,NNE,18,1.0,4.0,60,0.00,,---,0.00,VWS V14.01,2013-07-21 16:30:00,
2013-07-21 12:31:00,84.7,69.8,29.91,North,351,4.0,6.0,61,0.00,,---,0.00,VWS V14.01,2013-07-21 16:31:00,
2013-07-21 12:32:00,84.7,70.2,29.91,NNE,23,0.0,5.0,62,0.00,,---,0.00,VWS V14.01,2013-07-21 16:32:00,
2013-07-21 12:33:00,84.6,70.2,29.91,East,84,4.0,6.0,62,0.00,,---,0.00,VWS V14.01,2013-07-21 16:33:00,
2013-07-21 12:34:00,84.6,70.2,29.91,East,85,6.0,6.0,62,0.00,,---,0.00,VWS V14.01,2013-07-21 16:34:00,
2013-07-21 12:35:00,84.6,69.2,29.92,East,89,0.0,6.0,60,0.00,,---,0.00,VWS V14.01,2013-07-21 16:35:00,
2013-07-21 12:36:00,84.6,69.7,29.92,East,89,5.0,5.0,61,0.00,,---,0.00,VWS V14.01,2013-07-21 16:36:00,
2013-07-21 12:37:00,84.6,70.2,29.92,NE,34,5.0,5.0,62,0.00,,---,0.00,VWS V14.01,2013-07-21 16:37:00,
2013-07-21 12:38:00,84.5,70.1,29.92,NW,307,1.0,7.0,62,0.00,,---,0.00,VWS V14.01,2013-07-21 16:38:00,
2013-07-21 12:39:00,84.5,70.1,29.92,NW,307,1.0,7.0,62,0.00,,---,0.00,VWS V14.01,2013-07-21 16:39:00,
2013-07-21 12:40:00,84.6,69.7,29.92,East,80,1.0,6.0,61,0.00,,---,0.00,VWS V14.01,2013-07-21 16:40:00,
2013-07-21 12:41:00,84.6,70.6,29.92,East,80,0.0,1.0,63,0.00,,---,0.00,VWS V14.01,2013-07-21 16:41:00,
2013-07-21 12:42:00,84.6,70.2,29.92,ENE,65,0.0,5.0,62,0.00,,---,0.00,VWS V14.01,2013-07-21 16:42:00,
2013-07-21 12:43:00,84.6,70.2,29.92,North,359,5.0,5.0,62,0.00,,---,0.00,VWS V14.01,2013-07-21 16:43:00,
2013-07-21 12:44:00,84.6,70.2,29.92,North,359,5.0,5.0,62,0.00,,---,0.00,VWS V14.01,2013-07-21 16:44:00,
2013-07-21 12:45:00,84.6,69.7,29.91,NE,42,2.0,7.0,61,0.00,,---,0.00,VWS V14.01,2013-07-21 16:45:00,
2013-07-21 12:46:00,84.6,69.7,29.91,NNE,31,2.0,4.0,61,0.00,,---,0.00,VWS V14.01,2013-07-21 16:46:00,
2013-07-21 12:47:00,84.7,69.8,29.91,East,94,5.0,7.0,61,0.00,,---,0.00,VWS V14.01,2013-07-21 16:47:00,
2013-07-21 12:48:00,84.6,69.2,29.91,North,358,3.0,7.0,60,0.00,,---,0.00,VWS V14.01,2013-07-21 16:48:00,
2013-07-21 12:49:00,84.6,69.2,29.91,North,358,3.0,7.0,60,0.00,,---,0.00,VWS V14.01,2013-07-21 16:49:00,
2013-07-21 12:50:00,84.7,70.2,29.91,North,7,7.0,7.0,62,0.00,,---,0.00,VWS V14.01,2013-07-21 16:50:00,
2013-07-21 12:51:00,84.7,70.7,29.91,NW,314,4.0,7.0,63,0.00,,---,0.00,VWS V14.01,2013-07-21 16:51:00,
2013-07-21 12:52:00,84.8,71.3,29.91,ENE,76,0.0,6.0,64,0.00,,---,0.00,VWS V14.01,2013-07-21 16:52:00,
2013-07-21 12:53:00,84.9,70.4,29.91,NE,55,0.0,2.0,62,0.00,,---,0.00,VWS V14.01,2013-07-21 16:53:00,
2013-07-21 12:54:00,84.9,70.4,29.91,NE,55,0.0,2.0,62,0.00,,---,0.00,VWS V14.01,2013-07-21 16:54:00,
2013-07-21 12:55:00,85.0,69.6,29.91,North,360,8.0,8.0,60,0.00,,---,0.00,VWS V14.01,2013-07-21 16:55:00,
2013-07-21 12:56:00,85.1,69.7,29.91,North,10,4.0,8.0,60,0.00,,---,0.00,VWS V14.01,2013-07-21 16:56:00,
2013-07-21 12:57:00,85.2,69.3,29.91,North,9,6.0,6.0,59,0.00,,---,0.00,VWS V14.01,2013-07-21 16:57:00,
2013-07-21 12:58:00,85.4,69.4,29.91,NE,43,6.0,7.0,59,0.00,,---,0.00,VWS V14.01,2013-07-21 16:58:00,
2013-07-21 12:59:00,85.4,69.4,29.91,NE,43,6.0,7.0,59,0.00,,---,0.00,VWS V14.01,2013-07-21 16:59:00,
2013-07-21 13:00:00,85.4,69.0,29.92,NNE,33,4.0,6.0,58,0.00,,---,0.00,VWS V14.01,2013-07-21 17:00:00,
2013-07-21 13:01:00,85.5,68.5,29.91,North,7,4.0,7.0,57,0.00,,---,0.00,VWS V14.01,2013-07-21 17:01:00,
2013-07-21 13:02:00,85.5,68.5,29.91,NNW,347,4.0,4.0,57,0.00,,---,0.00,VWS V14.01,2013-07-21 17:02:00,
2013-07-21 13:03:00,85.7,68.7,29.91,NE,55,0.0,5.0,57,0.00,,---,0.00,VWS V14.01,2013-07-21 17:03:00,
2013-07-21 13:04:00,85.7,68.7,29.91,NE,55,0.0,5.0,57,0.00,,---,0.00,VWS V14.01,2013-07-21 17:04:00,
2013-07-21 13:05:00,85.7,68.7,29.91,NE,50,4.0,4.0,57,0.00,,---,0.00,VWS V14.01,2013-07-21 17:05:00,
2013-07-21 13:06:00,85.7,69.7,29.91,North,359,0.0,5.0,59,0.00,,---,0.00,VWS V14.01,2013-07-21 17:06:00,
2013-07-21 13:07:00,85.7,69.7,29.91,North,360,0.0,3.0,59,0.00,,---,0.00,VWS V14.01,2013-07-21 17:07:00,
2013-07-21 13:08:00,85.9,70.9,29.91,NE,34,7.0,11.0,61,0.00,,---,0.00,VWS V14.01,2013-07-21 17:08:00,
2013-07-21 13:09:00,85.9,70.9,29.91,NE,34,7.0,11.0,61,0.00,,---,0.00,VWS V14.01,2013-07-21 17:09:00,
2013-07-21 13:10:00,85.9,69.4,29.92,ENE,61,5.0,7.0,58,0.00,,---,0.00,VWS V14.01,2013-07-21 17:10:00,
2013-07-21 13:11:00,85.9,68.9,29.92,NE,52,2.0,7.0,57,0.00,,---,0.00,VWS V14.01,2013-07-21 17:11:00,
2013-07-21 13:12:00,85.9,68.4,29.92,ENE,66,9.0,9.0,56,0.00,,---,0.00,VWS V14.01,2013-07-21 17:12:00,
2013-07-21 13:13:00,85.7,68.7,29.92,NE,55,0.0,4.0,57,0.00,,---,0.00,VWS V14.01,2013-07-21 17:13:00,
2013-07-21 13:14:00,85.7,68.7,29.92,NE,55,0.0,4.0,57,0.00,,---,0.00,VWS V14.01,2013-07-21 17:14:00,
2013-07-21 13:15:00,85.6,69.1,29.92,NNE,18,4.0,4.0,58,0.00,,---,0.00,VWS V14.01,2013-07-21 17:15:00,
2013-07-21 13:16:00,85.5,68.5,29.92,East,83,6.0,6.0,57,0.00,,---,0.00,VWS V14.01,2013-07-21 17:16:00,
2013-07-21 13:17:00,85.4,67.4,29.92,ENE,73,5.0,7.0,55,0.00,,---,0.00,VWS V14.01,2013-07-21 17:17:00,
2013-07-21 13:18:00,85.2,67.2,29.92,ENE,57,4.0,7.0,55,0.00,,---,0.00,VWS V14.01,2013-07-21 17:18:00,
2013-07-21 13:19:00,85.0,68.6,29.92,NNE,16,0.0,5.0,58,0.00,,---,0.00,VWS V14.01,2013-07-21 17:19:00,
2013-07-21 13:20:00,85.0,68.6,29.92,NNE,21,4.0,5.0,58,0.00,,---,0.00,VWS V14.01,2013-07-21 17:20:00,
2013-07-21 13:21:00,84.8,68.4,29.92,NNE,22,0.0,6.0,58,0.00,,---,0.00,VWS V14.01,2013-07-21 17:21:00,
2013-07-21 13:22:00,84.7,67.8,29.92,NNE,20,0.0,5.0,57,0.00,,---,0.00,VWS V14.01,2013-07-21 17:22:00,
2013-07-21 13:23:00,84.6,67.7,29.92,NNE,20,0.0,4.0,57,0.00,,---,0.00,VWS V14.01,2013-07-21 17:23:00,
2013-07-21 13:24:00,84.4,67.5,29.92,NNE,20,0.0,5.0,57,0.00,,---,0.00,VWS V14.01,2013-07-21 17:24:00,
2013-07-21 13:25:00,84.4,67.5,29.92,NNE,20,0.0,5.0,57,0.00,,---,0.00,VWS V14.01,2013-07-21 17:25:00,
2013-07-21 13:26:00,84.3,68.4,29.92,NNE,26,4.0,5.0,59,0.00,,---,0.00,VWS V14.01,2013-07-21 17:26:00,
2013-07-21 13:27:00,84.2,68.3,29.92,NE,37,4.0,6.0,59,0.00,,---,0.00,VWS V14.01,2013-07-21 17:27:00,
2013-07-21 13:28:00,84.1,68.7,29.92,North,2,7.0,7.0,60,0.00,,---,0.00,VWS V14.01,2013-07-21 17:28:00,
2013-07-21 13:29:00,83.9,70.0,29.92,NE,36,2.0,5.0,63,0.00,,---,0.00,VWS V14.01,2013-07-21 17:29:00,
2013-07-21 13:30:00,83.9,70.0,29.92,NE,36,2.0,5.0,63,0.00,,---,0.00,VWS V14.01,2013-07-21 17:30:00,
2013-07-21 13:31:00,83.9,70.0,29.92,North,349,1.0,6.0,63,0.00,,---,0.00,VWS V14.01,2013-07-21 17:31:00,
2013-07-21 13:32:00,83.8,69.4,29.92,NNE,28,7.0,7.0,62,0.00,,---,0.00,VWS V14.01,2013-07-21 17:32:00,
2013-07-21 13:33:00,83.8,69.4,29.92,ENE,69,5.0,8.0,62,0.00,,---,0.00,VWS V14.01,2013-07-21 17:33:00,
2013-07-21 13:34:00,83.6,69.7,29.92,NE,36,0.0,4.0,63,0.00,,---,0.00,VWS V14.01,2013-07-21 17:34:00,
2013-07-21 13:35:00,83.6,69.7,29.92,NE,36,0.0,4.0,63,0.00,,---,0.00,VWS V14.01,2013-07-21 17:35:00,
2013-07-21 13:36:00,83.6,69.2,29.92,NNE,32,4.0,5.0,62,0.00,,---,0.00,VWS V14.01,2013-07-21 17:36:00,
2013-07-21 13:37:00,83.5,69.6,29.92,NNE,22,2.0,5.0,63,0.00,,---,0.00,VWS V14.01,2013-07-21 17:37:00,
2013-07-21 13:38:00,83.5,69.6,29.92,NNW,340,2.0,6.0,63,0.00,,---,0.00,VWS V14.01,2013-07-21 17:38:00,
2013-07-21 13:39:00,83.5,69.6,29.92,North,5,6.0,9.0,63,0.00,,---,0.00,VWS V14.01,2013-07-21 17:39:00,
2013-07-21 13:40:00,83.5,69.6,29.92,North,5,6.0,9.0,63,0.00,,---,0.00,VWS V14.01,2013-07-21 17:40:00,
2013-07-21 13:41:00,83.5,70.1,29.92,NNE,27,4.0,6.0,64,0.00,,---,0.00,VWS V14.01,2013-07-21 17:41:00,
2013-07-21 13:42:00,83.5,70.1,29.92,NNE,18,5.0,8.0,64,0.00,,---,0.00,VWS V14.01,2013-07-21 17:42:00,
2013-07-21 13:43:00,83.4,70.0,29.92,East,99,5.0,9.0,64,0.00,,---,0.00,VWS V14.01,2013-07-21 17:43:00,
2013-07-21 13:44:00,83.4,69.5,29.92,NE,55,6.0,7.0,63,0.00,,---,0.00,VWS V14.01,2013-07-21 17:44:00,
2013-07-21 13:45:00,83.4,69.5,29.92,NE,55,6.0,7.0,63,0.00,,---,0.00,VWS V14.01,2013-07-21 17:45:00,
2013-07-21 13:46:00,83.4,70.0,29.92,North,11,4.0,7.0,64,0.00,,---,0.00,VWS V14.01,2013-07-21 17:46:00,
2013-07-21 13:47:00,83.4,69.5,29.92,NNE,26,2.0,4.0,63,0.00,,---,0.00,VWS V14.01,2013-07-21 17:47:00,
2013-07-21 13:48:00,83.4,70.4,29.92,North,355,0.0,5.0,65,0.00,,---,0.00,VWS V14.01,2013-07-21 17:48:00,
2013-07-21 13:49:00,83.6,70.6,29.91,NNW,337,3.0,6.0,65,0.00,,---,0.00,VWS V14.01,2013-07-21 17:49:00,
2013-07-21 13:50:00,83.6,70.6,29.91,NNW,337,3.0,6.0,65,0.00,,---,0.00,VWS V14.01,2013-07-21 17:50:00,
2013-07-21 13:51:00,83.7,69.3,29.92,NNW,331,0.0,3.0,62,0.00,,---,0.00,VWS V14.01,2013-07-21 17:51:00,
2013-07-21 13:52:00,83.8,71.2,29.91,NNE,26,5.0,7.0,66,0.00,,---,0.00,VWS V14.01,2013-07-21 17:52:00,
2013-07-21 13:53:00,84.0,70.5,29.91,ESE,113,1.0,5.0,64,0.00,,---,0.00,VWS V14.01,2013-07-21 17:53:00,
2013-07-21 13:54:00,84.3,69.4,29.91,East,84,9.0,9.0,61,0.00,,---,0.00,VWS V14.01,2013-07-21 17:54:00,
2013-07-21 13:55:00,84.3,69.4,29.91,East,84,9.0,9.0,61,0.00,,---,0.00,VWS V14.01,2013-07-21 17:55:00,
2013-07-21 13:56:00,84.3,68.4,29.91,NE,50,6.0,9.0,59,0.00,,---,0.00,VWS V14.01,2013-07-21 17:56:00,
2013-07-21 13:57:00,84.4,68.5,29.91,NE,44,4.0,7.0,59,0.00,,---,0.00,VWS V14.01,2013-07-21 17:57:00,
2013-07-21 13:58:00,84.4,68.0,29.91,NE,45,0.0,4.0,58,0.00,,---,0.00,VWS V14.01,2013-07-21 17:58:00,
2013-07-21 13:59:00,84.3,69.9,29.91,North,7,8.0,8.0,62,0.00,,---,0.00,VWS V14.01,2013-07-21 17:59:00,
2013-07-21 14:00:00,84.5,69.1,29.91,NW,315,6.0,6.0,60,0.00,,---,0.00,VWS V14.01,2013-07-21 18:00:00,
2013-07-21 14:01:00,84.5,69.1,29.91,NW,321,3.0,6.0,60,0.00,,---,0.00,VWS V14.01,2013-07-21 18:01:00,
2013-07-21 14:02:00,84.6,69.2,29.91,North,6,4.0,6.0,60,0.00,,---,0.00,VWS V14.01,2013-07-21 18:02:00,
2013-07-21 14:03:00,84.7,69.8,29.91,North,5,4.0,5.0,61,0.00,,---,0.00,VWS V14.01,2013-07-21 18:03:00,
2013-07-21 14:04:00,84.9,70.0,29.91,NNE,13,6.0,7.0,61,0.00,,---,0.00,VWS V14.01,2013-07-21 18:04:00,
2013-07-21 14:05:00,85.1,69.7,29.91,North,4,7.0,8.0,60,0.00,,---,0.00,VWS V14.01,2013-07-21 18:05:00,
2013-07-21 14:06:00,85.1,69.7,29.91,North,4,7.0,8.0,60,0.00,,---,0.00,VWS V14.01,2013-07-21 18:06:00,
2013-07-21 14:07:00,85.1,68.7,29.92,NNE,28,4.0,7.0,58,0.00,,---,0.00,VWS V14.01,2013-07-21 18:07:00,
2013-07-21 14:08:00,85.2,69.3,29.91,NNE,30,5.0,5.0,59,0.00,,---,0.00,VWS V14.01,2013-07-21 18:08:00,
2013-07-21 14:09:00,85.2,69.8,29.91,NNE,28,7.0,7.0,60,0.00,,---,0.00,VWS V14.01,2013-07-21 18:09:00,
2013-07-21 14:10:00,85.3,67.8,29.91,ENE,70,5.0,7.0,56,0.00,,---,0.00,VWS V14.01,2013-07-21 18:10:00,
2013-07-21 14:11:00,85.3,67.8,29.91,ENE,70,5.0,7.0,56,0.00,,---,0.00,VWS V14.01,2013-07-21 18:11:00,
2013-07-21 14:12:00,85.2,68.3,29.91,ENE,71,0.0,6.0,57,0.00,,---,0.00,VWS V14.01,2013-07-21 18:12:00,
2013-07-21 14:13:00,85.2,69.3,29.91,NNE,28,6.0,6.0,59,0.00,,---,0.00,VWS V14.01,2013-07-21 18:13:00,
2013-07-21 14:14:00,85.2,67.2,29.91,NE,49,2.0,7.0,55,0.00,,---,0.00,VWS V14.01,2013-07-21 18:14:00,
2013-07-21 14:15:00,85.2,67.2,29.91,NE,34,1.0,6.0,55,0.00,,---,0.00,VWS V14.01,2013-07-21 18:15:00,
2013-07-21 14:16:00,85.2,67.2,29.91,NE,34,1.0,6.0,55,0.00,,---,0.00,VWS V14.01,2013-07-21 18:16:00,
2013-07-21 14:17:00,85.2,68.3,29.91,NE,43,6.0,9.0,57,0.00,,---,0.00,VWS V14.01,2013-07-21 18:17:00,
2013-07-21 14:18:00,85.2,68.8,29.91,NE,47,2.0,6.0,58,0.00,,---,0.00,VWS V14.01,2013-07-21 18:18:00,
2013-07-21 14:19:00,85.3,70.8,29.91,NE,34,2.0,5.0,62,0.00,,---,0.00,VWS V14.01,2013-07-21 18:19:00,
2013-07-21 14:20:00,85.4,69.4,29.91,ENE,76,4.0,7.0,59,0.00,,---,0.00,VWS V14.01,2013-07-21 18:20:00,
2013-07-21 14:21:00,85.4,69.4,29.91,ENE,76,4.0,7.0,59,0.00,,---,0.00,VWS V14.01,2013-07-21 18:21:00,
2013-07-21 14:22:00,85.3,68.4,29.91,NNE,20,5.0,8.0,57,0.00,,---,0.00,VWS V14.01,2013-07-21 18:22:00,
2013-07-21 14:23:00,85.3,68.9,29.91,NNE,15,8.0,8.0,58,0.00,,---,0.00,VWS V14.01,2013-07-21 18:23:00,
2013-07-21 14:24:00,85.3,69.8,29.91,NNE,19,1.0,8.0,60,0.00,,---,0.00,VWS V14.01,2013-07-21 18:24:00,
2013-07-21 14:25:00,85.4,69.9,29.91,NNE,29,4.0,8.0,60,0.00,,---,0.00,VWS V14.01,2013-07-21 18:25:00,
2013-07-21 14:26:00,85.4,69.9,29.91,NNE,29,4.0,8.0,60,0.00,,---,0.00,VWS V14.01,2013-07-21 18:26:00,
2013-07-21 14:27:00,85.4,69.9,29.91,NNE,29,2.0,4.0,60,0.00,,---,0.00,VWS V14.01,2013-07-21 18:27:00,
2013-07-21 14:28:00,85.4,70.9,29.91,NNE,29,0.0,4.0,62,0.00,,---,0.00,VWS V14.01,2013-07-21 18:28:00,
2013-07-21 14:29:00,85.5,69.6,29.91,NNE,14,6.0,8.0,59,0.00,,---,0.00,VWS V14.01,2013-07-21 18:29:00,
2013-07-21 14:30:00,85.5,69.1,29.91,NNE,15,2.0,5.0,58,0.00,,---,0.00,VWS V14.01,2013-07-21 18:30:00,
2013-07-21 14:31:00,85.5,69.1,29.91,NNE,15,2.0,5.0,58,0.00,,---,0.00,VWS V14.01,2013-07-21 18:31:00,
2013-07-21 14:32:00,85.6,69.6,29.91,NNE,23,2.0,6.0,59,0.00,,---,0.00,VWS V14.01,2013-07-21 18:32:00,
2013-07-21 14:33:00,85.6,69.6,29.91,NNE,33,4.0,5.0,59,0.00,,---,0.00,VWS V14.01,2013-07-21 18:33:00,
2013-07-21 14:34:00,85.6,69.1,29.91,NNE,32,0.0,6.0,58,0.00,,---,0.00,VWS V14.01,2013-07-21 18:34:00,
2013-07-21 14:35:00,85.6,68.6,29.91,ENE,58,1.0,4.0,57,0.00,,---,0.00,VWS V14.01,2013-07-21 18:35:00,
2013-07-21 14:36:00,85.6,68.6,29.91,ENE,58,1.0,4.0,57,0.00,,---,0.00,VWS V14.01,2013-07-21 18:36:00,
2013-07-21 14:37:00,85.6,70.6,29.91,ENE,58,4.0,4.0,61,0.00,,---,0.00,VWS V14.01,2013-07-21 18:37:00,
2013-07-21 14:38:00,85.7,70.2,29.91,NE,40,4.0,6.0,60,0.00,,---,0.00,VWS V14.01,2013-07-21 18:38:00,
2013-07-21 14:39:00,85.7,69.7,29.91,North,350,1.0,9.0,59,0.00,,---,0.00,VWS V14.01,2013-07-21 18:39:00,
2013-07-21 14:40:00,85.8,68.8,29.91,NNE,29,0.0,7.0,57,0.00,,---,0.00,VWS V14.01,2013-07-21 18:40:00,
2013-07-21 14:41:00,85.8,68.8,29.91,NNE,29,0.0,7.0,57,0.00,,---,0.00,VWS V14.01,2013-07-21 18:41:00,
2013-07-21 14:42:00,85.9,69.9,29.91,East,85,4.0,5.0,59,0.00,,---,0.00,VWS V14.01,2013-07-21 18:42:00,
2013-07-21 14:43:00,85.9,68.4,29.91,ENE,68,4.0,6.0,56,0.00,,---,0.00,VWS V14.01,2013-07-21 18:43:00,
2013-07-21 14:44:00,85.9,68.4,29.91,ENE,67,0.0,6.0,56,0.00,,---,0.00,VWS V14.01,2013-07-21 18:44:00,
2013-07-21 14:45:00,85.9,68.9,29.91,ENE,67,0.0,2.0,57,0.00,,---,0.00,VWS V14.01,2013-07-21 18:45:00,
2013-07-21 14:46:00,85.8,70.3,29.91,NNW,336,5.0,5.0,60,0.00,,---,0.00,VWS V14.01,2013-07-21 18:46:00,
2013-07-21 14:47:00,85.8,69.8,29.91,NW,316,2.0,6.0,59,0.00,,---,0.00,VWS V14.01,2013-07-21 18:47:00,
2013-07-21 14:48:00,85.8,68.8,29.91,ENE,72,6.0,7.0,57,0.00,,---,0.00,VWS V14.01,2013-07-21 18:48:00,
2013-07-21 14:49:00,85.7,67.2,29.91,NE,49,1.0,8.0,54,0.00,,---,0.00,VWS V14.01,2013-07-21 18:49:00,
2013-07-21 14:50:00,85.7,67.7,29.91,NE,42,4.0,4.0,55,0.00,,---,0.00,VWS V14.01,2013-07-21 18:50:00,
2013-07-21 14:51:00,85.6,68.1,29.91,NNW,348,4.0,4.0,56,0.00,,---,0.00,VWS V14.01,2013-07-21 18:51:00,
2013-07-21 14:52:00,85.6,68.1,29.91,NNW,348,4.0,4.0,56,0.00,,---,0.00,VWS V14.01,2013-07-21 18:52:00,
2013-07-21 14:53:00,85.5,67.5,29.92,NE,37,5.0,6.0,55,0.00,,---,0.00,VWS V14.01,2013-07-21 18:53:00,
2013-07-21 14:54:00,85.5,68.0,29.92,North,7,2.0,7.0,56,0.00,,---,0.00,VWS V14.01,2013-07-21 18:54:00,
2013-07-21 14:55:00,85.4,67.9,29.92,North,360,1.0,7.0,56,0.00,,---,0.00,VWS V14.01,2013-07-21 18:55:00,
2013-07-21 14:56:00,85.4,67.9,29.92,North,357,0.0,5.0,56,0.00,,---,0.00,VWS V14.01,2013-07-21 18:56:00,
2013-07-21 14:57:00,85.4,67.9,29.92,North,357,0.0,5.0,56,0.00,,---,0.00,VWS V14.01,2013-07-21 18:57:00,
2013-07-21 14:58:00,85.4,69.4,29.92,NW,319,1.0,3.0,59,0.00,,---,0.00,VWS V14.01,2013-07-21 18:58:00,
2013-07-21 14:59:00,85.4,69.0,29.92,ENE,64,5.0,5.0,58,0.00,,---,0.00,VWS V14.01,2013-07-21 18:59:00,
2013-07-21 15:00:00,85.4,67.9,29.92,NE,51,0.0,7.0,56,0.00,,---,0.00,VWS V14.01,2013-07-21 19:00:00,
2013-07-21 15:01:00,85.5,68.0,29.91,NE,54,0.0,4.0,56,0.00,,---,0.00,VWS V14.01,2013-07-21 19:01:00,
2013-07-21 15:02:00,85.5,68.0,29.91,NE,54,0.0,4.0,56,0.00,,---,0.00,VWS V14.01,2013-07-21 19:02:00,
2013-07-21 15:03:00,85.5,68.0,29.91,ENE,74,5.0,9.0,56,0.00,,---,0.00,VWS V14.01,2013-07-21 19:03:00,
2013-07-21 15:04:00,85.5,67.0,29.91,ENE,72,1.0,5.0,54,0.00,,---,0.00,VWS V14.01,2013-07-21 19:04:00,
2013-07-21 15:05:00,85.5,67.0,29.91,ENE,58,0.0,4.0,54,0.00,,---,0.00,VWS V14.01,2013-07-21 19:05:00,
2013-07-21 15:06:00,85.4,66.3,29.91,NE,34,4.0,4.0,53,0.00,,---,0.00,VWS V14.01,2013-07-21 19:06:00,
2013-07-21 15:07:00,85.4,66.3,29.91,NE,34,4.0,4.0,53,0.00,,---,0.00,VWS V14.01,2013-07-21 19:07:00,
2013-07-21 15:08:00,85.4,65.8,29.91,NE,34,0.0,5.0,52,0.00,,---,0.00,VWS V14.01,2013-07-21 19:08:00,
2013-07-21 15:09:00,85.4,66.3,29.91,NE,34,5.0,5.0,53,0.00,,---,0.00,VWS V14.01,2013-07-21 19:09:00,
2013-07-21 15:10:00,85.4,65.8,29.91,NE,34,4.0,5.0,52,0.00,,---,0.00,VWS V14.01,2013-07-21 19:10:00,
2013-07-21 15:11:00,85.4,66.3,29.91,ENE,61,0.0,5.0,53,0.00,,---,0.00,VWS V14.01,2013-07-21 19:11:00,
2013-07-21 15:12:00,85.4,66.3,29.91,ENE,61,0.0,5.0,53,0.00,,---,0.00,VWS V14.01,2013-07-21 19:12:00,
2013-07-21 15:13:00,85.4,67.4,29.91,ENE,61,4.0,5.0,55,0.00,,---,0.00,VWS V14.01,2013-07-21 19:13:00,
2013-07-21 15:14:00,85.4,67.4,29.91,ENE,61,0.0,4.0,55,0.00,,---,0.00,VWS V14.01,2013-07-21 19:14:00,
2013-07-21 15:15:00,85.4,66.9,29.91,ENE,65,6.0,6.0,54,0.00,,---,0.00,VWS V14.01,2013-07-21 19:15:00,
2013-07-21 15:16:00,85.4,66.9,29.91,ENE,69,6.0,8.0,54,0.00,,---,0.00,VWS V14.01,2013-07-21 19:16:00,
2013-07-21 15:17:00,85.4,67.4,29.91,ENE,61,2.0,7.0,55,0.00,,---,0.00,VWS V14.01,2013-07-21 19:17:00,
2013-07-21 15:18:00,85.3,67.3,29.91,NE,53,5.0,7.0,55,0.00,,---,0.00,VWS V14.01,2013-07-21 19:18:00,
2013-07-21 15:19:00,85.2,67.2,29.91,NNE,30,2.0,8.0,55,0.00,,---,0.00,VWS V14.01,2013-07-21 19:19:00,
2013-07-21 15:20:00,85.2,66.7,29.91,NNE,30,4.0,4.0,54,0.00,,---,0.00,VWS V14.01,2013-07-21 19:20:00,
2013-07-21 15:21:00,85.1,67.1,29.91,NNE,18,7.0,8.0,55,0.00,,---,0.00,VWS V14.01,2013-07-21 19:21:00,
2013-07-21 15:22:00,85.0,67.0,29.91,North,5,2.0,6.0,55,0.00,,---,0.00,VWS V14.01,2013-07-21 19:22:00,
2013-07-21 15:23:00,85.0,67.0,29.91,North,5,2.0,6.0,55,0.00,,---,0.00,VWS V14.01,2013-07-21 19:23:00,
2013-07-21 15:24:00,85.0,67.6,29.91,North,10,4.0,7.0,56,0.00,,---,0.00,VWS V14.01,2013-07-21 19:24:00,
2013-07-21 15:25:00,84.9,66.9,29.91,NNE,16,5.0,7.0,55,0.00,,---,0.00,VWS V14.01,2013-07-21 19:25:00,
2013-07-21 15:26:00,84.8,67.4,29.91,NNE,18,4.0,5.0,56,0.00,,---,0.00,VWS V14.01,2013-07-21 19:26:00,
2013-07-21 15:27:00,84.8,66.8,29.91,ENE,63,6.0,8.0,55,0.00,,---,0.00,VWS V14.01,2013-07-21 19:27:00,
2013-07-21 15:28:00,84.8,66.8,29.91,ENE,63,6.0,8.0,55,0.00,,---,0.00,VWS V14.01,2013-07-21 19:28:00,
2013-07-21 15:29:00,84.7,67.8,29.91,ENE,75,4.0,7.0,57,0.00,,---,0.00,VWS V14.01,2013-07-21 19:29:00,
2013-07-21 15:30:00,84.7,69.3,29.91,NE,39,2.0,4.0,60,0.00,,---,0.00,VWS V14.01,2013-07-21 19:30:00,
2013-07-21 15:31:00,84.7,69.8,29.91,North,7,4.0,5.0,61,0.00,,---,0.00,VWS V14.01,2013-07-21 19:31:00,
2013-07-21 15:32:00,84.6,69.7,29.91,NE,37,4.0,5.0,61,0.00,,---,0.00,VWS V14.01,2013-07-21 19:32:00,
2013-07-21 15:33:00,84.6,69.7,29.91,NE,37,4.0,5.0,61,0.00,,---,0.00,VWS V14.01,2013-07-21 19:33:00,
2013-07-21 15:34:00,84.5,69.6,29.91,NE,36,1.0,5.0,61,0.00,,---,0.00,VWS V14.01,2013-07-21 19:34:00,
2013-07-21 15:35:00,84.5,69.1,29.91,North,356,2.0,7.0,60,0.00,,---,0.00,VWS V14.01,2013-07-21 19:35:00,
2013-07-21 15:36:00,84.5,69.1,29.91,North,354,4.0,5.0,60,0.00,,---,0.00,VWS V14.01,2013-07-21 19:36:00,
2013-07-21 15:37:00,84.5,71.0,29.91,NNE,15,4.0,5.0,64,0.00,,---,0.00,VWS V14.01,2013-07-21 19:37:00,
2013-07-21 15:38:00,84.5,71.0,29.91,NNE,15,4.0,5.0,64,0.00,,---,0.00,VWS V14.01,2013-07-21 19:38:00,
2013-07-21 15:39:00,84.5,69.1,29.91,NNE,17,1.0,4.0,60,0.00,,---,0.00,VWS V14.01,2013-07-21 19:39:00,
2013-07-21 15:40:00,84.6,69.7,29.91,ESE,109,0.0,4.0,61,0.00,,---,0.00,VWS V14.01,2013-07-21 19:40:00,
2013-07-21 15:41:00,84.6,68.7,29.91,North,352,2.0,9.0,59,0.00,,---,0.00,VWS V14.01,2013-07-21 19:41:00,
2013-07-21 15:42:00,84.7,69.3,29.91,NNE,30,5.0,8.0,60,0.00,,---,0.00,VWS V14.01,2013-07-21 19:42:00,
2013-07-21 15:43:00,84.7,69.3,29.91,NNE,30,5.0,8.0,60,0.00,,---,0.00,VWS V14.01,2013-07-21 19:43:00,
2013-07-21 15:44:00,84.7,69.3,29.91,ENE,74,1.0,5.0,60,0.00,,---,0.00,VWS V14.01,2013-07-21 19:44:00,
2013-07-21 15:45:00,84.8,68.9,29.91,NE,55,5.0,5.0,59,0.00,,---,0.00,VWS V14.01,2013-07-21 19:45:00,
2013-07-21 15:46:00,84.7,68.8,29.91,NNE,24,5.0,6.0,59,0.00,,---,0.00,VWS V14.01,2013-07-21 19:46:00,
2013-07-21 15:47:00,84.7,69.3,29.91,North,9,0.0,8.0,60,0.00,,---,0.00,VWS V14.01,2013-07-21 19:47:00,
2013-07-21 15:48:00,84.7,69.3,29.91,North,9,0.0,8.0,60,0.00,,---,0.00,VWS V14.01,2013-07-21 19:48:00,
2013-07-21 15:49:00,84.7,69.8,29.91,NNE,18,5.0,8.0,61,0.00,,---,0.00,VWS V14.01,2013-07-21 19:49:00,
2013-07-21 15:50:00,84.6,68.7,29.91,NNE,20,4.0,6.0,59,0.00,,---,0.00,VWS V14.01,2013-07-21 19:50:00,
2013-07-21 15:51:00,84.6,68.7,29.91,NNE,25,0.0,5.0,59,0.00,,---,0.00,VWS V14.01,2013-07-21 19:51:00,
2013-07-21 15:52:00,84.5,67.1,29.91,ENE,57,4.0,7.0,56,0.00,,---,0.00,VWS V14.01,2013-07-21 19:52:00,
2013-07-21 15:53:00,84.5,67.1,29.91,ENE,57,4.0,7.0,56,0.00,,---,0.00,VWS V14.01,2013-07-21 19:53:00,
2013-07-21 15:54:00,84.5,69.1,29.91,ENE,57,2.0,4.0,60,0.00,,---,0.00,VWS V14.01,2013-07-21 19:54:00,
2013-07-21 15:55:00,84.5,69.6,29.91,North,350,2.0,6.0,61,0.00,,---,0.00,VWS V14.01,2013-07-21 19:55:00,
2013-07-21 15:56:00,84.5,69.6,29.91,North,355,0.0,2.0,61,0.00,,---,0.00,VWS V14.01,2013-07-21 19:56:00,
2013-07-21 15:57:00,84.5,68.6,29.91,NNE,27,1.0,4.0,59,0.00,,---,0.00,VWS V14.01,2013-07-21 19:57:00,
2013-07-21 15:58:00,84.4,68.5,29.91,NNW,344,0.0,3.0,59,0.00,,---,0.00,VWS V14.01,2013-07-21 19:58:00,
2013-07-21 15:59:00,84.4,69.0,29.91,NNW,348,1.0,3.0,60,0.00,,---,0.00,VWS V14.01,2013-07-21 19:59:00,
2013-07-21 16:00:00,84.4,69.0,29.91,NNW,345,1.0,5.0,60,0.00,,---,0.00,VWS V14.01,2013-07-21 20:00:00,
2013-07-21 16:01:00,84.4,68.0,29.91,North,6,4.0,6.0,58,0.00,,---,0.00,VWS V14.01,2013-07-21 20:01:00,
2013-07-21 16:02:00,84.4,69.5,29.91,East,94,3.0,6.0,61,0.00,,---,0.00,VWS V14.01,2013-07-21 20:02:00,
2013-07-21 16:03:00,84.4,68.5,29.91,NE,43,1.0,7.0,59,0.00,,---,0.00,VWS V14.01,2013-07-21 20:03:00,
2013-07-21 16:04:00,84.4,68.5,29.91,NE,43,1.0,7.0,59,0.00,,---,0.00,VWS V14.01,2013-07-21 20:04:00,
2013-07-21 16:05:00,84.4,69.0,29.91,NE,47,0.0,2.0,60,0.00,,---,0.00,VWS V14.01,2013-07-21 20:05:00,
2013-07-21 16:06:00,84.3,68.9,29.91,NE,47,0.0,5.0,60,0.00,,---,0.00,VWS V14.01,2013-07-21 20:06:00,
2013-07-21 16:07:00,84.3,69.4,29.91,ENE,57,1.0,6.0,61,0.00,,---,0.00,VWS V14.01,2013-07-21 20:07:00,
2013-07-21 16:08:00,84.3,68.9,29.91,ENE,78,4.0,6.0,60,0.00,,---,0.00,VWS V14.01,2013-07-21 20:08:00,
2013-07-21 16:09:00,84.3,68.9,29.91,ENE,78,4.0,6.0,60,0.00,,---,0.00,VWS V14.01,2013-07-21 20:09:00,
2013-07-21 16:10:00,84.2,69.3,29.91,ENE,57,0.0,5.0,61,0.00,,---,0.00,VWS V14.01,2013-07-21 20:10:00,
2013-07-21 16:11:00,84.2,69.3,29.91,East,99,6.0,9.0,61,0.00,,---,0.00,VWS V14.01,2013-07-21 20:11:00,
2013-07-21 16:12:00,84.2,69.3,29.91,NNE,20,1.0,7.0,61,0.00,,---,0.00,VWS V14.01,2013-07-21 20:12:00,
2013-07-21 16:13:00,84.2,68.8,29.91,NW,309,3.0,7.0,60,0.00,,---,0.00,VWS V14.01,2013-07-21 20:13:00,
2013-07-21 16:14:00,84.2,68.8,29.91,NW,309,3.0,7.0,60,0.00,,---,0.00,VWS V14.01,2013-07-21 20:14:00,
2013-07-21 16:15:00,84.2,69.3,29.90,NNE,12,5.0,6.0,61,0.00,,---,0.00,VWS V14.01,2013-07-21 20:15:00,
2013-07-21 16:16:00,84.2,68.8,29.91,NNE,18,1.0,7.0,60,0.00,,---,0.00,VWS V14.01,2013-07-21 20:16:00,
2013-07-21 16:17:00,84.2,68.8,29.90,NNE,20,2.0,5.0,60,0.00,,---,0.00,VWS V14.01,2013-07-21 20:17:00,
2013-07-21 16:18:00,84.2,68.8,29.90,NNE,12,0.0,6.0,60,0.00,,---,0.00,VWS V14.01,2013-07-21 20:18:00,
2013-07-21 16:19:00,84.3,68.9,29.90,North,3,2.0,7.0,60,0.00,,---,0.00,VWS V14.01,2013-07-21 20:19:00,
2013-07-21 16:20:00,84.3,67.9,29.90,North,5,5.0,7.0,58,0.00,,---,0.00,VWS V14.01,2013-07-21 20:20:00,
2013-07-21 16:21:00,84.3,67.9,29.90,NNE,32,2.0,5.0,58,0.00,,---,0.00,VWS V14.01,2013-07-21 20:21:00,
2013-07-21 16:22:00,84.3,67.9,29.91,NE,34,6.0,6.0,58,0.00,,---,0.00,VWS V14.01,2013-07-21 20:22:00,
2013-07-21 16:23:00,84.3,67.4,29.90,NE,55,1.0,7.0,57,0.00,,---,0.00,VWS V14.01,2013-07-21 20:23:00,
2013-07-21 16:24:00,84.3,65.3,29.90,ENE,59,6.0,7.0,53,0.00,,---,0.00,VWS V14.01,2013-07-21 20:24:00,
2013-07-21 16:25:00,84.3,65.3,29.90,ENE,59,6.0,7.0,53,0.00,,---,0.00,VWS V14.01,2013-07-21 20:25:00,
2013-07-21 16:26:00,84.3,64.8,29.90,NE,52,4.0,8.0,52,0.00,,---,0.00,VWS V14.01,2013-07-21 20:26:00,
2013-07-21 16:27:00,84.3,65.3,29.90,NNE,22,2.0,7.0,53,0.00,,---,0.00,VWS V14.01,2013-07-21 20:27:00,
2013-07-21 16:28:00,84.3,65.9,29.90,NNE,22,2.0,2.0,54,0.00,,---,0.00,VWS V14.01,2013-07-21 20:28:00,
2013-07-21 16:29:00,84.3,67.4,29.90,NNE,26,5.0,7.0,57,0.00,,---,0.00,VWS V14.01,2013-07-21 20:29:00,
2013-07-21 16:30:00,84.3,67.4,29.90,NNE,26,5.0,7.0,57,0.00,,---,0.00,VWS V14.01,2013-07-21 20:30:00,
2013-07-21 16:31:00,84.3,66.4,29.90,NNE,18,1.0,6.0,55,0.00,,---,0.00,VWS V14.01,2013-07-21 20:31:00,
2013-07-21 16:32:00,84.3,66.9,29.90,NNE,27,2.0,6.0,56,0.00,,---,0.00,VWS V14.01,2013-07-21 20:32:00,
2013-07-21 16:33:00,84.3,67.4,29.90,NNE,28,0.0,4.0,57,0.00,,---,0.00,VWS V14.01,2013-07-21 20:33:00,
2013-07-21 16:34:00,84.2,67.3,29.90,ENE,63,2.0,5.0,57,0.00,,---,0.00,VWS V14.01,2013-07-21 20:34:00,
2013-07-21 16:35:00,84.2,67.3,29.90,ENE,63,2.0,5.0,57,0.00,,---,0.00,VWS V14.01,2013-07-21 20:35:00,
2013-07-21 16:36:00,84.2,67.3,29.90,ENE,63,4.0,4.0,57,0.00,,---,0.00,VWS V14.01,2013-07-21 20:36:00,
2013-07-21 16:37:00,84.2,67.8,29.90,ENE,59,4.0,4.0,58,0.00,,---,0.00,VWS V14.01,2013-07-21 20:37:00,
2013-07-21 16:38:00,84.2,67.8,29.90,NE,54,0.0,5.0,58,0.00,,---,0.00,VWS V14.01,2013-07-21 20:38:00,
2013-07-21 16:39:00,84.2,68.3,29.90,NE,53,2.0,2.0,59,0.00,,---,0.00,VWS V14.01,2013-07-21 20:39:00,
2013-07-21 16:40:00,84.2,68.3,29.90,NE,53,2.0,2.0,59,0.00,,---,0.00,VWS V14.01,2013-07-21 20:40:00,
2013-07-21 16:41:00,84.2,67.8,29.90,WNW,295,1.0,5.0,58,0.00,,---,0.00,VWS V14.01,2013-07-21 20:41:00,
2013-07-21 16:42:00,84.2,67.3,29.90,NW,320,2.0,2.0,57,0.00,,---,0.00,VWS V14.01,2013-07-21 20:42:00,
2013-07-21 16:43:00,84.2,67.8,29.90,NW,320,0.0,2.0,58,0.00,,---,0.00,VWS V14.01,2013-07-21 20:43:00,
2013-07-21 16:44:00,84.2,67.8,29.90,NNW,328,2.0,2.0,58,0.00,,---,0.00,VWS V14.01,2013-07-21 20:44:00,
2013-07-21 16:45:00,84.2,67.8,29.90,NNW,328,2.0,2.0,58,0.00,,---,0.00,VWS V14.01,2013-07-21 20:45:00,
2013-07-21 16:46:00,84.2,66.8,29.90,ENE,63,6.0,7.0,56,0.00,,---,0.00,VWS V14.01,2013-07-21 20:46:00,
2013-07-21 16:47:00,84.1,65.7,29.90,NE,42,6.0,8.0,54,0.00,,---,0.00,VWS V14.01,2013-07-21 20:47:00,
2013-07-21 16:48:00,84.1,65.7,29.90,NE,35,1.0,7.0,54,0.00,,---,0.00,VWS V14.01,2013-07-21 20:48:00,
2013-07-21 16:49:00,84.1,66.2,29.90,NNE,17,2.0,6.0,55,0.00,,---,0.00,VWS V14.01,2013-07-21 20:49:00,
2013-07-21 16:50:00,84.1,66.2,29.90,NNE,17,2.0,6.0,55,0.00,,---,0.00,VWS V14.01,2013-07-21 20:50:00,
2013-07-21 16:51:00,84.1,66.2,29.90,NNE,17,2.0,4.0,55,0.00,,---,0.00,VWS V14.01,2013-07-21 20:51:00,
2013-07-21 16:52:00,84.1,67.2,29.90,NNE,17,1.0,4.0,57,0.00,,---,0.00,VWS V14.01,2013-07-21 20:52:00,
2013-07-21 16:53:00,84.1,67.2,29.90,NNE,17,0.0,1.0,57,0.00,,---,0.00,VWS V14.01,2013-07-21 20:53:00,
2013-07-21 16:54:00,84.0,66.6,29.90,NNE,17,5.0,6.0,56,0.00,,---,0.00,VWS V14.01,2013-07-21 20:54:00,
2013-07-21 16:55:00,84.0,66.6,29.90,NNE,17,5.0,6.0,56,0.00,,---,0.00,VWS V14.01,2013-07-21 20:55:00,
2013-07-21 16:56:00,84.0,66.6,29.90,NNE,17,4.0,5.0,56,0.00,,---,0.00,VWS V14.01,2013-07-21 20:56:00,
2013-07-21 16:57:00,84.0,66.6,29.90,NNE,17,4.0,5.0,56,0.00,,---,0.00,VWS V14.01,2013-07-21 20:57:00,
2013-07-21 16:58:00,84.0,66.6,29.90,NNE,17,0.0,4.0,56,0.00,,---,0.00,VWS V14.01,2013-07-21 20:58:00,
2013-07-21 16:59:00,83.9,67.1,29.90,NE,37,4.0,4.0,57,0.00,,---,0.00,VWS V14.01,2013-07-21 20:59:00,
2013-07-21 17:00:00,83.9,67.1,29.90,NE,37,4.0,4.0,57,0.00,,---,0.00,VWS V14.01,2013-07-21 21:00:00,
2013-07-21 17:01:00,84.0,66.6,29.90,NE,37,1.0,4.0,56,0.00,,---,0.00,VWS V14.01,2013-07-21 21:01:00,
2013-07-21 17:02:00,84.0,67.1,29.90,NNE,26,2.0,7.0,57,0.00,,---,0.00,VWS V14.01,2013-07-21 21:02:00,
2013-07-21 17:03:00,84.0,66.1,29.90,NNE,26,4.0,4.0,55,0.00,,---,0.00,VWS V14.01,2013-07-21 21:03:00,
2013-07-21 17:04:00,84.0,66.6,29.90,NNE,26,6.0,7.0,56,0.00,,---,0.00,VWS V14.01,2013-07-21 21:04:00,
2013-07-21 17:05:00,84.0,66.6,29.90,NNE,26,6.0,7.0,56,0.00,,---,0.00,VWS V14.01,2013-07-21 21:05:00,
2013-07-21 17:06:00,84.0,66.6,29.90,NNE,23,0.0,6.0,56,0.00,,---,0.00,VWS V14.01,2013-07-21 21:06:00,
2013-07-21 17:07:00,84.0,65.6,29.90,NE,38,5.0,7.0,54,0.00,,---,0.00,VWS V14.01,2013-07-21 21:07:00,
2013-07-21 17:08:00,83.9,66.0,29.90,NE,34,6.0,6.0,55,0.00,,---,0.00,VWS V14.01,2013-07-21 21:08:00,
2013-07-21 17:09:00,83.9,66.0,29.90,NE,34,2.0,6.0,55,0.00,,---,0.00,VWS V14.01,2013-07-21 21:09:00,
2013-07-21 17:10:00,83.9,66.0,29.90,NE,34,2.0,6.0,55,0.00,,---,0.00,VWS V14.01,2013-07-21 21:10:00,
2013-07-21 17:11:00,83.9,66.0,29.90,NE,34,0.0,5.0,55,0.00,,---,0.00,VWS V14.01,2013-07-21 21:11:00,
2013-07-21 17:12:00,83.9,66.0,29.90,NE,34,5.0,5.0,55,0.00,,---,0.00,VWS V14.01,2013-07-21 21:12:00,
2013-07-21 17:13:00,83.9,66.0,29.90,NNE,33,4.0,7.0,55,0.00,,---,0.00,VWS V14.01,2013-07-21 21:13:00,
2013-07-21 17:14:00,83.8,67.5,29.90,NNE,18,1.0,5.0,58,0.00,,---,0.00,VWS V14.01,2013-07-21 21:14:00,
2013-07-21 17:15:00,83.8,67.5,29.90,NNE,18,1.0,5.0,58,0.00,,---,0.00,VWS V14.01,2013-07-21 21:15:00,
2013-07-21 17:16:00,83.8,67.0,29.90,NE,37,0.0,6.0,57,0.00,,---,0.00,VWS V14.01,2013-07-21 21:16:00,
2013-07-21 17:17:00,83.8,67.0,29.90,ESE,105,4.0,7.0,57,0.00,,---,0.00,VWS V14.01,2013-07-21 21:17:00,
2013-07-21 17:18:00,83.7,66.9,29.90,East,89,5.0,5.0,57,0.00,,---,0.00,VWS V14.01,2013-07-21 21:18:00,
2013-07-21 17:19:00,83.6,67.8,29.90,NNE,17,4.0,4.0,59,0.00,,---,0.00,VWS V14.01,2013-07-21 21:19:00,
2013-07-21 17:20:00,83.6,67.8,29.90,NNE,17,4.0,7.0,59,0.00,,---,0.00,VWS V14.01,2013-07-21 21:20:00,
2013-07-21 17:21:00,83.5,68.2,29.90,NNE,13,1.0,6.0,60,0.00,,---,0.00,VWS V14.01,2013-07-21 21:21:00,
2013-07-21 17:22:00,83.4,67.1,29.90,ENE,63,0.0,2.0,58,0.00,,---,0.00,VWS V14.01,2013-07-21 21:22:00,
2013-07-21 17:23:00,83.3,67.0,29.90,North,355,2.0,3.0,58,0.00,,---,0.00,VWS V14.01,2013-07-21 21:23:00,
2013-07-21 17:24:00,83.2,66.9,29.90,NE,42,2.0,4.0,58,0.00,,---,0.00,VWS V14.01,2013-07-21 21:24:00,
2013-07-21 17:25:00,83.0,66.2,29.90,NNE,24,1.0,4.0,57,0.00,,---,0.00,VWS V14.01,2013-07-21 21:25:00,
2013-07-21 17:26:00,83.0,66.2,29.90,NNE,24,1.0,4.0,57,0.00,,---,0.00,VWS V14.01,2013-07-21 21:26:00,
2013-07-21 17:27:00,82.8,66.5,29.90,NE,51,1.0,4.0,58,0.00,,---,0.00,VWS V14.01,2013-07-21 21:27:00,
2013-07-21 17:28:00,82.7,66.4,29.90,NE,50,0.0,4.0,58,0.00,,---,0.00,VWS V14.01,2013-07-21 21:28:00,
2013-07-21 17:29:00,82.7,66.9,29.90,NE,50,4.0,5.0,59,0.00,,---,0.00,VWS V14.01,2013-07-21 21:29:00,
2013-07-21 17:30:00,82.5,66.7,29.90,NNE,29,0.0,5.0,59,0.00,,---,0.00,VWS V14.01,2013-07-21 21:30:00,
2013-07-21 17:31:00,82.5,66.7,29.90,NNE,29,0.0,5.0,59,0.00,,---,0.00,VWS V14.01,2013-07-21 21:31:00,
2013-07-21 17:32:00,82.4,67.6,29.90,NNE,29,0.0,1.0,61,0.00,,---,0.00,VWS V14.01,2013-07-21 21:32:00,
2013-07-21 17:33:00,82.4,67.1,29.90,NNE,26,6.0,6.0,60,0.00,,---,0.00,VWS V14.01,2013-07-21 21:33:00,
2013-07-21 17:34:00,82.3,67.0,29.90,NNE,29,6.0,6.0,60,0.00,,---,0.00,VWS V14.01,2013-07-21 21:34:00,
2013-07-21 17:35:00,82.1,66.8,29.90,NNE,15,2.0,5.0,60,0.00,,---,0.00,VWS V14.01,2013-07-21 21:35:00,
2013-07-21 17:36:00,82.1,66.8,29.90,NNE,15,2.0,5.0,60,0.00,,---,0.00,VWS V14.01,2013-07-21 21:36:00,
2013-07-21 17:37:00,82.1,66.8,29.89,NNE,23,0.0,2.0,60,0.00,,---,0.00,VWS V14.01,2013-07-21 21:37:00,
2013-07-21 17:38:00,82.1,66.8,29.89,NNE,23,0.0,2.0,60,0.00,,---,0.00,VWS V14.01,2013-07-21 21:38:00,
2013-07-21 17:39:00,82.0,66.8,29.90,NNE,18,0.0,5.0,60,0.00,,---,0.00,VWS V14.01,2013-07-21 21:39:00,
2013-07-21 17:40:00,82.0,66.8,29.89,NNE,17,5.0,5.0,60,0.00,,---,0.00,VWS V14.01,2013-07-21 21:40:00,
2013-07-21 17:41:00,82.0,66.8,29.89,NNE,17,5.0,5.0,60,0.00,,---,0.00,VWS V14.01,2013-07-21 21:41:00,
2013-07-21 17:42:00,82.0,66.8,29.89,NNE,17,1.0,5.0,60,0.00,,---,0.00,VWS V14.01,2013-07-21 21:42:00,
2013-07-21 17:43:00,82.0,67.2,29.89,NNE,17,1.0,1.0,61,0.00,,---,0.00,VWS V14.01,2013-07-21 21:43:00,
2013-07-21 17:44:00,82.0,67.2,29.90,NNE,16,4.0,6.0,61,0.00,,---,0.00,VWS V14.01,2013-07-21 21:44:00,
2013-07-21 17:45:00,81.9,67.1,29.90,North,6,0.0,2.0,61,0.00,,---,0.00,VWS V14.01,2013-07-21 21:45:00,
2013-07-21 17:46:00,81.9,67.1,29.90,North,6,0.0,2.0,61,0.00,,---,0.00,VWS V14.01,2013-07-21 21:46:00,
2013-07-21 17:47:00,81.9,68.1,29.90,North,6,2.0,4.0,63,0.00,,---,0.00,VWS V14.01,2013-07-21 21:47:00,
2013-07-21 17:48:00,81.9,67.6,29.90,North,6,0.0,2.0,62,0.00,,---,0.00,VWS V14.01,2013-07-21 21:48:00,
2013-07-21 17:49:00,81.8,68.0,29.90,North,6,0.0,2.0,63,0.00,,---,0.00,VWS V14.01,2013-07-21 21:49:00,
2013-07-21 17:50:00,81.8,68.4,29.90,North,6,1.0,6.0,64,0.00,,---,0.00,VWS V14.01,2013-07-21 21:50:00,
2013-07-21 17:51:00,81.8,67.1,29.89,NNE,30,6.0,6.0,61,0.00,,---,0.00,VWS V14.01,2013-07-21 21:51:00,
2013-07-21 17:52:00,81.8,67.1,29.89,NNE,21,5.0,6.0,61,0.00,,---,0.00,VWS V14.01,2013-07-21 21:52:00,
2013-07-21 17:53:00,81.7,66.9,29.89,NNE,23,4.0,5.0,61,0.00,,---,0.00,VWS V14.01,2013-07-21 21:53:00,
2013-07-21 17:54:00,81.6,67.8,29.89,NNE,30,5.0,5.0,63,0.00,,---,0.00,VWS V14.01,2013-07-21 21:54:00,
2013-07-21 17:55:00,81.6,67.8,29.89,NE,43,5.0,5.0,63,0.00,,---,0.00,VWS V14.01,2013-07-21 21:55:00,
2013-07-21 17:56:00,81.6,67.8,29.89,NE,43,0.0,1.0,63,0.00,,---,0.00,VWS V14.01,2013-07-21 21:56:00,
2013-07-21 17:57:00,81.6,67.8,29.89,NE,43,0.0,1.0,63,0.00,,---,0.00,VWS V14.01,2013-07-21 21:57:00,
2013-07-21 17:58:00,81.5,67.7,29.89,NNE,24,2.0,6.0,63,0.00,,---,0.00,VWS V14.01,2013-07-21 21:58:00,
2013-07-21 17:59:00,81.5,67.7,29.89,NNE,24,0.0,2.0,63,0.00,,---,0.00,VWS V14.01,2013-07-21 21:59:00,
2013-07-21 18:00:00,81.5,67.7,29.89,NNE,24,1.0,1.0,63,0.00,,---,0.00,VWS V14.01,2013-07-21 22:00:00,
2013-07-21 18:01:00,81.4,67.6,29.89,NNE,22,5.0,6.0,63,0.00,,---,0.00,VWS V14.01,2013-07-21 22:01:00,
2013-07-21 18:02:00,81.4,67.6,29.89,NNE,22,5.0,6.0,63,0.00,,---,0.00,VWS V14.01,2013-07-21 22:02:00,
2013-07-21 18:03:00,81.4,67.6,29.89,NNE,22,0.0,5.0,63,0.00,,---,0.00,VWS V14.01,2013-07-21 22:03:00,
2013-07-21 18:04:00,81.4,68.1,29.89,NNE,22,2.0,2.0,64,0.00,,---,0.00,VWS V14.01,2013-07-21 22:04:00,
2013-07-21 18:05:00,81.4,68.5,29.89,NE,36,0.0,5.0,65,0.00,,---,0.00,VWS V14.01,2013-07-21 22:05:00,
2013-07-21 18:06:00,81.3,68.4,29.89,NE,43,6.0,6.0,65,0.00,,---,0.00,VWS V14.01,2013-07-21 22:06:00,
2013-07-21 18:07:00,81.3,68.4,29.89,NE,43,6.0,6.0,65,0.00,,---,0.00,VWS V14.01,2013-07-21 22:07:00,
2013-07-21 18:08:00,81.4,68.1,29.89,NE,43,2.0,6.0,64,0.00,,---,0.00,VWS V14.01,2013-07-21 22:08:00,
2013-07-21 18:09:00,81.3,68.0,29.89,NE,43,0.0,2.0,64,0.00,,---,0.00,VWS V14.01,2013-07-21 22:09:00,
2013-07-21 18:10:00,81.3,68.0,29.89,NE,43,2.0,5.0,64,0.00,,---,0.00,VWS V14.01,2013-07-21 22:10:00,
2013-07-21 18:11:00,81.4,68.5,29.89,NE,43,0.0,0.0,65,0.00,,---,0.00,VWS V14.01,2013-07-21 22:11:00,
2013-07-21 18:12:00,81.4,68.5,29.89,NE,43,0.0,0.0,65,0.00,,---,0.00,VWS V14.01,2013-07-21 22:12:00,
2013-07-21 18:13:00,81.3,68.4,29.89,NE,43,1.0,1.0,65,0.00,,---,0.00,VWS V14.01,2013-07-21 22:13:00,
2013-07-21 18:14:00,81.3,68.9,29.90,NE,44,0.0,6.0,66,0.00,,---,0.00,VWS V14.01,2013-07-21 22:14:00,
2013-07-21 18:15:00,81.3,68.0,29.89,ENE,61,4.0,6.0,64,0.00,,---,0.00,VWS V14.01,2013-07-21 22:15:00,
2013-07-21 18:16:00,81.3,68.0,29.90,ENE,61,2.0,5.0,64,0.00,,---,0.00,VWS V14.01,2013-07-21 22:16:00,
2013-07-21 18:17:00,81.3,68.0,29.90,ENE,61,2.0,5.0,64,0.00,,---,0.00,VWS V14.01,2013-07-21 22:17:00,
2013-07-21 18:18:00,81.3,68.0,29.90,ENE,61,2.0,4.0,64,0.00,,---,0.00,VWS V14.01,2013-07-21 22:18:00,
2013-07-21 18:19:00,81.3,68.0,29.90,ENE,61,0.0,4.0,64,0.00,,---,0.00,VWS V14.01,2013-07-21 22:19:00,
2013-07-21 18:20:00,81.3,68.4,29.90,ENE,61,0.0,4.0,65,0.00,,---,0.00,VWS V14.01,2013-07-21 22:20:00,
2013-07-21 18:21:00,81.2,68.3,29.89,ENE,61,0.0,5.0,65,0.00,,---,0.00,VWS V14.01,2013-07-21 22:21:00,
2013-07-21 18:22:00,81.2,68.3,29.89,ENE,61,0.0,5.0,65,0.00,,---,0.00,VWS V14.01,2013-07-21 22:22:00,
2013-07-21 18:23:00,81.2,66.5,29.89,ENE,61,4.0,5.0,61,0.00,,---,0.00,VWS V14.01,2013-07-21 22:23:00,
2013-07-21 18:24:00,81.2,65.5,29.89,ENE,61,2.0,6.0,59,0.00,,---,0.00,VWS V14.01,2013-07-21 22:24:00,
2013-07-21 18:25:00,81.2,66.0,29.89,ENE,61,0.0,4.0,60,0.00,,---,0.00,VWS V14.01,2013-07-21 22:25:00,
2013-07-21 18:26:00,81.2,66.5,29.90,ENE,61,0.0,5.0,61,0.00,,---,0.00,VWS V14.01,2013-07-21 22:26:00,
2013-07-21 18:27:00,81.2,66.5,29.90,ENE,61,0.0,5.0,61,0.00,,---,0.00,VWS V14.01,2013-07-21 22:27:00,
2013-07-21 18:28:00,81.2,66.5,29.90,ENE,61,1.0,4.0,61,0.00,,---,0.00,VWS V14.01,2013-07-21 22:28:00,
2013-07-21 18:29:00,81.2,66.5,29.90,ENE,61,0.0,1.0,61,0.00,,---,0.00,VWS V14.01,2013-07-21 22:29:00,
2013-07-21 18:30:00,81.2,66.0,29.90,ENE,61,4.0,4.0,60,0.00,,---,0.00,VWS V14.01,2013-07-21 22:30:00,
2013-07-21 18:31:00,81.1,66.4,29.89,ENE,61,0.0,1.0,61,0.00,,---,0.00,VWS V14.01,2013-07-21 22:31:00,
2013-07-21 18:32:00,81.1,66.4,29.89,ENE,61,0.0,1.0,61,0.00,,---,0.00,VWS V14.01,2013-07-21 22:32:00,
2013-07-21 18:33:00,81.1,66.9,29.89,ENE,61,0.0,2.0,62,0.00,,---,0.00,VWS V14.01,2013-07-21 22:33:00,
2013-07-21 18:34:00,81.1,66.4,29.89,ENE,61,4.0,5.0,61,0.00,,---,0.00,VWS V14.01,2013-07-21 22:34:00,
2013-07-21 18:35:00,81.1,66.9,29.89,ENE,61,0.0,4.0,62,0.00,,---,0.00,VWS V14.01,2013-07-21 22:35:00,
2013-07-21 18:36:00,81.1,67.3,29.89,ENE,61,1.0,1.0,63,0.00,,---,0.00,VWS V14.01,2013-07-21 22:36:00,
2013-07-21 18:37:00,81.1,67.3,29.89,ENE,61,1.0,1.0,63,0.00,,---,0.00,VWS V14.01,2013-07-21 22:37:00,
2013-07-21 18:38:00,81.1,66.4,29.89,ENE,61,0.0,4.0,61,0.00,,---,0.00,VWS V14.01,2013-07-21 22:38:00,
2013-07-21 18:39:00,81.1,65.9,29.89,ENE,61,0.0,1.0,60,0.00,,---,0.00,VWS V14.01,2013-07-21 22:39:00,
2013-07-21 18:40:00,81.1,65.9,29.89,ENE,61,0.0,0.0,60,0.00,,---,0.00,VWS V14.01,2013-07-21 22:40:00,
2013-07-21 18:41:00,81.0,66.3,29.89,ENE,61,2.0,2.0,61,0.00,,---,0.00,VWS V14.01,2013-07-21 22:41:00,
2013-07-21 18:42:00,81.0,66.3,29.89,ENE,61,2.0,2.0,61,0.00,,---,0.00,VWS V14.01,2013-07-21 22:42:00,
2013-07-21 18:43:00,81.0,66.8,29.89,ENE,61,0.0,4.0,62,0.00,,---,0.00,VWS V14.01,2013-07-21 22:43:00,
2013-07-21 18:44:00,81.0,66.3,29.89,ENE,61,0.0,1.0,61,0.00,,---,0.00,VWS V14.01,2013-07-21 22:44:00,
2013-07-21 18:45:00,81.0,66.8,29.89,ENE,61,1.0,2.0,62,0.00,,---,0.00,VWS V14.01,2013-07-21 22:45:00,
2013-07-21 18:46:00,80.9,66.7,29.89,ENE,61,0.0,4.0,62,0.00,,---,0.00,VWS V14.01,2013-07-21 22:46:00,
2013-07-21 18:47:00,80.9,66.7,29.89,ENE,61,0.0,4.0,62,0.00,,---,0.00,VWS V14.01,2013-07-21 22:47:00,
2013-07-21 18:48:00,80.9,67.1,29.89,ENE,61,1.0,1.0,63,0.00,,---,0.00,VWS V14.01,2013-07-21 22:48:00,
2013-07-21 18:49:00,80.9,66.2,29.89,ENE,61,0.0,2.0,61,0.00,,---,0.00,VWS V14.01,2013-07-21 22:49:00,
2013-07-21 18:50:00,80.9,66.7,29.89,ENE,61,0.0,2.0,62,0.00,,---,0.00,VWS V14.01,2013-07-21 22:50:00,
2013-07-21 18:51:00,80.8,67.0,29.89,ENE,61,0.0,0.0,63,0.00,,---,0.00,VWS V14.01,2013-07-21 22:51:00,
2013-07-21 18:52:00,80.8,67.0,29.89,ENE,61,0.0,0.0,63,0.00,,---,0.00,VWS V14.01,2013-07-21 22:52:00,
2013-07-21 18:53:00,80.8,67.0,29.89,ENE,61,1.0,1.0,63,0.00,,---,0.00,VWS V14.01,2013-07-21 22:53:00,
2013-07-21 18:54:00,80.8,67.0,29.89,ENE,61,0.0,2.0,63,0.00,,---,0.00,VWS V14.01,2013-07-21 22:54:00,
2013-07-21 18:55:00,80.8,67.0,29.90,ENE,61,1.0,2.0,63,0.00,,---,0.00,VWS V14.01,2013-07-21 22:55:00,
2013-07-21 18:56:00,80.7,66.9,29.90,ENE,61,0.0,0.0,63,0.00,,---,0.00,VWS V14.01,2013-07-21 22:56:00,
2013-07-21 18:57:00,80.7,66.9,29.90,ENE,61,0.0,0.0,63,0.00,,---,0.00,VWS V14.01,2013-07-21 22:57:00,
2013-07-21 18:58:00,80.7,66.9,29.90,ENE,61,0.0,0.0,63,0.00,,---,0.00,VWS V14.01,2013-07-21 22:58:00,
2013-07-21 18:59:00,80.7,66.9,29.90,ENE,61,0.0,0.0,63,0.00,,---,0.00,VWS V14.01,2013-07-21 22:59:00,
2013-07-21 19:00:00,80.7,66.9,29.90,ENE,61,1.0,2.0,63,0.00,,---,0.00,VWS V14.01,2013-07-21 23:00:00,
2013-07-21 19:01:00,80.6,66.8,29.90,ENE,61,1.0,1.0,63,0.00,,---,0.00,VWS V14.01,2013-07-21 23:01:00,
2013-07-21 19:02:00,80.6,66.8,29.90,ENE,61,1.0,1.0,63,0.00,,---,0.00,VWS V14.01,2013-07-21 23:02:00,
2013-07-21 19:03:00,80.6,67.3,29.90,ENE,61,0.0,2.0,64,0.00,,---,0.00,VWS V14.01,2013-07-21 23:03:00,
2013-07-21 19:04:00,80.6,67.3,29.90,ENE,61,0.0,0.0,64,0.00,,---,0.00,VWS V14.01,2013-07-21 23:04:00,
2013-07-21 19:05:00,80.5,67.2,29.90,ENE,61,1.0,1.0,64,0.00,,---,0.00,VWS V14.01,2013-07-21 23:05:00,
2013-07-21 19:06:00,80.5,66.8,29.90,ENE,61,0.0,0.0,63,0.00,,---,0.00,VWS V14.01,2013-07-21 23:06:00,
2013-07-21 19:07:00,80.5,66.8,29.90,ENE,61,0.0,0.0,63,0.00,,---,0.00,VWS V14.01,2013-07-21 23:07:00,
2013-07-21 19:08:00,80.5,67.2,29.90,ENE,61,0.0,0.0,64,0.00,,---,0.00,VWS V14.01,2013-07-21 23:08:00,
2013-07-21 19:09:00,80.5,67.2,29.90,ENE,61,0.0,0.0,64,0.00,,---,0.00,VWS V14.01,2013-07-21 23:09:00,
2013-07-21 19:10:00,80.4,67.1,29.90,ENE,61,0.0,1.0,64,0.00,,---,0.00,VWS V14.01,2013-07-21 23:10:00,
2013-07-21 19:11:00,80.3,67.0,29.90,ENE,61,0.0,0.0,64,0.00,,---,0.00,VWS V14.01,2013-07-21 23:11:00,
2013-07-21 19:12:00,80.4,67.1,29.90,ENE,61,0.0,1.0,64,0.00,,---,0.00,VWS V14.01,2013-07-21 23:12:00,
2013-07-21 19:13:00,80.3,67.0,29.90,ENE,61,0.0,1.0,64,0.00,,---,0.00,VWS V14.01,2013-07-21 23:13:00,
2013-07-21 19:14:00,80.3,67.5,29.90,ENE,61,0.0,0.0,65,0.00,,---,0.00,VWS V14.01,2013-07-21 23:14:00,
2013-07-21 19:15:00,80.3,67.0,29.90,ENE,61,0.0,0.0,64,0.00,,---,0.00,VWS V14.01,2013-07-21 23:15:00,
2013-07-21 19:16:00,80.3,67.0,29.90,ENE,61,0.0,0.0,64,0.00,,---,0.00,VWS V14.01,2013-07-21 23:16:00,
2013-07-21 19:17:00,80.2,67.4,29.90,ENE,61,0.0,0.0,65,0.00,,---,0.00,VWS V14.01,2013-07-21 23:17:00,
2013-07-21 19:18:00,80.2,67.4,29.90,ENE,61,0.0,0.0,65,0.00,,---,0.00,VWS V14.01,2013-07-21 23:18:00,
2013-07-21 19:19:00,80.1,67.3,29.90,ENE,61,0.0,0.0,65,0.00,,---,0.00,VWS V14.01,2013-07-21 23:19:00,
2013-07-21 19:20:00,80.1,67.3,29.90,ENE,61,0.0,0.0,65,0.00,,---,0.00,VWS V14.01,2013-07-21 23:20:00,
2013-07-21 19:22:00,80.0,67.6,29.90,ENE,61,0.0,0.0,66,0.00,,---,0.00,VWS V14.01,2013-07-21 23:22:00,
2013-07-21 19:23:00,80.0,67.6,29.90,ENE,61,0.0,0.0,66,0.00,,---,0.00,VWS V14.01,2013-07-21 23:23:00,
2013-07-21 19:24:00,80.0,67.6,29.90,ENE,61,0.0,1.0,66,0.00,,---,0.00,VWS V14.01,2013-07-21 23:24:00,
2013-07-21 19:27:00,79.9,68.4,29.90,ENE,61,0.0,0.0,68,0.00,,---,0.00,VWS V14.01,2013-07-21 23:27:00,
2013-07-21 19:28:00,79.9,68.4,29.90,ENE,61,0.0,0.0,68,0.00,,---,0.00,VWS V14.01,2013-07-21 23:28:00,
2013-07-21 19:29:00,79.9,68.0,29.90,ENE,61,0.0,0.0,67,0.00,,---,0.00,VWS V14.01,2013-07-21 23:29:00,
2013-07-21 19:30:00,79.9,68.0,29.90,ENE,61,0.0,0.0,67,0.00,,---,0.00,VWS V14.01,2013-07-21 23:30:00,
2013-07-21 19:31:00,79.9,68.0,29.90,ENE,61,1.0,1.0,67,0.00,,---,0.00,VWS V14.01,2013-07-21 23:31:00,
2013-07-21 19:32:00,79.8,67.4,29.90,ENE,61,0.0,0.0,66,0.00,,---,0.00,VWS V14.01,2013-07-21 23:32:00,
2013-07-21 19:33:00,79.8,67.4,29.90,ENE,61,0.0,0.0,66,0.00,,---,0.00,VWS V14.01,2013-07-21 23:33:00,
2013-07-21 19:34:00,79.8,67.4,29.90,ENE,61,0.0,0.0,66,0.00,,---,0.00,VWS V14.01,2013-07-21 23:34:00,
2013-07-21 19:35:00,79.7,67.8,29.90,ENE,61,0.0,0.0,67,0.00,,---,0.00,VWS V14.01,2013-07-21 23:35:00,
2013-07-21 19:36:00,79.7,67.8,29.90,ENE,61,0.0,0.0,67,0.00,,---,0.00,VWS V14.01,2013-07-21 23:36:00,
2013-07-21 19:37:00,79.7,67.3,29.90,ENE,61,1.0,2.0,66,0.00,,---,0.00,VWS V14.01,2013-07-21 23:37:00,
2013-07-21 19:38:00,79.7,67.3,29.90,ENE,61,1.0,2.0,66,0.00,,---,0.00,VWS V14.01,2013-07-21 23:38:00,
2013-07-21 19:39:00,79.6,67.2,29.90,ENE,61,0.0,1.0,66,0.00,,---,0.00,VWS V14.01,2013-07-21 23:39:00,
2013-07-21 19:40:00,79.6,67.2,29.90,ENE,61,0.0,1.0,66,0.00,,---,0.00,VWS V14.01,2013-07-21 23:40:00,
2013-07-21 19:41:00,79.6,67.2,29.90,ENE,61,0.0,1.0,66,0.00,,---,0.00,VWS V14.01,2013-07-21 23:41:00,
2013-07-21 19:42:00,79.6,67.2,29.90,ENE,61,0.0,0.0,66,0.00,,---,0.00,VWS V14.01,2013-07-21 23:42:00,
2013-07-21 19:43:00,79.6,67.2,29.90,ENE,61,0.0,0.0,66,0.00,,---,0.00,VWS V14.01,2013-07-21 23:43:00,
2013-07-21 19:44:00,79.5,67.6,29.90,ENE,61,0.0,0.0,67,0.00,,---,0.00,VWS V14.01,2013-07-21 23:44:00,
2013-07-21 19:45:00,79.5,67.6,29.90,ENE,61,0.0,0.0,67,0.00,,---,0.00,VWS V14.01,2013-07-21 23:45:00,
2013-07-21 19:46:00,79.5,67.6,29.90,ENE,61,0.0,0.0,67,0.00,,---,0.00,VWS V14.01,2013-07-21 23:46:00,
2013-07-21 19:47:00,79.4,67.5,29.90,ENE,61,0.0,0.0,67,0.00,,---,0.00,VWS V14.01,2013-07-21 23:47:00,
2013-07-21 19:48:00,79.4,67.5,29.90,ENE,61,0.0,0.0,67,0.00,,---,0.00,VWS V14.01,2013-07-21 23:48:00,
2013-07-21 19:49:00,79.4,67.5,29.90,ENE,61,0.0,0.0,67,0.00,,---,0.00,VWS V14.01,2013-07-21 23:49:00,
2013-07-21 19:50:00,79.4,67.5,29.90,ENE,61,0.0,0.0,67,0.00,,---,0.00,VWS V14.01,2013-07-21 23:50:00,
2013-07-21 19:51:00,79.4,67.5,29.90,ENE,61,0.0,0.0,67,0.00,,---,0.00,VWS V14.01,2013-07-21 23:51:00,
2013-07-21 19:52:00,79.3,67.4,29.90,ENE,61,0.0,0.0,67,0.00,,---,0.00,VWS V14.01,2013-07-21 23:52:00,
2013-07-21 19:53:00,79.3,67.4,29.90,ENE,61,0.0,0.0,67,0.00,,---,0.00,VWS V14.01,2013-07-21 23:53:00,
2013-07-21 19:54:00,79.3,67.4,29.90,ENE,61,0.0,0.0,67,0.00,,---,0.00,VWS V14.01,2013-07-21 23:54:00,
2013-07-21 19:55:00,79.2,67.7,29.90,ENE,61,0.0,0.0,68,0.00,,---,0.00,VWS V14.01,2013-07-21 23:55:00,
2013-07-21 19:56:00,79.2,67.7,29.90,ENE,61,0.0,0.0,68,0.00,,---,0.00,VWS V14.01,2013-07-21 23:56:00,
2013-07-21 19:57:00,79.1,68.1,29.90,ENE,61,0.0,0.0,69,0.00,,---,0.00,VWS V14.01,2013-07-21 23:57:00,
2013-07-21 19:58:00,79.1,67.6,29.90,ENE,61,0.0,0.0,68,0.00,,---,0.00,VWS V14.01,2013-07-21 23:58:00,
2013-07-21 19:59:00,79.1,67.6,29.90,ENE,61,0.0,0.0,68,0.00,,---,0.00,VWS V14.01,2013-07-21 23:59:00,
2013-07-21 20:00:00,79.1,68.1,29.90,ENE,61,0.0,0.0,69,0.00,,---,0.00,VWS V14.01,2013-07-22 00:00:00,
2013-07-21 20:01:00,79.0,68.0,29.90,ENE,61,0.0,0.0,69,0.00,,---,0.00,VWS V14.01,2013-07-22 00:01:00,
2013-07-21 20:02:00,79.0,68.0,29.90,ENE,61,0.0,0.0,69,0.00,,---,0.00,VWS V14.01,2013-07-22 00:02:00,
2013-07-21 20:03:00,78.9,67.9,29.89,ENE,61,0.0,0.0,69,0.00,,---,0.00,VWS V14.01,2013-07-22 00:03:00,
2013-07-21 20:04:00,78.9,67.9,29.89,ENE,61,0.0,0.0,69,0.00,,---,0.00,VWS V14.01,2013-07-22 00:04:00,
2013-07-21 20:05:00,78.9,67.9,29.89,ENE,61,0.0,0.0,69,0.00,,---,0.00,VWS V14.01,2013-07-22 00:05:00,
2013-07-21 20:06:00,78.9,68.3,29.89,ENE,61,0.0,0.0,70,0.00,,---,0.00,VWS V14.01,2013-07-22 00:06:00,
2013-07-21 20:07:00,78.8,68.2,29.89,ENE,61,0.0,0.0,70,0.00,,---,0.00,VWS V14.01,2013-07-22 00:07:00,
2013-07-21 20:08:00,78.8,68.6,29.90,ENE,61,0.0,0.0,71,0.00,,---,0.00,VWS V14.01,2013-07-22 00:08:00,
2013-07-21 20:09:00,78.7,68.5,29.90,ENE,61,0.0,0.0,71,0.00,,---,0.00,VWS V14.01,2013-07-22 00:09:00,
2013-07-21 20:10:00,78.7,68.5,29.90,ENE,61,0.0,2.0,71,0.00,,---,0.00,VWS V14.01,2013-07-22 00:10:00,
2013-07-21 20:11:00,78.7,68.9,29.90,ENE,61,0.0,0.0,72,0.00,,---,0.00,VWS V14.01,2013-07-22 00:11:00,
2013-07-21 20:12:00,78.7,69.3,29.90,ENE,61,0.0,0.0,73,0.00,,---,0.00,VWS V14.01,2013-07-22 00:12:00,
2013-07-21 20:13:00,78.7,69.7,29.90,ENE,61,0.0,0.0,74,0.00,,---,0.00,VWS V14.01,2013-07-22 00:13:00,
2013-07-21 20:14:00,78.6,70.0,29.90,ENE,61,0.0,0.0,75,0.00,,---,0.00,VWS V14.01,2013-07-22 00:14:00,
2013-07-21 20:15:00,78.6,70.0,29.90,ENE,61,0.0,0.0,75,0.00,,---,0.00,VWS V14.01,2013-07-22 00:15:00,
2013-07-21 20:16:00,78.6,70.0,29.90,ENE,61,0.0,0.0,75,0.00,,---,0.00,VWS V14.01,2013-07-22 00:16:00,
2013-07-21 20:17:00,78.5,69.9,29.90,ENE,61,0.0,0.0,75,0.00,,---,0.00,VWS V14.01,2013-07-22 00:17:00,
2013-07-21 20:18:00,78.5,70.3,29.90,ENE,61,0.0,0.0,76,0.00,,---,0.00,VWS V14.01,2013-07-22 00:18:00,
2013-07-21 20:19:00,78.5,70.7,29.90,ENE,61,0.0,0.0,77,0.00,,---,0.00,VWS V14.01,2013-07-22 00:19:00,
2013-07-21 20:20:00,78.5,70.7,29.90,ENE,61,0.0,0.0,77,0.00,,---,0.00,VWS V14.01,2013-07-22 00:20:00,
2013-07-21 20:21:00,78.5,70.7,29.90,ENE,61,1.0,4.0,77,0.00,,---,0.00,VWS V14.01,2013-07-22 00:21:00,
2013-07-21 20:22:00,78.4,70.6,29.90,ENE,61,0.0,1.0,77,0.00,,---,0.00,VWS V14.01,2013-07-22 00:22:00,
2013-07-21 20:23:00,78.4,70.6,29.90,ENE,61,0.0,0.0,77,0.00,,---,0.00,VWS V14.01,2013-07-22 00:23:00,
2013-07-21 20:24:00,78.4,71.0,29.90,ENE,61,0.0,0.0,78,0.00,,---,0.00,VWS V14.01,2013-07-22 00:24:00,
2013-07-21 20:25:00,78.4,71.0,29.90,ENE,61,0.0,0.0,78,0.00,,---,0.00,VWS V14.01,2013-07-22 00:25:00,
2013-07-21 20:26:00,78.3,70.9,29.90,ENE,61,0.0,0.0,78,0.00,,---,0.00,VWS V14.01,2013-07-22 00:26:00,
2013-07-21 20:27:00,78.3,70.9,29.90,ENE,61,0.0,1.0,78,0.00,,---,0.00,VWS V14.01,2013-07-22 00:27:00,
2013-07-21 20:28:00,78.3,70.9,29.90,ENE,61,0.0,0.0,78,0.00,,---,0.00,VWS V14.01,2013-07-22 00:28:00,
2013-07-21 20:29:00,78.2,70.8,29.90,ENE,61,0.0,0.0,78,0.00,,---,0.00,VWS V14.01,2013-07-22 00:29:00,
2013-07-21 20:30:00,78.2,70.8,29.90,ENE,61,0.0,0.0,78,0.00,,---,0.00,VWS V14.01,2013-07-22 00:30:00,
2013-07-21 20:31:00,78.2,70.8,29.90,ENE,61,0.0,1.0,78,0.00,,---,0.00,VWS V14.01,2013-07-22 00:31:00,
2013-07-21 20:32:00,78.1,70.7,29.90,ENE,61,1.0,1.0,78,0.00,,---,0.00,VWS V14.01,2013-07-22 00:32:00,
2013-07-21 20:33:00,78.1,71.1,29.90,ENE,61,0.0,1.0,79,0.00,,---,0.00,VWS V14.01,2013-07-22 00:33:00,
2013-07-21 20:34:00,78.0,71.0,29.90,ENE,61,0.0,0.0,79,0.00,,---,0.00,VWS V14.01,2013-07-22 00:34:00,
2013-07-21 20:35:00,78.0,71.0,29.90,ENE,61,0.0,0.0,79,0.00,,---,0.00,VWS V14.01,2013-07-22 00:35:00,
2013-07-21 20:36:00,78.0,71.0,29.90,ENE,61,0.0,0.0,79,0.00,,---,0.00,VWS V14.01,2013-07-22 00:36:00,
2013-07-21 20:37:00,78.0,71.0,29.90,ENE,61,0.0,1.0,79,0.00,,---,0.00,VWS V14.01,2013-07-22 00:37:00,
2013-07-21 20:38:00,77.9,70.9,29.90,ENE,61,0.0,1.0,79,0.00,,---,0.00,VWS V14.01,2013-07-22 00:38:00,
2013-07-21 20:39:00,77.9,70.9,29.90,ENE,61,0.0,0.0,79,0.00,,---,0.00,VWS V14.01,2013-07-22 00:39:00,
2013-07-21 20:40:00,77.9,70.9,29.90,ENE,61,0.0,0.0,79,0.00,,---,0.00,VWS V14.01,2013-07-22 00:40:00,
2013-07-21 20:41:00,77.8,71.1,29.90,ENE,61,0.0,0.0,80,0.00,,---,0.00,VWS V14.01,2013-07-22 00:41:00,
2013-07-21 20:42:00,77.8,71.1,29.90,ENE,61,0.0,0.0,80,0.00,,---,0.00,VWS V14.01,2013-07-22 00:42:00,
2013-07-21 20:43:00,77.8,71.1,29.91,ENE,61,0.0,4.0,80,0.00,,---,0.00,VWS V14.01,2013-07-22 00:43:00,
2013-07-21 20:44:00,77.7,71.0,29.91,ENE,61,0.0,1.0,80,0.00,,---,0.00,VWS V14.01,2013-07-22 00:44:00,
2013-07-21 20:45:00,77.7,71.0,29.91,ENE,61,0.0,0.0,80,0.00,,---,0.00,VWS V14.01,2013-07-22 00:45:00,
2013-07-21 20:46:00,77.7,71.0,29.91,ENE,61,0.0,1.0,80,0.00,,---,0.00,VWS V14.01,2013-07-22 00:46:00,
2013-07-21 20:47:00,77.6,70.9,29.91,ENE,61,0.0,0.0,80,0.00,,---,0.00,VWS V14.01,2013-07-22 00:47:00,
2013-07-21 20:48:00,77.6,70.9,29.91,ENE,61,0.0,2.0,80,0.00,,---,0.00,VWS V14.01,2013-07-22 00:48:00,
2013-07-21 20:49:00,77.6,70.9,29.91,ENE,61,0.0,1.0,80,0.00,,---,0.00,VWS V14.01,2013-07-22 00:49:00,
2013-07-21 20:50:00,77.5,71.2,29.91,ENE,61,0.0,0.0,81,0.00,,---,0.00,VWS V14.01,2013-07-22 00:50:00,
2013-07-21 20:51:00,77.5,71.2,29.91,ENE,61,0.0,0.0,81,0.00,,---,0.00,VWS V14.01,2013-07-22 00:51:00,
2013-07-21 20:52:00,77.5,71.2,29.91,ENE,61,0.0,0.0,81,0.00,,---,0.00,VWS V14.01,2013-07-22 00:52:00,
2013-07-21 20:53:00,77.4,71.1,29.91,ENE,61,4.0,4.0,81,0.00,,---,0.00,VWS V14.01,2013-07-22 00:53:00,
2013-07-21 20:54:00,77.4,71.1,29.91,ENE,61,0.0,4.0,81,0.00,,---,0.00,VWS V14.01,2013-07-22 00:54:00,
2013-07-21 20:55:00,77.4,71.1,29.91,ENE,61,0.0,0.0,81,0.00,,---,0.00,VWS V14.01,2013-07-22 00:55:00,
2013-07-21 20:56:00,77.4,71.1,29.91,ENE,61,0.0,0.0,81,0.00,,---,0.00,VWS V14.01,2013-07-22 00:56:00,
2013-07-21 20:57:00,77.3,71.0,29.91,ENE,61,0.0,0.0,81,0.00,,---,0.00,VWS V14.01,2013-07-22 00:57:00,
2013-07-21 20:58:00,77.3,71.0,29.91,ENE,61,0.0,0.0,81,0.00,,---,0.00,VWS V14.01,2013-07-22 00:58:00,
2013-07-21 20:59:00,77.3,71.0,29.91,ENE,61,0.0,0.0,81,0.00,,---,0.00,VWS V14.01,2013-07-22 00:59:00,
2013-07-21 21:00:00,77.2,70.9,29.91,ENE,61,0.0,0.0,81,0.00,,---,0.00,VWS V14.01,2013-07-22 01:00:00,
2013-07-21 21:01:00,77.2,70.9,29.91,ENE,61,0.0,0.0,81,0.00,,---,0.00,VWS V14.01,2013-07-22 01:01:00,
2013-07-21 21:02:00,77.2,70.9,29.91,ENE,61,0.0,0.0,81,0.00,,---,0.00,VWS V14.01,2013-07-22 01:02:00,
2013-07-21 21:03:00,77.1,70.8,29.91,ENE,61,0.0,0.0,81,0.00,,---,0.00,VWS V14.01,2013-07-22 01:03:00,
2013-07-21 21:04:00,77.1,70.8,29.91,ENE,61,0.0,0.0,81,0.00,,---,0.00,VWS V14.01,2013-07-22 01:04:00,
2013-07-21 21:05:00,77.0,70.7,29.92,ENE,61,0.0,0.0,81,0.00,,---,0.00,VWS V14.01,2013-07-22 01:05:00,
2013-07-21 21:06:00,77.0,70.7,29.92,ENE,61,0.0,0.0,81,0.00,,---,0.00,VWS V14.01,2013-07-22 01:06:00,
2013-07-21 21:07:00,77.0,70.7,29.92,ENE,61,0.0,0.0,81,0.00,,---,0.00,VWS V14.01,2013-07-22 01:07:00,
2013-07-21 21:08:00,77.0,70.7,29.92,ENE,61,0.0,0.0,81,0.00,,---,0.00,VWS V14.01,2013-07-22 01:08:00,
2013-07-21 21:09:00,77.0,71.1,29.92,ENE,61,0.0,0.0,82,0.00,,---,0.00,VWS V14.01,2013-07-22 01:09:00,
2013-07-21 21:10:00,76.9,71.0,29.92,ENE,61,0.0,0.0,82,0.00,,---,0.00,VWS V14.01,2013-07-22 01:10:00,
2013-07-21 21:11:00,76.9,71.0,29.92,ENE,61,0.0,0.0,82,0.00,,---,0.00,VWS V14.01,2013-07-22 01:11:00,
2013-07-21 21:12:00,76.9,71.0,29.92,ENE,61,0.0,0.0,82,0.00,,---,0.00,VWS V14.01,2013-07-22 01:12:00,
2013-07-21 21:13:00,76.9,71.0,29.92,ENE,61,0.0,0.0,82,0.00,,---,0.00,VWS V14.01,2013-07-22 01:13:00,
2013-07-21 21:14:00,76.8,70.9,29.92,ENE,61,0.0,0.0,82,0.00,,---,0.00,VWS V14.01,2013-07-22 01:14:00,
2013-07-21 21:15:00,76.8,70.9,29.92,ENE,61,0.0,0.0,82,0.00,,---,0.00,VWS V14.01,2013-07-22 01:15:00,
2013-07-21 21:16:00,76.8,70.9,29.92,ENE,61,0.0,0.0,82,0.00,,---,0.00,VWS V14.01,2013-07-22 01:16:00,
2013-07-21 21:17:00,76.7,70.8,29.92,ENE,61,0.0,0.0,82,0.00,,---,0.00,VWS V14.01,2013-07-22 01:17:00,
2013-07-21 21:18:00,76.7,70.8,29.92,ENE,61,0.0,1.0,82,0.00,,---,0.00,VWS V14.01,2013-07-22 01:18:00,
2013-07-21 21:19:00,76.6,71.1,29.92,ENE,61,0.0,0.0,83,0.00,,---,0.00,VWS V14.01,2013-07-22 01:19:00,
2013-07-21 21:20:00,76.6,71.1,29.93,ENE,61,0.0,0.0,83,0.00,,---,0.00,VWS V14.01,2013-07-22 01:20:00,
2013-07-21 21:21:00,76.6,71.1,29.93,ENE,61,0.0,0.0,83,0.00,,---,0.00,VWS V14.01,2013-07-22 01:21:00,
2013-07-21 21:22:00,76.6,71.1,29.93,ENE,61,0.0,1.0,83,0.00,,---,0.00,VWS V14.01,2013-07-22 01:22:00,
2013-07-21 21:23:00,76.5,71.0,29.93,ENE,61,0.0,0.0,83,0.00,,---,0.00,VWS V14.01,2013-07-22 01:23:00,
2013-07-21 21:24:00,76.5,71.0,29.93,ENE,61,0.0,0.0,83,0.00,,---,0.00,VWS V14.01,2013-07-22 01:24:00,
2013-07-21 21:25:00,76.5,71.3,29.93,ENE,61,0.0,0.0,84,0.00,,---,0.00,VWS V14.01,2013-07-22 01:25:00,
2013-07-21 21:26:00,76.5,71.3,29.93,ENE,61,0.0,0.0,84,0.00,,---,0.00,VWS V14.01,2013-07-22 01:26:00,
2013-07-21 21:27:00,76.5,71.3,29.93,ENE,61,0.0,1.0,84,0.00,,---,0.00,VWS V14.01,2013-07-22 01:27:00,
2013-07-21 21:28:00,76.5,71.3,29.93,ENE,61,0.0,0.0,84,0.00,,---,0.00,VWS V14.01,2013-07-22 01:28:00,
2013-07-21 21:29:00,76.4,71.2,29.93,ENE,61,0.0,0.0,84,0.00,,---,0.00,VWS V14.01,2013-07-22 01:29:00,
2013-07-21 21:30:00,76.4,71.2,29.93,ENE,61,0.0,0.0,84,0.00,,---,0.00,VWS V14.01,2013-07-22 01:30:00,
2013-07-21 21:31:00,76.4,71.2,29.93,ENE,61,0.0,0.0,84,0.00,,---,0.00,VWS V14.01,2013-07-22 01:31:00,
2013-07-21 21:32:00,76.4,71.2,29.93,ENE,61,0.0,0.0,84,0.00,,---,0.00,VWS V14.01,2013-07-22 01:32:00,
2013-07-21 21:33:00,76.4,71.2,29.93,ENE,61,0.0,1.0,84,0.00,,---,0.00,VWS V14.01,2013-07-22 01:33:00,
2013-07-21 21:34:00,76.4,71.2,29.93,ENE,61,0.0,1.0,84,0.00,,---,0.00,VWS V14.01,2013-07-22 01:34:00,
2013-07-21 21:35:00,76.3,71.1,29.93,ENE,61,0.0,0.0,84,0.00,,---,0.00,VWS V14.01,2013-07-22 01:35:00,
2013-07-21 21:36:00,76.3,71.1,29.93,ENE,61,0.0,0.0,84,0.00,,---,0.00,VWS V14.01,2013-07-22 01:36:00,
2013-07-21 21:37:00,76.3,71.1,29.93,ENE,61,0.0,0.0,84,0.00,,---,0.00,VWS V14.01,2013-07-22 01:37:00,
2013-07-21 21:38:00,76.2,71.0,29.93,ENE,61,0.0,0.0,84,0.00,,---,0.00,VWS V14.01,2013-07-22 01:38:00,
2013-07-21 21:39:00,76.2,71.0,29.93,ENE,61,0.0,0.0,84,0.00,,---,0.00,VWS V14.01,2013-07-22 01:39:00,
2013-07-21 21:40:00,76.2,71.0,29.93,ENE,61,1.0,1.0,84,0.00,,---,0.00,VWS V14.01,2013-07-22 01:40:00,
2013-07-21 21:41:00,76.2,71.0,29.93,ENE,61,1.0,1.0,84,0.00,,---,0.00,VWS V14.01,2013-07-22 01:41:00,
2013-07-21 21:42:00,76.2,71.0,29.93,ENE,61,0.0,1.0,84,0.00,,---,0.00,VWS V14.01,2013-07-22 01:42:00,
2013-07-21 21:43:00,76.2,71.0,29.93,ENE,61,0.0,0.0,84,0.00,,---,0.00,VWS V14.01,2013-07-22 01:43:00,
2013-07-21 21:44:00,76.2,71.0,29.93,ENE,61,0.0,0.0,84,0.00,,---,0.00,VWS V14.01,2013-07-22 01:44:00,
2013-07-21 21:45:00,76.1,70.9,29.93,ENE,61,0.0,0.0,84,0.00,,---,0.00,VWS V14.01,2013-07-22 01:45:00,
2013-07-21 21:46:00,76.1,70.9,29.93,ENE,61,0.0,0.0,84,0.00,,---,0.00,VWS V14.01,2013-07-22 01:46:00,
2013-07-21 21:48:00,76.1,70.6,29.94,ENE,61,0.0,0.0,83,0.00,,---,0.00,VWS V14.01,2013-07-22 01:48:00,
2013-07-21 21:49:00,76.0,70.8,29.94,ENE,61,0.0,0.0,84,0.00,,---,0.00,VWS V14.01,2013-07-22 01:49:00,
2013-07-21 21:50:00,76.0,70.8,29.94,ENE,61,0.0,0.0,84,0.00,,---,0.00,VWS V14.01,2013-07-22 01:50:00,
2013-07-21 21:51:00,76.0,70.8,29.94,ENE,61,0.0,0.0,84,0.00,,---,0.00,VWS V14.01,2013-07-22 01:51:00,
2013-07-21 21:53:00,76.0,70.8,29.94,ENE,61,0.0,1.0,84,0.00,,---,0.00,VWS V14.01,2013-07-22 01:53:00,
2013-07-21 21:55:00,75.9,71.1,29.94,ENE,61,1.0,1.0,85,0.00,,---,0.00,VWS V14.01,2013-07-22 01:55:00,
2013-07-21 21:56:00,75.9,71.1,29.94,ENE,61,1.0,1.0,85,0.00,,---,0.00,VWS V14.01,2013-07-22 01:56:00,
2013-07-21 21:58:00,75.9,71.1,29.94,ENE,61,0.0,2.0,85,0.00,,---,0.00,VWS V14.01,2013-07-22 01:58:00,
2013-07-21 22:00:00,75.8,71.3,29.94,ESE,103,2.0,2.0,86,0.00,,---,0.00,VWS V14.01,2013-07-22 02:00:00,
2013-07-21 22:01:00,75.8,71.3,29.94,ESE,103,2.0,2.0,86,0.00,,---,0.00,VWS V14.01,2013-07-22 02:01:00,
2013-07-21 22:02:00,75.8,71.3,29.94,ESE,103,0.0,2.0,86,0.00,,---,0.00,VWS V14.01,2013-07-22 02:02:00,
2013-07-21 22:03:00,75.8,71.3,29.94,ESE,105,0.0,3.0,86,0.00,,---,0.00,VWS V14.01,2013-07-22 02:03:00,
2013-07-21 22:04:00,75.8,71.3,29.94,ESE,105,0.0,1.0,86,0.00,,---,0.00,VWS V14.01,2013-07-22 02:04:00,
2013-07-21 22:05:00,75.7,71.2,29.94,ESE,105,0.0,0.0,86,0.00,,---,0.00,VWS V14.01,2013-07-22 02:05:00,
2013-07-21 22:06:00,75.7,71.2,29.94,ESE,105,0.0,0.0,86,0.00,,---,0.00,VWS V14.01,2013-07-22 02:06:00,
2013-07-21 22:07:00,75.7,71.6,29.94,ESE,105,0.0,0.0,87,0.00,,---,0.00,VWS V14.01,2013-07-22 02:07:00,
2013-07-21 22:08:00,75.7,71.6,29.94,ESE,105,0.0,0.0,87,0.00,,---,0.00,VWS V14.01,2013-07-22 02:08:00,
2013-07-21 22:09:00,75.7,71.6,29.94,ESE,105,0.0,0.0,87,0.00,,---,0.00,VWS V14.01,2013-07-22 02:09:00,
2013-07-21 22:10:00,75.6,71.5,29.94,ESE,105,0.0,2.0,87,0.00,,---,0.00,VWS V14.01,2013-07-22 02:10:00,
2013-07-21 22:11:00,75.6,71.5,29.94,ESE,105,0.0,2.0,87,0.00,,---,0.00,VWS V14.01,2013-07-22 02:11:00,
2013-07-21 22:12:00,75.6,71.5,29.94,ESE,105,0.0,2.0,87,0.00,,---,0.00,VWS V14.01,2013-07-22 02:12:00,
2013-07-21 22:13:00,75.6,71.5,29.94,ESE,105,0.0,0.0,87,0.00,,---,0.00,VWS V14.01,2013-07-22 02:13:00,
2013-07-21 22:14:00,75.5,71.4,29.94,ESE,105,0.0,1.0,87,0.00,,---,0.00,VWS V14.01,2013-07-22 02:14:00,
2013-07-21 22:15:00,75.5,71.4,29.94,ESE,105,0.0,0.0,87,0.00,,---,0.00,VWS V14.01,2013-07-22 02:15:00,
2013-07-21 22:16:00,75.5,71.4,29.94,ESE,105,0.0,0.0,87,0.00,,---,0.00,VWS V14.01,2013-07-22 02:16:00,
2013-07-21 22:17:00,75.5,71.4,29.94,ESE,105,0.0,0.0,87,0.00,,---,0.00,VWS V14.01,2013-07-22 02:17:00,
2013-07-21 22:18:00,75.5,71.7,29.94,ESE,105,0.0,0.0,88,0.00,,---,0.00,VWS V14.01,2013-07-22 02:18:00,
2013-07-21 22:19:00,75.5,71.4,29.94,ESE,105,0.0,0.0,87,0.00,,---,0.00,VWS V14.01,2013-07-22 02:19:00,
2013-07-21 22:20:00,75.4,71.6,29.93,ESE,105,0.0,0.0,88,0.00,,---,0.00,VWS V14.01,2013-07-22 02:20:00,
2013-07-21 22:21:00,75.4,71.6,29.93,ESE,105,0.0,0.0,88,0.00,,---,0.00,VWS V14.01,2013-07-22 02:21:00,
2013-07-21 22:22:00,75.4,71.6,29.93,ESE,105,0.0,1.0,88,0.00,,---,0.00,VWS V14.01,2013-07-22 02:22:00,
2013-07-21 22:23:00,75.3,71.5,29.93,ESE,105,0.0,0.0,88,0.00,,---,0.00,VWS V14.01,2013-07-22 02:23:00,
2013-07-21 22:24:00,75.3,71.5,29.93,ESE,105,0.0,0.0,88,0.00,,---,0.00,VWS V14.01,2013-07-22 02:24:00,
2013-07-21 22:25:00,75.3,71.5,29.93,ESE,105,0.0,0.0,88,0.00,,---,0.00,VWS V14.01,2013-07-22 02:25:00,
2013-07-21 22:26:00,75.3,71.5,29.93,ESE,105,0.0,0.0,88,0.00,,---,0.00,VWS V14.01,2013-07-22 02:26:00,
2013-07-21 22:27:00,75.2,71.4,29.93,ESE,105,0.0,0.0,88,0.00,,---,0.00,VWS V14.01,2013-07-22 02:27:00,
2013-07-21 22:28:00,75.2,71.4,29.94,ESE,105,0.0,0.0,88,0.00,,---,0.00,VWS V14.01,2013-07-22 02:28:00,
2013-07-21 22:29:00,75.2,71.4,29.94,ESE,105,0.0,0.0,88,0.00,,---,0.00,VWS V14.01,2013-07-22 02:29:00,
2013-07-21 22:30:00,75.1,71.3,29.93,ESE,105,0.0,0.0,88,0.00,,---,0.00,VWS V14.01,2013-07-22 02:30:00,
2013-07-21 22:31:00,75.1,71.3,29.93,ESE,105,0.0,0.0,88,0.00,,---,0.00,VWS V14.01,2013-07-22 02:31:00,
2013-07-21 22:32:00,75.1,71.3,29.93,ESE,105,0.0,0.0,88,0.00,,---,0.00,VWS V14.01,2013-07-22 02:32:00,
2013-07-21 22:33:00,75.1,71.3,29.93,ESE,105,0.0,0.0,88,0.00,,---,0.00,VWS V14.01,2013-07-22 02:33:00,
2013-07-21 22:34:00,75.0,71.2,29.93,ESE,105,0.0,0.0,88,0.00,,---,0.00,VWS V14.01,2013-07-22 02:34:00,
2013-07-21 22:35:00,75.0,71.2,29.93,ESE,105,0.0,0.0,88,0.00,,---,0.00,VWS V14.01,2013-07-22 02:35:00,
2013-07-21 22:36:00,74.9,71.4,29.93,ESE,105,0.0,0.0,89,0.00,,---,0.00,VWS V14.01,2013-07-22 02:36:00,
2013-07-21 22:37:00,74.9,71.4,29.93,ESE,105,0.0,0.0,89,0.00,,---,0.00,VWS V14.01,2013-07-22 02:37:00,
2013-07-21 22:38:00,74.9,71.4,29.93,ESE,105,0.0,0.0,89,0.00,,---,0.00,VWS V14.01,2013-07-22 02:38:00,
2013-07-21 22:39:00,74.9,71.4,29.93,ESE,105,0.0,0.0,89,0.00,,---,0.00,VWS V14.01,2013-07-22 02:39:00,
2013-07-21 22:40:00,74.8,71.3,29.93,ESE,105,0.0,0.0,89,0.00,,---,0.00,VWS V14.01,2013-07-22 02:40:00,
2013-07-21 22:41:00,74.8,71.3,29.93,ESE,105,0.0,0.0,89,0.00,,---,0.00,VWS V14.01,2013-07-22 02:41:00,
2013-07-21 22:42:00,74.8,71.3,29.93,ESE,105,0.0,0.0,89,0.00,,---,0.00,VWS V14.01,2013-07-22 02:42:00,
2013-07-21 22:43:00,74.8,71.3,29.93,ESE,105,0.0,0.0,89,0.00,,---,0.00,VWS V14.01,2013-07-22 02:43:00,
2013-07-21 22:44:00,74.7,71.2,29.93,ESE,105,0.0,0.0,89,0.00,,---,0.00,VWS V14.01,2013-07-22 02:44:00,
2013-07-21 22:45:00,74.7,71.2,29.93,ESE,105,0.0,0.0,89,0.00,,---,0.00,VWS V14.01,2013-07-22 02:45:00,
2013-07-21 22:46:00,74.6,71.2,29.93,ESE,105,0.0,0.0,89,0.00,,---,0.00,VWS V14.01,2013-07-22 02:46:00,
2013-07-21 22:47:00,74.6,71.2,29.93,ESE,105,0.0,0.0,89,0.00,,---,0.00,VWS V14.01,2013-07-22 02:47:00,
2013-07-21 22:48:00,74.6,71.2,29.93,ESE,105,0.0,0.0,89,0.00,,---,0.00,VWS V14.01,2013-07-22 02:48:00,
2013-07-21 22:49:00,74.6,71.2,29.93,ESE,105,0.0,0.0,89,0.00,,---,0.00,VWS V14.01,2013-07-22 02:49:00,
2013-07-21 22:50:00,74.5,71.1,29.93,ESE,105,0.0,0.0,89,0.00,,---,0.00,VWS V14.01,2013-07-22 02:50:00,
2013-07-21 22:51:00,74.4,70.9,29.93,ESE,105,0.0,0.0,89,0.00,,---,0.00,VWS V14.01,2013-07-22 02:51:00,
2013-07-21 22:52:00,74.4,70.9,29.93,ESE,105,0.0,0.0,89,0.00,,---,0.00,VWS V14.01,2013-07-22 02:52:00,
2013-07-21 22:53:00,74.4,70.9,29.93,ESE,105,0.0,0.0,89,0.00,,---,0.00,VWS V14.01,2013-07-22 02:53:00,
2013-07-21 22:54:00,74.4,70.9,29.93,ESE,105,0.0,0.0,89,0.00,,---,0.00,VWS V14.01,2013-07-22 02:54:00,
2013-07-21 22:55:00,74.3,70.8,29.93,ESE,105,0.0,0.0,89,0.00,,---,0.00,VWS V14.01,2013-07-22 02:55:00,
2013-07-21 22:56:00,74.3,71.2,29.93,ESE,105,0.0,0.0,90,0.00,,---,0.00,VWS V14.01,2013-07-22 02:56:00,
2013-07-21 22:57:00,74.3,71.2,29.93,ESE,105,0.0,0.0,90,0.00,,---,0.00,VWS V14.01,2013-07-22 02:57:00,
2013-07-21 22:58:00,74.2,71.1,29.93,ESE,105,0.0,0.0,90,0.00,,---,0.00,VWS V14.01,2013-07-22 02:58:00,
2013-07-21 22:59:00,74.2,71.1,29.93,ESE,105,0.0,0.0,90,0.00,,---,0.00,VWS V14.01,2013-07-22 02:59:00,
2013-07-21 23:00:00,74.2,71.1,29.93,ESE,105,0.0,0.0,90,0.00,,---,0.00,VWS V14.01,2013-07-22 03:00:00,
2013-07-21 23:01:00,74.2,71.1,29.93,ESE,105,0.0,0.0,90,0.00,,---,0.00,VWS V14.01,2013-07-22 03:01:00,
2013-07-21 23:03:00,74.1,71.0,29.93,ESE,105,0.0,0.0,90,0.00,,---,0.00,VWS V14.01,2013-07-22 03:03:00,
2013-07-21 23:04:00,74.1,71.0,29.93,ESE,105,0.0,0.0,90,0.00,,---,0.00,VWS V14.01,2013-07-22 03:04:00,
2013-07-21 23:05:00,74.0,70.9,29.93,ESE,105,0.0,0.0,90,0.00,,---,0.00,VWS V14.01,2013-07-22 03:05:00,
2013-07-21 23:06:00,74.0,70.9,29.93,ESE,105,0.0,0.0,90,0.00,,---,0.00,VWS V14.01,2013-07-22 03:06:00,
2013-07-21 23:08:00,73.9,70.8,29.93,ESE,105,0.0,0.0,90,0.00,,---,0.00,VWS V14.01,2013-07-22 03:08:00,
2013-07-21 23:09:00,73.9,70.8,29.93,ESE,105,0.0,0.0,90,0.00,,---,0.00,VWS V14.01,2013-07-22 03:09:00,
2013-07-21 23:10:00,73.9,71.1,29.93,ESE,105,0.0,0.0,91,0.00,,---,0.00,VWS V14.01,2013-07-22 03:10:00,
2013-07-21 23:12:00,73.9,71.1,29.93,ESE,105,0.0,0.0,91,0.00,,---,0.00,VWS V14.01,2013-07-22 03:12:00,
2013-07-21 23:13:00,73.8,71.0,29.93,ESE,105,0.0,0.0,91,0.00,,---,0.00,VWS V14.01,2013-07-22 03:13:00,
2013-07-21 23:14:00,73.8,71.0,29.93,ESE,105,0.0,0.0,91,0.00,,---,0.00,VWS V14.01,2013-07-22 03:14:00,
2013-07-21 23:15:00,73.8,71.0,29.93,ESE,105,0.0,0.0,91,0.00,,---,0.00,VWS V14.01,2013-07-22 03:15:00,
2013-07-21 23:16:00,73.8,71.0,29.93,ESE,105,0.0,0.0,91,0.00,,---,0.00,VWS V14.01,2013-07-22 03:16:00,
2013-07-21 23:17:00,73.7,70.9,29.93,ESE,105,0.0,0.0,91,0.00,,---,0.00,VWS V14.01,2013-07-22 03:17:00,
2013-07-21 23:18:00,73.7,70.9,29.93,ESE,105,0.0,0.0,91,0.00,,---,0.00,VWS V14.01,2013-07-22 03:18:00,
2013-07-21 23:19:00,73.7,70.9,29.93,ESE,105,0.0,0.0,91,0.00,,---,0.00,VWS V14.01,2013-07-22 03:19:00,
2013-07-21 23:20:00,73.7,70.9,29.93,ESE,105,0.0,0.0,91,0.00,,---,0.00,VWS V14.01,2013-07-22 03:20:00,
2013-07-21 23:21:00,73.7,70.9,29.93,ESE,105,0.0,0.0,91,0.00,,---,0.00,VWS V14.01,2013-07-22 03:21:00,
2013-07-21 23:22:00,73.6,70.8,29.93,ESE,105,0.0,0.0,91,0.00,,---,0.00,VWS V14.01,2013-07-22 03:22:00,
2013-07-21 23:23:00,73.6,70.8,29.93,ESE,105,0.0,0.0,91,0.00,,---,0.00,VWS V14.01,2013-07-22 03:23:00,
2013-07-21 23:24:00,73.6,70.8,29.93,ESE,105,0.0,0.0,91,0.00,,---,0.00,VWS V14.01,2013-07-22 03:24:00,
2013-07-21 23:25:00,73.6,70.8,29.93,ESE,105,0.0,0.0,91,0.00,,---,0.00,VWS V14.01,2013-07-22 03:25:00,
2013-07-21 23:26:00,73.6,70.8,29.93,ESE,105,0.0,0.0,91,0.00,,---,0.00,VWS V14.01,2013-07-22 03:26:00,
2013-07-21 23:27:00,73.5,70.7,29.93,ESE,105,0.0,0.0,91,0.00,,---,0.00,VWS V14.01,2013-07-22 03:27:00,
2013-07-21 23:28:00,73.5,70.7,29.93,ESE,105,0.0,0.0,91,0.00,,---,0.00,VWS V14.01,2013-07-22 03:28:00,
2013-07-21 23:29:00,73.5,70.7,29.93,ESE,105,0.0,0.0,91,0.00,,---,0.00,VWS V14.01,2013-07-22 03:29:00,
2013-07-21 23:30:00,73.5,70.7,29.93,ESE,105,0.0,0.0,91,0.00,,---,0.00,VWS V14.01,2013-07-22 03:30:00,
2013-07-21 23:31:00,73.4,70.9,29.93,ESE,105,0.0,0.0,92,0.00,,---,0.00,VWS V14.01,2013-07-22 03:31:00,
2013-07-21 23:32:00,73.4,70.9,29.93,ESE,105,0.0,0.0,92,0.00,,---,0.00,VWS V14.01,2013-07-22 03:32:00,
2013-07-21 23:33:00,73.4,70.9,29.93,ESE,105,0.0,0.0,92,0.00,,---,0.00,VWS V14.01,2013-07-22 03:33:00,
2013-07-21 23:34:00,73.4,70.9,29.92,ESE,105,0.0,0.0,92,0.00,,---,0.00,VWS V14.01,2013-07-22 03:34:00,
2013-07-21 23:35:00,73.4,70.9,29.92,ESE,105,0.0,0.0,92,0.00,,---,0.00,VWS V14.01,2013-07-22 03:35:00,
2013-07-21 23:36:00,73.4,70.9,29.92,ESE,105,0.0,0.0,92,0.00,,---,0.00,VWS V14.01,2013-07-22 03:36:00,
2013-07-21 23:37:00,73.4,70.9,29.93,ESE,105,0.0,0.0,92,0.00,,---,0.00,VWS V14.01,2013-07-22 03:37:00,
2013-07-21 23:38:00,73.4,70.9,29.93,ESE,105,0.0,0.0,92,0.00,,---,0.00,VWS V14.01,2013-07-22 03:38:00,
2013-07-21 23:39:00,73.3,70.8,29.93,ESE,105,0.0,0.0,92,0.00,,---,0.00,VWS V14.01,2013-07-22 03:39:00,
2013-07-21 23:40:00,73.3,70.8,29.93,ESE,105,0.0,0.0,92,0.00,,---,0.00,VWS V14.01,2013-07-22 03:40:00,
2013-07-21 23:41:00,73.3,70.8,29.92,ESE,105,0.0,0.0,92,0.00,,---,0.00,VWS V14.01,2013-07-22 03:41:00,
2013-07-21 23:42:00,73.3,70.8,29.92,ESE,105,0.0,0.0,92,0.00,,---,0.00,VWS V14.01,2013-07-22 03:42:00,
2013-07-21 23:43:00,73.3,70.8,29.92,ESE,105,0.0,0.0,92,0.00,,---,0.00,VWS V14.01,2013-07-22 03:43:00,
2013-07-21 23:44:00,73.3,70.8,29.92,ESE,105,0.0,0.0,92,0.00,,---,0.00,VWS V14.01,2013-07-22 03:44:00,
2013-07-21 23:45:00,73.3,70.8,29.92,ESE,105,0.0,0.0,92,0.00,,---,0.00,VWS V14.01,2013-07-22 03:45:00,
2013-07-21 23:46:00,73.3,70.8,29.92,ESE,105,0.0,0.0,92,0.00,,---,0.00,VWS V14.01,2013-07-22 03:46:00,
2013-07-21 23:47:00,73.3,70.8,29.92,ESE,105,0.0,0.0,92,0.00,,---,0.00,VWS V14.01,2013-07-22 03:47:00,
2013-07-21 23:48:00,73.3,70.8,29.92,ESE,105,0.0,0.0,92,0.00,,---,0.00,VWS V14.01,2013-07-22 03:48:00,
2013-07-21 23:49:00,73.2,70.7,29.92,ESE,105,0.0,0.0,92,0.00,,---,0.00,VWS V14.01,2013-07-22 03:49:00,
2013-07-21 23:50:00,73.2,70.7,29.92,ESE,105,0.0,0.0,92,0.00,,---,0.00,VWS V14.01,2013-07-22 03:50:00,
2013-07-21 23:51:00,73.2,70.7,29.92,ESE,105,0.0,0.0,92,0.00,,---,0.00,VWS V14.01,2013-07-22 03:51:00,
2013-07-21 23:52:00,73.2,70.7,29.92,ESE,105,0.0,0.0,92,0.00,,---,0.00,VWS V14.01,2013-07-22 03:52:00,
2013-07-21 23:53:00,73.2,70.7,29.92,ESE,105,0.0,0.0,92,0.00,,---,0.00,VWS V14.01,2013-07-22 03:53:00,
2013-07-21 23:54:00,73.1,70.6,29.92,ESE,105,0.0,0.0,92,0.00,,---,0.00,VWS V14.01,2013-07-22 03:54:00,
2013-07-21 23:55:00,73.1,70.6,29.92,ESE,105,0.0,0.0,92,0.00,,---,0.00,VWS V14.01,2013-07-22 03:55:00,
2013-07-21 23:56:00,73.1,70.6,29.92,ESE,105,0.0,0.0,92,0.00,,---,0.00,VWS V14.01,2013-07-22 03:56:00,
2013-07-21 23:57:00,73.1,70.6,29.92,ESE,105,0.0,0.0,92,0.00,,---,0.00,VWS V14.01,2013-07-22 03:57:00,
2013-07-21 23:58:00,73.1,70.6,29.92,ESE,105,0.0,0.0,92,0.00,,---,0.00,VWS V14.01,2013-07-22 03:58:00,
2013-07-21 23:59:00,73.1,70.6,29.92,ESE,105,0.0,0.0,92,0.00,,---,0.00,VWS V14.01,2013-07-22 03:59:00,